[[{"header":{"parameterUnit":"m.s-1","parameterCategory":1,"la1":31.0,"la2":29.5877,"lo1":-88.7671,"lo2":-86.6584,"dy":0.0162,"dx":0.0185,"nx":115,"ny":88,"refTime":"2025-12-02T12:00:00:Z","depth":0,"parameterNumber":2,"parameterNumberName":"U-component_of_WINDS"},"data":[0.0,0.0,0.0,0.0,0.0,0.0,0.0,0.0,0.0,0.0,0.0,0.0,0.0,0.0,0.0,0.0,0.0,0.0,0.0,0.0,0.0,0.0,0.0,0.0,0.0,0.0,0.0,0.0,0.0,0.0,0.0,0.0,0.0,0.0,0.0,0.0,0.0,0.0,0.0,0.0,0.0,0.0,0.0,0.0,0.0,0.0,0.0,0.0,0.0,0.0,0.0,0.0,0.0,0.0,0.0,0.0,0.0,0.0,0.0,0.0,0.0,0.0,0.0,0.0,0.0,0.0,0.0,0.0,0.0,0.0,0.0,0.0,0.0,0.0,0.0,0.0,0.0,0.0,0.0,0.0,0.0,0.0,0.0,0.0,0.0,0.0,0.0,0.0,0.0,0.0,0.0,0.0,0.0,0.0,0.0,0.0,0.0,0.0,0.0,0.0,0.0,0.0,0.0,0.0,0.0,0.0,0.0,0.0,0.0,0.0,0.0,0.0,0.0,0.0,0.0,0.0,0.0,0.0,0.0,0.0,0.0,0.0,0.0,0.0,0.0,0.0,0.0,0.0,0.0,0.0,0.0,0.0,0.0,0.0,0.0,0.0,0.0,0.0,0.0,0.0,0.0,0.0,0.0,0.0,0.0,0.0,0.0,0.0,0.0,0.0,0.0,0.0,0.0,0.0,0.0,0.0,0.0,0.0,0.0,0.0,0.0,0.0,0.0,0.0,0.0,0.0,0.0,0.0,0.0,0.0,0.0,0.0,0.0,0.0,0.0,0.0,0.0,0.0,0.0,0.0,0.0,0.0,0.0,0.0,0.0,0.0,0.0,0.0,0.0,0.0,0.0,0.0,0.0,0.0,0.0,0.0,0.0,0.0,0.0,0.0,0.0,0.0,0.0,0.0,0.0,0.0,0.0,0.0,0.0,0.0,0.0,0.0,0.0,0.0,0.0,0.0,0.0,0.0,0.0,0.0,0.0,0.0,0.0,0.0,0.0,0.0,0.0,0.0,0.0,0.0,0.0,0.0,0.0,0.0,0.0,0.0,0.0,0.0,0.0,0.0,0.0,0.0,0.0,0.0,0.0,0.0,0.0,0.0,0.0,0.0,0.0,0.0,0.0,0.0,0.0,0.0,0.0,0.0,0.0,0.0,0.0,0.0,0.0,0.0,0.0,0.0,0.0,0.0,0.0,0.0,0.0,0.0,0.0,0.0,0.0,0.0,0.0,0.0,0.0,0.0,0.0,0.0,0.0,0.0,0.0,0.0,0.0,0.0,0.0,0.0,0.0,0.0,0.0,0.0,0.0,0.0,0.0,0.0,0.0,0.0,0.0,0.0,0.0,0.0,0.0,0.0,0.0,0.0,0.0,0.0,0.0,0.0,0.0,0.0,0.0,0.0,0.0,0.0,0.0,0.0,0.0,0.0,0.0,0.0,0.0,0.0,0.0,0.0,0.0,0.0,0.0,0.0,0.0,0.0,0.0,0.0,0.0,0.0,0.0,0.0,0.0,0.0,0.0,0.0,0.0,0.0,0.0,0.0,0.0,0.0,0.0,0.0,0.0,0.0,0.0,0.0,0.0,0.0,0.0,0.0,0.0,0.0,0.0,0.0,0.0,0.0,0.0,0.0,0.0,0.0,0.0,0.0,0.0,0.0,0.0,0.0,0.0,0.0,0.0,0.0,0.0,0.0,0.0,0.0,0.0,0.0,0.0,0.0,0.0,0.0,0.0,0.0,0.0,0.0,0.0,0.0,0.0,0.0,0.0,0.0,0.0,0.0,0.0,0.0,0.0,0.0,0.0,0.0,0.0,0.0,0.0,0.0,0.0,0.0,0.0,0.0,0.0,0.0,0.0,0.0,0.0,0.0,0.0,0.0,0.0,0.0,0.0,0.0,0.0,0.0,0.0,0.0,0.0,0.0,0.0,0.0,0.0,0.0,0.0,0.0,0.0,0.0,0.0,0.0,0.0,0.0,0.0,0.0,0.0,0.0,0.0,0.0,0.0,0.0,0.0,0.0,0.0,0.0,0.0,0.0,0.0,0.0,0.0,0.0,0.0,0.0,0.0,0.0,0.0,0.0,0.0,0.0,0.0,0.0,0.0,0.0,0.0,0.0,0.0,0.0,0.0,0.0,0.0,0.0,0.0,0.0,0.0,0.0,0.0,0.0,0.0,0.0,0.0,0.0,0.0,0.0,0.0,0.0,0.0,0.0,0.0,0.0,0.0,0.0,0.0,0.0,0.0,0.0,0.0,0.0,0.0,0.0,0.0,0.0,0.0,0.0,0.0,0.0,0.0,0.0,0.0,0.0,0.0,0.0,0.0,0.0,0.0,0.0,0.0,0.0,0.0,0.0,0.0,0.0,0.0,0.0,0.0,0.0,0.0,0.0,0.0,0.0,0.0,0.0,0.0,0.0,0.0,0.0,0.0,0.0,0.0,0.0,0.0,0.0,0.0,0.0,0.0,0.0,0.0,0.0,0.0,0.0,0.0,0.0,0.0,0.0,0.0,0.0,0.0,0.0,0.0,0.0,0.0,0.0,0.0,0.0,0.0,0.0,0.0,0.0,0.0,0.0,0.0,0.0,0.0,0.0,0.0,0.0,0.0,0.0,0.0,0.0,0.0,0.0,0.0,0.0,0.0,0.0,0.0,0.0,0.0,0.0,0.0,0.0,0.0,0.0,0.0,0.0,0.0,0.0,0.0,0.0,0.0,0.0,0.0,0.0,0.0,0.0,0.0,0.0,0.0,0.0,0.0,0.0,0.0,0.0,0.0,0.0,0.0,0.0,0.0,0.0,0.0,0.0,0.0,0.0,0.0,0.0,0.0,0.0,0.0,0.0,0.0,0.0,0.0,0.0,0.0,0.0,0.0,0.0,0.0,0.0,0.0,0.0,0.0,0.0,0.0,0.0,0.0,0.0,0.0,0.0,0.0,0.0,0.0,0.0,0.0,0.0,0.0,0.0,0.0,0.0,0.0,0.0,0.0,0.0,0.0,0.0,0.0,0.0,0.0,0.0,0.0,0.0,0.0,0.0,0.0,0.0,0.0,0.0,0.0,0.0,0.0,0.0,0.0,0.0,0.0,0.0,0.0,0.0,0.0,0.0,0.0,0.0,0.0,0.0,0.0,0.0,0.0,0.0,0.0,0.0,0.0,0.0,0.0,0.0,0.0,0.0,0.0,0.0,0.0,0.0,0.0,0.0,0.0,0.0,0.0,0.0,0.0,0.0,0.0,0.0,0.0,0.0,0.0,0.0,0.0,0.0,0.0,0.0,0.0,0.0,0.0,0.0,0.0,0.0,0.0,0.0,0.0,0.0,0.0,0.0,0.0,0.0,0.0,0.0,0.0,0.0,0.0,0.0,0.0,0.0,0.0,0.0,0.0,0.0,0.0,0.0,0.0,0.0,0.0,0.0,0.0,0.0,0.0,0.0,0.0,0.0,0.0,0.0,0.0,0.0,0.0,0.0,0.0,0.0,0.0,0.0,0.0,0.0,0.0,0.0,0.0,0.0,0.0,0.0,0.0,0.0,0.0,0.0,0.0,0.0,0.0,0.0,0.0,0.0,0.0,0.0,0.0,0.0,0.0,0.0,0.0,0.0,0.0,0.0,0.0,0.0,0.0,0.0,0.0,0.0,0.0,0.0,0.0,0.0,0.0,0.0,0.0,0.0,0.0,0.0,0.0,0.0,0.0,0.0,0.0,0.0,0.0,0.0,0.0,0.0,0.0,0.0,0.0,0.0,0.0,0.0,0.0,0.0,0.0,0.0,0.0,0.0,0.0,0.0,0.0,0.0,0.0,0.0,0.0,0.0,0.0,0.0,0.0,0.0,0.0,0.0,0.0,0.0,0.0,0.0,0.0,0.0,0.0,0.0,0.0,0.0,0.0,0.0,0.0,0.0,0.0,0.0,0.0,0.0,0.0,0.0,0.0,0.0,0.0,0.0,0.0,0.0,0.0,0.0,0.0,0.0,0.0,0.0,0.0,0.0,0.0,0.0,0.0,0.0,0.0,0.0,0.0,0.0,0.0,0.0,0.0,0.0,0.0,0.0,0.0,0.0,0.0,0.0,0.0,0.0,0.0,0.0,0.0,0.0,0.0,0.0,0.0,0.0,0.0,0.0,0.0,0.0,0.0,0.0,0.0,0.0,0.0,0.0,0.0,0.0,0.0,0.0,0.0,0.0,0.0,0.0,0.0,0.0,0.0,0.0,0.0,0.0,0.0,0.0,0.0,0.0,0.0,0.0,0.0,0.0,0.0,0.0,0.0,0.0,0.1898,0.0,0.0,0.0,0.0,0.0,0.0,0.0,0.0,0.0,0.0,0.0,0.0,0.0,0.0,0.0,0.0,0.0,0.0,0.0,0.0,0.0,0.0,0.0,0.0,0.0,0.0,0.0,0.0,0.0,0.0,0.0,0.0,0.0,0.0,0.0,0.0,0.0,0.0,0.0,0.0,0.0,0.0,0.0,0.0,0.0,0.0,0.0,0.0,0.0,0.0,0.0,0.0,0.0,0.0,0.0,0.0,0.0,0.0,0.0,0.0,0.0,0.0,0.0,0.0,0.0,0.0,0.0,0.0,0.0,0.0,0.0,0.0,0.0,0.0,0.0,0.0,0.0,0.0,0.0,0.0,0.0,0.0,0.0,0.0,0.0,0.0,0.0,0.0,0.0,0.0,0.0,0.0,0.0,0.0,0.0,0.0,0.0,0.0,0.0,0.0,0.0,0.0,0.0,0.0,0.0,0.0,0.0,0.0,0.0,0.0,0.364,0.3104,0.259,0.221,0.1998,0.0,0.0,0.0,0.0,0.0,0.0,0.0,0.0,0.0,0.0,0.0,0.0,0.0,0.0,0.0,0.0,0.0,0.0,0.0,0.0,0.0,0.0,0.0,0.0,0.0,0.0,0.0,0.0,0.0,0.0,0.0,0.0,0.0,0.0,0.0,0.0,0.0,0.0,0.0,0.0,0.0,0.0,0.0,0.0,0.0,0.0,0.0,0.0,0.0,0.0,0.0,0.0,0.0,0.0,0.0,0.0,0.0,0.0,0.0,0.0,0.0,0.0,0.0,0.0,0.0,0.0,0.0,0.0,0.0,0.0,0.0,0.0,0.0,0.0,0.0,0.0,0.0,0.0,0.0,0.0,0.0,0.0,0.0,0.0,0.0,0.0,0.0,0.0,0.0,0.0,0.0,0.0,0.0,0.0,0.0,0.0,0.0,0.0,0.0,0.0,0.0,0.0,0.0,0.0,0.0,0.0,0.0,0.0,0.0,0.0,0.0,0.0,0.2677,0.2212,0.1788,0.0,0.0,0.0,0.0,0.0,0.0,0.0,0.0,0.0,0.0,0.0,0.0,0.0,0.0,0.0,0.0,0.0,0.0,0.0,0.0,0.0,0.0,0.0,0.0,0.0,0.0,0.0,0.0,0.0,0.0,0.0,0.0,0.0,0.0,0.0,0.0,0.0,0.0,0.0,0.0,0.0,0.0,0.0,0.0,0.0,0.0,0.0,0.0,0.0,0.0,0.0,0.0,0.0,0.0,0.0,0.0,0.0,0.0,0.0,0.0,0.0,0.0,0.0,0.0,0.0,0.0,0.0,0.0,0.0,0.0,0.0,0.0,0.0,0.0,0.0,0.0,0.0,0.0,0.0,0.0,0.0,0.0,0.0,0.0,0.0,0.0,0.0,0.0,0.0,0.0,0.0,0.0,0.0,0.0,0.0,0.0,0.0,0.0,0.0,0.0,0.0,0.0,0.0,0.0,0.0,0.0,0.0,0.0,0.0,0.0,0.3508,0.3461,0.2762,0.0,0.1242,0.0,0.0,0.0,0.0,0.0,0.0,0.0,0.0,0.0,0.0,0.0,0.0,0.0,0.0,0.0,0.0,0.0,0.0,0.0,0.0,0.0,0.0,0.0,0.0,0.0,0.0,0.0,0.0,0.0,0.0,0.0,0.0,0.0,0.0,0.0,0.0,0.0,0.0,0.0,0.0,0.0,0.0,0.0,0.0,0.0,0.0,0.0,0.0,0.0,0.0,0.0,0.0,0.0,0.0,0.0,0.0,0.0,0.0,0.0,0.0,0.0,0.0,0.0,0.0,0.0,0.0,0.0,0.0,0.0,0.0,0.0,0.0,0.0,0.0,0.0,0.0,0.0,0.0,0.0,0.0,0.0,0.0,0.0,0.0,0.0,0.0,0.0,0.0,0.0,0.0,0.0,0.0,0.0,0.0,0.0,0.0,0.0,0.0,0.0,0.0,0.0,0.0,0.0,0.0,0.0,0.0,0.0,0.0,0.0,0.0,0.342,0.3271,0.2631,0.191,0.0,0.0,0.0,0.0,0.0,0.0,0.0,0.0,0.0,0.0,0.0,0.0,0.0,0.0,0.0,0.0,0.0,0.0,0.0,0.0,0.0,0.0,0.0,0.0,0.0,0.0,0.0,0.0,0.0,0.0,0.0,0.0,0.0,0.0,0.0,0.0,0.0,0.0,0.0,0.0,0.0,0.0,0.0,0.0,0.0,0.0,0.0,0.0,0.0,0.0,0.0,0.0,0.0,0.0,0.0,0.0,0.0,0.0,0.0,0.0,0.0,0.0,0.0,0.0,0.0,0.0,0.0,0.0,0.0,0.0,0.0,0.0,0.0,0.0,0.0,0.0,0.0,0.0,0.0,0.0,0.0,0.0,0.0,0.0,0.0,0.0,0.0,0.0,0.0,0.0,0.0,0.0,0.0,0.0,0.0,0.0,0.0,0.0,0.0,0.0,0.0,0.0,0.0,0.0,0.0,0.0,0.0,0.0,0.0,0.0,0.3599,0.333,0.2988,0.2476,0.1852,0.1127,0.0,0.0,0.0,0.0,0.0,0.0,0.0,0.0,0.0,0.0,0.0,0.0,0.0,0.0,0.0,0.0,0.0,0.0,0.0,0.0,0.0,0.0,0.0,0.0,0.0,0.0,0.0,0.0,0.0,0.0,0.0,0.0,0.0,0.0,0.0,0.0,0.0,0.0,0.0,0.0,0.0,0.0,0.0,0.0,0.0,0.0,0.0,0.0,0.0,0.0,0.0,0.0,0.0,0.0,0.0,0.0,0.0,0.0,0.0,0.0,0.0,0.0,0.0,0.0,0.0,0.0,0.0,0.0,0.0,0.0,0.0,0.0,0.0,0.0,0.0,0.0,0.0,0.0,0.0,0.0,0.0,0.0,0.0,0.0,0.0,0.0,0.0,0.0,0.0,0.0,0.0,0.0,0.0,0.0,0.0,0.0,0.0,0.0,0.0,0.0,0.0,0.0,0.0,0.0,0.0,0.0,0.0,0.0,0.3522,0.3495,0.3255,0.2724,0.2383,0.1854,0.0,0.0,0.0,0.0,0.0,0.0,0.0,0.0,0.0,0.0,0.0,0.0,0.0,0.0,0.0,0.0,0.0,0.0,0.0,0.0,0.0,0.0,0.0,0.0,0.0,0.0,0.0,0.0,0.0,0.0,0.0,0.0,0.0,0.0,0.0,0.0,0.0,0.0,0.0,0.0,0.0,0.0,0.0,0.0,0.0,0.0,0.0,0.0,0.0,0.0,0.0,0.0,0.0,0.0,0.0,0.0,0.0,0.0,0.0,0.0,0.0,0.0,0.0,0.0,0.0,0.0,0.0,0.0,0.0,0.0,0.0,0.0,0.0,0.0,0.0,0.0,0.0,0.0,0.0,0.0,0.0,0.0,0.0,0.0,0.0,0.0,0.0,0.0,0.0,0.0,0.0,0.0,0.0,0.0,0.0,0.0,0.0,0.0,0.0,0.0,0.0,0.0,0.0,0.0,0.0,0.0,0.0,0.0,0.0,0.325,0.3084,0.2794,0.2389,0.2172,0.1852,0.0,0.0,0.0,0.0,0.0,0.0,0.0,0.0,0.0,0.0,0.0,0.0,0.0,0.0,0.0,0.0,0.0,0.0,0.0,0.0,0.0,0.0,0.0,0.0,0.0,0.0,0.0,0.0,0.0,0.0,0.0,0.0,0.0,0.0,0.0,0.0,0.0,0.0,0.0,0.0,0.0,0.0,0.0,0.0,0.0,0.0,0.0,0.0,0.0,0.0,0.0,0.0,0.0,0.0,0.0,0.0,0.0,0.0,0.0,0.0,0.0,0.0,0.0,0.0,0.0,0.0,0.0,0.0,0.0,0.0,0.0,0.0,0.0,0.0,0.0,0.0,0.0,0.0,0.0,0.0,0.0,0.0,0.0,0.0,0.0,0.0,0.0,0.0,0.0,0.0,0.0,0.0,0.0,0.0,0.0,0.0,0.0,0.0,0.0,0.0,0.0,0.0,0.0,0.0,0.0,0.0,0.0,0.0,0.0,0.2966,0.0,0.2551,0.2216,0.2029,0.1796,0.0,0.0,0.0,0.0,0.0,0.0,0.0,0.0,0.0,0.0,0.0,0.0,0.0,0.0,0.0,0.0,0.0,0.0,0.0,0.0,0.0,0.0,0.0,0.0,0.0,0.0,0.0,0.0,0.0,0.0,0.0,0.0,0.0,0.0,0.0,0.0,0.0,0.0,0.0,0.0,0.0,0.0,0.0,0.0,0.0,0.0,0.0,0.0,0.0,0.0,0.0,0.0,0.0,0.0,0.0,0.0,0.0,0.0,0.0,0.0,0.0,0.0,0.0,0.0,0.0,0.0,0.0,0.0,0.0,0.0,0.0,0.0,0.0,0.0,0.0,0.0,0.0,0.0,0.0,0.0,0.0,0.0,0.0,0.0,0.0,0.0,0.0,0.0,0.0,0.0,0.0,0.0,0.0,0.0,0.0,0.0,0.0,0.0,0.0,0.0,0.0,0.0,0.0,0.0,0.0,0.0,0.0,0.0,0.295,0.2708,0.2691,0.2532,0.2213,0.1951,0.1648,0.0,0.0,0.0,0.0,0.0,0.0,0.0,0.0,0.0,0.0,0.0,0.0,0.0,0.0,0.0,0.0,0.0,0.0,0.0,0.0,0.0,0.0,0.0,0.0,0.0,0.0,0.0,0.0,0.0,0.0,0.0,0.0,0.0,0.0,0.0,0.0,0.0,0.0,0.0,0.0,0.0,0.0,0.0,0.0,0.0,0.0,0.0,0.0,0.0,0.0,0.0,0.0,0.0,0.0,0.0,0.0,0.0,0.0,0.0,0.0,0.0,0.0,0.0,0.0,0.0,0.0,0.0,0.0,0.0,0.0,0.0,0.0,0.0,0.0,0.0,0.0,0.0,0.0,0.0,0.0,0.0,0.0,0.0,0.0,0.0,0.0,0.0,0.0,0.0,0.0,0.0,0.0,0.0,0.0,0.0,0.0,0.0,0.0,0.0,0.0,0.0,0.0,0.0,0.0,0.0,0.0,0.0,0.0,0.0,0.2098,0.2352,0.2348,0.2085,0.1987,0.1845,0.0,0.0,0.0,0.0,0.0,0.0,0.0,0.0,0.0,0.0,0.0,0.0,0.0,0.0,0.0,0.0,0.0,0.0,0.0,0.0,0.0,0.0,0.0,0.0,0.0,0.0,0.0,0.0,0.0,0.0,0.0,0.0,0.0,0.0,0.0,0.0,0.0,0.0,0.0,0.0,0.0,0.0,0.0,0.0,0.0,0.0,0.0,0.0,0.0,0.0,0.0,0.0,0.0,0.0,0.0,0.0,0.0,0.0,0.0,0.0,0.0,0.0,0.0,0.0,0.0,0.0,0.0,0.0,0.0,0.0,0.0,0.0,0.0,0.0,0.0,0.0,0.0,0.0,0.0,0.0,0.0,0.0,0.0,0.0,0.0,0.0,0.0,0.0,0.0,0.0,0.0,0.0,0.0,0.0,0.0,0.0,0.0,0.0,0.0,0.0,0.0,0.0,0.0,0.0,0.0,0.0,0.0,0.0,0.0,0.1972,0.2321,0.2348,0.2021,0.2012,0.1905,0.1736,0.0,0.0,0.0,0.0,0.0,0.0,0.0,0.0,0.0,0.0,0.0,0.0,0.0,0.0,0.0,0.0,0.0,0.0,0.0,0.0,0.0,0.0,0.0,0.0,0.0,0.0,0.0,0.0,0.0,0.0,0.0,0.0,0.0,0.0,0.0,0.0,0.0,0.0,0.0,0.0,0.0,0.0,0.0,0.0,0.0,0.0,0.0,0.0,0.0,0.0,0.0,0.0,0.0,0.0,0.0,0.0,0.0,0.0,0.0,0.0,0.0,0.0,0.0,0.0,0.0,0.0,0.0,0.0,0.0,0.0,0.0,0.0,0.0,0.0,0.0,0.0,0.0,0.0,0.0,0.0,0.0,0.0,0.0,0.0,0.0,0.0,0.0,0.0,0.0,0.0,0.0,0.0,0.0,0.0,0.0,0.0,0.0,0.0,0.0,0.0,0.0,0.0,0.0,0.0,0.0,0.0,0.0,0.0,0.2197,0.2537,0.2486,0.2056,0.2032,0.1898,0.0,0.0,0.0,0.0,0.0,0.0,0.0,0.0,0.0,0.0,0.0,0.0,0.0,0.0,0.0,0.0,0.0,0.0,0.0,0.0,0.0,0.0,0.0,0.0,0.0,0.0,0.0,0.0,0.0,0.0,0.0,0.0,0.0,0.0,0.0,0.0,0.0,0.0,0.0,0.0,0.0,0.0,0.0,0.0,0.0,0.0,0.0,0.0,0.0,0.0,0.0,0.0,0.0,0.0,0.0,0.0,0.0,0.0,0.0,0.0,0.0,0.0,0.0,0.0,0.0,0.0,0.0,0.0,0.0,0.0,0.0,0.0,0.0,0.0,0.0,0.0,0.0,0.0,0.0,0.0,0.0,0.0,0.0,0.0,0.0,0.0,0.0,0.0,0.0,0.0,0.0,0.0,0.0,0.0,0.0,0.0,0.0,0.0,0.0,0.0,0.0,0.0,0.0,0.0,0.0,0.0,0.0,0.0,0.0,0.222,0.262,0.2738,0.2533,0.2286,0.2117,0.0,0.0,0.0,0.0,0.0,0.0,0.0,0.0,0.0,0.0,0.0,0.0,0.0,0.0,0.0,0.0,0.0,0.0,0.0,0.0,0.0,0.0,0.0,0.0,0.0,0.0,0.0,0.0,0.0,0.0,0.0,0.0,0.0,0.0,0.0,0.0,0.0,0.0,0.0,0.0,0.0,0.0,0.0,0.0,0.0,0.0,0.0,0.0,0.0,0.0,0.0,0.0,0.0,0.0,0.0,0.0,0.0,0.0,0.0,0.0,0.0,0.0,0.0,0.0,0.0,0.0,0.0,0.0,0.0,0.0,0.0,0.0,0.0,0.0,0.0,0.0,0.0,0.0,0.0,0.0,0.0,0.0,0.0,0.0,0.0,0.0,0.0,0.0,0.0,0.0,0.0,0.0,0.0,0.0,0.0,0.0,0.0,0.0,0.0,0.0,0.0,0.0,0.0,0.0,0.0,0.0,0.0,0.0,0.2381,0.2406,0.2735,0.2866,0.2786,0.2531,0.2349,0.0,0.0,0.0,0.0,0.0,0.0,0.0,0.0,0.0,0.0,0.0,0.0,0.0,0.0,0.0,0.0,0.0,0.0,0.0,0.0,0.0,0.0,0.0,0.0,0.0,0.0,0.0,0.0,0.0,0.0,0.0,0.0,0.0,0.0,0.0,0.0,0.0,0.0,0.0,0.0,0.0,0.0,0.0,0.0,0.0,0.0,0.0,0.0,0.0,0.0,0.0,0.0,0.0,0.0,0.0,0.0,0.0,0.0,0.0,0.0,0.0,0.0,0.0,0.0,0.0,0.0,0.0,0.0,0.0,0.0,0.0,0.0,0.0,0.0,0.0,0.0,0.0,0.0,0.0,0.0,0.0,0.0,0.0,0.0,0.0,0.0,0.0,0.0,0.0,0.0,0.0,0.0,0.0,0.0,0.0,0.0,0.0,0.0,0.0,0.0,0.0,0.0,0.0,0.0,0.0,0.0,0.0,0.0,0.2396,0.2689,0.2823,0.2901,0.2889,0.2761,0.2532,0.0,0.0,0.0,0.0,0.0,0.0,0.0,0.0,0.0,0.0,0.0,0.0,0.0,0.0,0.0,0.0,0.0,0.0,0.0,0.0,0.0,0.0,0.0,0.0,0.0,0.0,0.0,0.0,0.0,0.0,0.0,0.0,0.0,0.0,0.0,0.0,0.0,0.0,0.0,0.0,0.0,0.0,0.0,0.0,0.0,0.0,0.0,0.0,0.0,0.0,0.0,0.0,0.0,0.0,0.0,0.0,0.0,0.0,0.0,0.0,0.0,0.0,0.0,0.0,0.0,0.0,0.0,0.0,0.0,0.0,0.0,0.0,0.0,0.0,0.0,0.0,0.0,0.0,0.0,0.0,0.0,0.0,0.0,0.0,0.0,0.0,0.0,0.0,0.0,0.0,0.0,0.0,0.0,0.0,0.0,0.0,0.0,0.0,0.0,0.0,0.0,0.0,0.0,0.0,0.0,0.0,0.0,0.0,0.2618,0.2708,0.2823,0.2901,0.2898,0.2778,0.2548,0.0,0.0,0.0,0.0,0.0,0.0,0.0,0.0,0.0,0.0,0.0,0.0,0.0,0.0,0.0,0.0,0.0,0.0,0.0,0.0,0.0,0.0,0.0,0.0,0.0,0.0,0.0,0.0,0.0,0.0,0.0,0.0,0.0,0.0,0.0,0.0,0.0,0.0,0.0,0.0,0.0,0.0,0.0,0.0,0.0,0.0,0.0,0.0,0.5028,0.0,0.0,0.0,0.0,0.0,0.0,0.0,0.0,0.0,0.0,0.0,0.0,0.0,0.0,0.0,0.0,0.0,0.0,0.0,0.0,0.0,0.0,0.0,0.0,0.0,0.0,0.0,0.0,0.0,0.0,0.0,0.0,0.0,0.0,0.0,0.0,0.0,0.0,0.0,0.0,0.0,0.0,0.0,0.0,0.0,0.0,0.0,0.0,0.0,0.0,0.0,0.0,0.0,0.0,0.0,0.0,0.0,0.0,0.0,0.2632,0.2708,0.2778,0.281,0.281,0.2809,0.2654,0.0,0.0,0.0,0.0,0.0,0.0,0.0,0.0,0.0,0.0,0.0,0.0,0.0,0.0,0.0,0.0,0.0,0.0,0.0,0.0,0.0,0.0,0.0,0.0,0.0,0.0,0.0,0.0,0.0,0.0,0.0,0.0,0.0,0.0,0.0,0.0,0.0,0.0,0.0,0.0,0.0,0.0,0.0,0.0,0.0,0.0,0.0,0.0,0.0,0.0,0.0,0.0,0.0,0.0,0.0,0.0,0.0,0.0,0.0,0.0,0.0,0.0,0.0,0.0,0.0,0.0,0.0,0.0,0.0,0.0,0.0,0.0,0.0,0.0,0.0,0.0,0.0,0.0,0.0,0.0,0.0,0.0,0.0,0.0,0.0,0.0,0.0,0.0,0.0,0.0,0.0,0.0,0.0,0.0,0.0,0.0,0.0,0.0,0.0,0.0,0.0,0.0,0.0,0.0,0.0,0.0,0.0,0.2434,0.258,0.2723,0.2718,0.2688,0.2708,0.2849,0.2809,0.2548,0.0,0.0,0.0,0.0,0.0,0.0,0.0,0.0,0.0,0.0,0.0,0.0,0.0,0.0,0.0,0.0,0.0,0.0,0.0,0.0,0.0,0.0,0.0,0.0,0.0,0.0,0.0,0.0,0.0,0.0,0.0,0.0,0.0,0.0,0.0,0.0,0.0,0.0,0.4337,0.5271,0.0,0.0,0.0,0.0,0.0,0.0,0.0,0.0,0.5456,0.0,0.0,0.0,0.0,0.0,0.0,0.0,0.0,0.0,0.0,0.0,0.0,0.0,0.0,0.0,0.0,0.0,0.0,0.0,0.0,0.0,0.0,0.0,0.0,0.0,0.0,0.0,0.0,0.0,0.0,0.0,0.0,0.0,0.0,0.0,0.0,0.0,0.0,0.0,0.0,0.0,0.0,0.0,0.0,0.0,0.0,0.0,0.0,0.0,0.0,0.0,0.0,0.0,0.0,0.0,0.0,0.2601,0.2545,0.262,0.285,0.2747,0.2688,0.2703,0.2944,0.2939,0.2672,0.0,0.0,0.0,0.0,0.0,0.0,0.0,0.0,0.0,0.0,0.0,0.0,0.0,0.0,0.0,0.0,0.0,0.0,0.0,0.0,0.0,0.0,0.0,0.0,0.0,0.0,0.0,0.0,0.0,0.0,0.0,0.0,0.0,0.0,0.0,0.0,0.0,0.0,0.0,0.5739,0.6305,0.0,0.0,0.0,0.0,0.0,0.0,0.0,0.0,0.5963,0.0,0.0,0.0,0.0,0.0,0.0,0.0,0.0,0.0,0.0,0.0,0.0,0.0,0.0,0.0,0.0,0.0,0.0,0.0,0.0,0.0,0.0,0.0,0.0,0.0,0.0,0.0,0.0,0.0,0.0,0.0,0.0,0.0,0.0,0.0,0.0,0.0,0.0,0.0,0.0,0.0,0.0,0.0,0.0,0.0,0.0,0.0,0.0,0.0,0.0,0.0,0.0,0.0,0.0,0.0,0.2445,0.2608,0.274,0.2788,0.2725,0.2688,0.2691,0.2827,0.2749,0.0,0.0,0.0,0.0,0.0,0.0,0.0,0.0,0.0,0.0,0.0,0.0,0.0,0.0,0.0,0.0,0.0,0.0,0.0,0.0,0.0,0.0,0.0,0.0,0.0,0.0,0.0,0.0,0.0,0.0,0.0,0.0,0.0,0.0,0.0,0.0,0.0,0.0,0.0,0.0,0.6357,0.6768,0.6758,0.0,0.0,0.0,0.0,0.0,0.0,0.6561,0.625,0.0,0.0,0.0,0.0,0.0,0.0,0.0,0.0,0.0,0.0,0.0,0.0,0.0,0.0,0.0,0.0,0.0,0.0,0.0,0.0,0.0,0.0,0.0,0.0,0.0,0.0,0.0,0.0,0.0,0.0,0.0,0.0,0.0,0.0,0.0,0.0,0.0,0.0,0.0,0.0,0.0,0.0,0.0,0.0,0.0,0.0,0.0,0.0,0.0,0.0,0.0,0.0,0.0,0.0,0.0,0.222,0.2641,0.2796,0.2703,0.2688,0.2688,0.2688,0.2722,0.2606,0.0,0.0,0.0,0.0,0.0,0.0,0.0,0.0,0.0,0.0,0.0,0.0,0.0,0.0,0.0,0.0,0.0,0.0,0.0,0.0,0.0,0.0,0.0,0.0,0.0,0.0,0.0,0.0,0.0,0.0,0.0,0.0,0.0,0.0,0.0,0.0,0.0,0.0,0.0,0.0,0.0,0.7376,0.7106,0.7148,0.0,0.0,0.0,0.0,0.7409,0.7103,0.0,0.0,0.0,0.0,0.0,0.0,0.0,0.0,0.0,0.0,0.0,0.0,0.0,0.0,0.0,0.0,0.0,0.0,0.0,0.0,0.0,0.0,0.0,0.0,0.0,0.0,0.0,0.0,0.0,0.0,0.0,0.0,0.0,0.0,0.0,0.0,0.0,0.0,0.0,0.0,0.0,0.0,0.0,0.0,0.0,0.0,0.0,0.0,0.0,0.0,0.0,0.0,0.0,0.0,0.0,0.0,0.2214,0.2544,0.2716,0.2699,0.2688,0.2688,0.2691,0.2812,0.2808,0.0,0.0,0.0,0.0,0.0,0.0,0.0,0.0,0.0,0.0,0.0,0.0,0.0,0.0,0.0,0.0,0.0,0.0,0.0,0.0,0.0,0.0,0.0,0.0,0.0,0.0,0.0,0.0,0.0,0.0,0.0,0.0,0.0,0.0,0.0,0.0,0.0,0.0,0.0,0.0,0.0,0.833,0.71,0.7334,0.7622,0.0,0.0,0.7839,0.8654,0.8436,0.0,0.0,0.0,0.0,0.0,0.0,0.0,0.0,0.0,0.0,0.0,0.0,0.0,0.0,0.0,0.0,0.0,0.0,0.0,0.0,0.0,0.0,0.0,0.0,0.0,0.0,0.0,0.0,0.0,0.0,0.0,0.0,0.0,0.0,0.0,0.0,0.0,0.0,0.0,0.0,0.0,0.0,0.0,0.0,0.0,0.0,0.0,0.0,0.0,0.0,0.0,0.0,0.0,0.0,0.0,0.2401,0.222,0.2688,0.2867,0.2703,0.2688,0.2688,0.2688,0.2687,0.2594,0.0,0.0,0.0,0.0,0.0,0.0,0.0,0.0,0.0,0.0,0.0,0.0,0.0,0.0,0.0,0.0,0.0,0.0,0.0,0.0,0.0,0.0,0.0,0.0,0.0,0.0,0.0,0.0,0.0,0.0,0.0,0.0,0.0,0.0,0.0,0.0,0.0,0.0,0.0,0.0,0.0,0.0,0.7898,0.8193,0.0,0.0,0.0,0.8638,0.9241,0.0,0.0,0.0,0.0,0.0,0.0,0.0,0.0,0.0,0.0,0.0,0.0,0.0,0.0,0.0,0.0,0.0,0.0,0.0,0.0,0.0,0.0,0.0,0.0,0.0,0.0,0.0,0.0,0.0,0.0,0.0,0.0,0.0,0.0,0.0,0.0,0.0,0.0,0.0,0.0,0.0,0.0,0.0,0.0,0.0,0.0,0.0,0.0,0.0,0.0,0.0,0.0,0.0,0.0,0.0,0.0,0.0,0.2207,0.2792,0.2969,0.271,0.2688,0.2688,0.2688,0.2603,0.0,0.0,0.0,0.0,0.0,0.0,0.0,0.0,0.0,0.0,0.0,0.0,0.0,0.0,0.0,0.0,0.0,0.0,0.0,0.0,0.0,0.0,0.0,0.0,0.0,0.0,0.0,0.2642,0.0,0.0,0.0,0.0,0.0,0.0,0.0,0.0,0.0,0.0,0.0,0.0,0.0,0.0,0.8229,0.8361,0.8764,0.9118,0.0,0.0,0.9191,0.9524,0.9332,0.8697,0.0,0.0,0.0,0.0,0.0,0.0,0.0,0.0,0.0,0.0,0.0,0.0,0.0,0.0,0.0,0.0,0.0,0.0,0.0,0.0,0.0,0.0,0.0,0.0,0.0,0.0,0.0,0.0,0.0,0.0,0.0,0.0,0.0,0.0,0.0,0.0,0.0,0.0,0.0,0.0,0.0,0.0,0.0,0.0,0.0,0.0,0.0,0.0,0.0,0.0,0.0,0.0,0.0,0.0,0.2541,0.2234,0.2796,0.2969,0.2701,0.2688,0.2688,0.2688,0.2686,0.2538,0.0,0.0,0.0,0.0,0.0,0.0,0.0,0.0,0.0,0.0,0.0,0.0,0.0,0.0,0.0,0.0,0.0,0.0,0.0,0.0,0.0,0.0,0.0,0.0,0.0,0.0,0.0,0.0,0.0,0.0,0.0,0.0,0.0,0.0,0.0,0.0,0.0,0.0,0.0,0.0,0.0,0.9048,0.7919,0.8636,0.9159,0.0,0.9058,0.9337,0.9483,0.9484,0.906,0.7851,0.0,0.0,0.0,0.0,0.0,0.0,0.0,0.0,0.0,0.0,0.0,0.0,0.0,0.0,0.0,0.0,0.0,0.0,0.0,0.0,0.0,0.0,0.0,0.0,0.0,0.0,0.0,0.0,0.0,0.0,0.0,0.0,0.0,0.0,0.0,0.0,0.0,0.0,0.0,0.0,0.0,0.0,0.0,0.0,0.0,0.0,0.0,0.0,0.0,0.0,0.0,0.0,0.0,0.2537,0.221,0.2787,0.2969,0.2705,0.2688,0.2688,0.2688,0.2779,0.2717,0.0,0.0,0.0,0.0,0.0,0.0,0.0,0.0,0.0,0.0,0.0,0.0,0.0,0.0,0.0,0.0,0.0,0.0,0.0,0.0,0.0,0.0,0.0,0.0,0.0,0.0,0.0,0.0,0.3496,0.3624,0.4199,0.0,0.0,0.0,0.0,0.0,0.0,0.0,0.0,0.0,0.0,0.8496,0.9199,0.9091,0.0,0.0,0.8606,0.91,0.9561,0.9103,0.8504,0.7973,0.7417,0.0,0.0,0.0,0.0,0.0,0.0,0.0,0.0,0.0,0.0,0.0,0.0,0.0,0.0,0.0,0.0,0.0,0.0,0.0,0.0,0.0,0.0,0.0,0.0,0.0,0.0,0.0,0.0,0.0,0.0,0.0,0.0,0.0,0.0,0.0,0.0,0.0,0.0,0.0,0.0,0.0,0.0,0.0,0.0,0.0,0.0,0.0,0.0,0.0,0.0,0.0,0.0,0.2589,0.2359,0.2901,0.305,0.2832,0.2779,0.2756,0.2776,0.2817,0.2781,0.0,0.0,0.0,0.0,0.0,0.0,0.0,0.0,0.0,0.0,0.0,0.0,0.0,0.0,0.0,0.0,0.0,0.0,0.0,0.0,0.0,0.0,0.0,0.0,0.0,0.0,0.0,0.0,0.4089,0.4188,0.4477,0.0,0.0,0.0,0.0,0.0,0.0,0.0,0.0,0.0,0.0,0.8135,0.9588,0.9177,0.8528,0.8056,0.8397,0.8848,0.9216,0.8685,0.8129,0.7864,0.0,0.0,0.0,0.0,0.0,0.0,0.0,0.0,0.0,0.0,0.0,0.0,0.0,0.0,0.0,0.0,0.0,0.0,0.0,0.0,0.0,0.0,0.0,0.0,0.0,0.0,0.0,0.3122,0.0,0.0,0.3137,0.0,0.0,0.0,0.0,0.0,0.0,0.0,0.0,0.0,0.0,0.0,0.0,0.0,0.0,0.0,0.0,0.0,0.0,0.0,0.0,0.0,0.0,0.2684,0.2684,0.3078,0.3226,0.3081,0.2974,0.2894,0.2891,0.2773,0.2644,0.252,0.0,0.0,0.0,0.0,0.0,0.0,0.0,0.0,0.0,0.0,0.0,0.0,0.0,0.0,0.0,0.0,0.0,0.0,0.0,0.0,0.0,0.0,0.0,0.0,0.0,0.0,0.4457,0.4496,0.4493,0.0,0.0,0.0,0.0,0.0,0.0,0.0,0.0,0.0,0.0,0.7742,0.8151,0.8663,0.8708,0.8563,0.8231,0.8464,0.8604,0.8387,0.8297,0.8089,0.0,0.0,0.0,0.0,0.0,0.0,0.0,0.0,0.0,0.0,0.0,0.0,0.0,0.0,0.0,0.0,0.0,0.0,0.0,0.0,0.0,0.0,0.0,0.0,0.0,0.0,0.0,0.2644,0.31,0.0,0.0,0.0,0.0,0.0,0.0,0.0,0.0,0.0,0.0,0.0,0.4261,0.4182,0.0,0.0,0.0,0.0,0.0,0.0,0.0,0.0,0.0,0.0,0.0,0.0,0.2336,0.2273,0.2946,0.3226,0.3095,0.2985,0.2901,0.2901,0.2868,0.2863,0.291,0.0,0.0,0.0,0.0,0.0,0.0,0.0,0.0,0.0,0.0,0.0,0.0,0.0,0.0,0.0,0.0,0.0,0.0,0.0,0.0,0.0,0.0,0.0,0.0,0.0,0.4748,0.0,0.0,0.0,0.0,0.0,0.0,0.0,0.0,0.0,0.0,0.0,0.6598,0.684,0.7481,0.7938,0.7974,0.8089,0.8092,0.0,0.0,0.0,0.0,0.0,0.0,0.0,0.0,0.0,0.0,0.0,0.0,0.0,0.0,0.9728,0.8277,0.7262,0.664,0.664,0.0,0.0,0.0,0.0,0.0,0.0,0.0,0.0,0.0,0.0,0.0,0.0,0.0,0.0,0.2362,0.0,0.3033,0.0,0.0,0.0,0.0,0.0,0.0,0.0,0.0,0.3284,0.3678,0.3681,0.3604,0.3505,0.0,0.3087,0.2684,0.0,0.0,0.0,0.0,0.0,0.0,0.0,0.0,0.1876,0.1885,0.2659,0.3047,0.2966,0.3037,0.3045,0.2972,0.2883,0.2851,0.2898,0.3369,0.3534,0.0,0.0,0.0,0.0,0.0,0.0,0.0,0.0,0.0,0.0,0.0,0.0,0.0,0.0,0.0,0.0,0.0,0.0,0.0,0.0,0.0,0.0,0.0,0.5069,0.0,0.0,0.0,0.0,0.0,0.0,0.0,0.0,0.0,0.5253,0.6016,0.667,0.6893,0.7398,0.7789,0.7862,0.0,0.0,0.0,0.0,0.0,0.0,0.0,0.7668,0.821,0.7908,0.7737,0.8103,0.8507,0.8954,0.9474,0.0,0.0,0.883,0.7901,0.7277,0.7278,0.7547,0.7745,0.7577,0.7872,0.8189,0.0,0.0,0.0,0.0,0.0,0.0,0.0,0.0,0.1469,0.1946,0.0,0.2814,0.0,0.0,0.0,0.0,0.0,0.1712,0.0,0.0,0.2918,0.3317,0.3045,0.2797,0.2578,0.237,0.1997,0.189,0.2026,0.2581,0.0,0.0,0.0,0.0,0.0,0.0,0.1386,0.1587,0.2299,0.2694,0.2708,0.3122,0.3269,0.3087,0.2856,0.2654,0.2549,0.3147,0.3452,0.3326,0.3448,0.0,0.0,0.0,0.0,0.0,0.0,0.0,0.0,0.0,0.0,0.0,0.0,0.0,0.0,0.0,0.0,0.0,0.0,0.0,0.0,0.5074,0.0,0.0,0.0,0.0,0.0,0.0,0.0,0.0,0.0,0.0,0.6061,0.6421,0.6844,0.7432,0.0,0.0,0.0,0.0,0.812,0.8691,0.857,0.8409,0.8383,0.8376,0.8238,0.7985,0.0,0.0,0.7989,0.947,1.0164,0.8711,0.8702,0.9204,1.0414,0.9826,0.9298,0.929,0.8977,0.9005,0.9322,0.911,0.935,-0.1006,0.0,0.0,0.0,0.0,-0.1324,-0.0773,0.0125,0.0286,0.0853,0.1629,0.1756,0.0,0.0,0.0,0.0,0.0,0.0,0.0724,0.1182,0.1841,0.2143,0.218,0.2099,0.2016,0.1969,0.1868,0.1822,0.1851,0.1933,0.1987,0.1989,0.0,0.0,0.0,0.0,0.1037,0.1131,0.1737,0.2273,0.2683,0.274,0.2813,0.295,0.289,0.2771,0.2646,0.3095,0.351,0.3789,0.3929,0.0,0.0,0.0,0.0,0.0,0.0,0.0,0.0,0.0,0.0,0.0,0.0,0.0,0.0,0.0,0.0,0.0,0.0,0.0,0.482,0.4636,0.4672,0.0,0.0,0.0,0.0,0.0,0.0,0.0,0.0,0.0,0.6084,0.6956,0.7598,0.0,0.0,0.8484,0.8657,0.8611,0.8544,0.8516,0.8604,0.0,0.8429,0.7961,0.7828,0.8441,0.8624,0.8655,0.8568,0.9011,0.9218,0.8744,0.8754,0.8943,0.9228,0.8838,0.8405,0.8365,0.8452,0.8572,0.8677,0.8812,0.899,-0.3175,-0.1775,-0.1958,-0.2172,-0.2379,-0.2354,-0.187,-0.1086,-0.0763,-0.0262,0.0357,0.0555,0.0443,0.009,-0.0197,0.0,0.0,0.0,-0.0759,-0.0316,-0.0048,0.0282,0.0628,0.0641,0.0804,0.1081,0.1081,0.1216,0.1458,0.1413,0.1419,0.1434,0.0,0.0,0.0536,0.0529,0.0546,0.0559,0.1148,0.163,0.1973,0.2325,0.2651,0.2964,0.2928,0.2827,0.2706,0.3093,0.3433,0.3707,0.4037,0.4185,0.0,0.0,0.0,0.0,0.0,0.0,0.0,0.0,0.0,0.0,0.0,0.3091,0.2681,0.0,0.0,0.0,0.4387,0.4967,0.5082,0.5059,0.0,0.0,0.0,0.0,0.0,0.0,0.0,0.5767,0.537,0.5268,0.5919,0.6713,0.7218,0.7146,0.7461,0.783,0.8197,0.0,0.7821,0.7965,0.7972,0.7862,0.7712,0.7325,0.7246,0.7833,0.7929,0.8182,0.8712,0.8791,0.8586,0.8089,0.7929,0.7929,0.7923,0.7844,0.7934,0.8202,0.8411,0.855,0.8557,0.8704,0.8791,-0.5476,-0.4061,-0.3341,-0.2967,-0.2863,-0.2749,-0.267,-0.254,-0.181,-0.1395,-0.1185,-0.0752,-0.0803,-0.1223,-0.1961,0.0,-0.2197,-0.2263,-0.2224,-0.2195,-0.2195,-0.1841,-0.1207,-0.117,-0.0826,-0.0165,-0.0165,0.0139,0.0709,0.0846,0.0907,0.0824,0.0702,0.0642,0.0624,0.0202,0.0,0.0,0.054,0.0865,0.0906,0.1914,0.2634,0.3008,0.2899,0.2805,0.2723,0.3056,0.329,0.334,0.385,0.4004,0.3751,0.0,0.0,0.0,0.0,0.0,0.0,0.0,0.0,0.0,0.0,0.0,0.0,0.0,0.0,0.0,0.4778,0.0,0.5593,0.5822,0.0,0.0,0.0,0.5153,0.5297,0.5041,0.4981,0.5288,0.0,0.0,0.5643,0.5864,0.5994,0.5866,0.5936,0.6357,0.7268,0.6786,0.6491,0.7178,0.6907,0.6615,0.6716,0.6663,0.6627,0.6597,0.6561,0.7128,0.8182,0.852,0.8003,0.6853,0.6507,0.6507,0.6575,0.7186,0.7817,0.8402,0.8679,0.8784,0.8778,0.8784,0.8791,-0.7339,-0.693,-0.6089,-0.5215,-0.4374,-0.434,-0.4012,-0.349,-0.3284,-0.2823,-0.2174,-0.2046,-0.1981,-0.1984,-0.2614,-0.2643,-0.221,-0.2676,-0.2645,-0.2206,-0.2192,-0.2097,-0.1934,-0.1948,-0.1866,-0.1686,-0.1683,-0.1309,-0.0641,-0.0579,-0.0316,0.0187,0.0194,0.0165,0.0162,0.0058,0.0,0.0,0.0129,0.044,0.0895,0.1603,0.2099,0.2397,0.2382,0.2488,0.2693,0.2795,0.3106,0.3638,0.3575,0.3653,0.3925,0.3828,0.0,0.0,0.0,0.0,0.0,0.0,0.0,0.0,0.0,0.3949,0.3275,0.0,0.4454,0.0,0.492,0.5175,0.4888,0.4729,0.0,0.0,0.4315,0.4441,0.5202,0.4833,0.4796,0.5517,0.4997,0.4696,0.5038,0.4758,0.4508,0.4499,0.5534,0.6573,0.7258,0.6902,0.6424,0.6307,0.6434,0.6588,0.6548,0.6588,0.6367,0.5846,0.6199,0.6615,0.6587,0.6894,0.6867,0.6172,0.5464,0.5469,0.6367,0.6764,0.6899,0.7168,0.8009,0.8791,0.8791,0.8785,0.8785,-0.852,-0.8115,-0.754,-0.6893,-0.6229,-0.5363,-0.4764,-0.4414,-0.473,-0.4606,-0.4134,-0.4151,-0.386,-0.3429,-0.3756,-0.371,-0.3429,-0.3747,-0.3712,-0.3406,-0.3344,-0.3149,-0.2821,-0.2737,-0.2524,-0.2202,-0.2201,-0.1993,-0.1613,-0.1599,-0.1374,-0.0991,-0.0987,-0.0977,-0.0935,-0.0336,0.0,0.0,0.0,0.0292,0.0886,0.123,0.1558,0.1911,0.1935,0.2105,0.2451,0.2475,0.2764,0.3375,0.3422,0.3483,0.3594,0.369,0.3629,0.0,0.0,0.0,0.0,0.0,0.0,0.0,0.0,0.0,0.0,0.0,0.4149,0.4218,0.4586,0.4786,0.474,0.471,0.4699,0.4693,0.4443,0.4566,0.5231,0.4668,0.4451,0.5052,0.4429,0.4032,0.427,0.407,0.3932,0.3996,0.4805,0.5593,0.5981,0.5855,0.5578,0.5332,0.5496,0.566,0.566,0.566,0.5523,0.5191,0.54,0.5582,0.5332,0.5492,0.5568,0.5304,0.4856,0.4725,0.5496,0.5932,0.6104,0.6253,0.7028,0.7764,0.7924,0.7969,0.806,-0.9473,-0.8766,-0.8378,-0.8219,-0.809,-0.6241,-0.5474,-0.5511,-0.6152,-0.6417,-0.6386,-0.6263,-0.5777,-0.5081,-0.4948,-0.4918,-0.4918,-0.4918,-0.4918,-0.4896,-0.4767,-0.4382,-0.3756,-0.359,-0.3156,-0.2525,-0.2525,-0.2477,-0.2341,-0.2341,-0.2286,-0.22,-0.2192,-0.2192,-0.214,-0.0923,-0.0242,-0.0151,-0.0147,0.0153,0.078,0.0794,0.1012,0.1464,0.1492,0.1663,0.2075,0.2069,0.2271,0.2679,0.3081,0.3202,0.3011,0.3386,0.3584,0.0,0.347,0.0,0.0,0.0,0.0,0.0,0.0,0.0,0.0,0.4094,0.3963,0.4046,0.4237,0.4473,0.4773,0.5015,0.5134,0.5032,0.4836,0.4807,0.502,0.4401,0.4037,0.4287,0.3906,0.3631,0.3675,0.3744,0.3895,0.4005,0.4072,0.4311,0.4488,0.4584,0.4598,0.4491,0.4491,0.4653,0.4625,0.4556,0.457,0.4515,0.457,0.4491,0.4543,0.4543,0.4519,0.4515,0.4515,0.4515,0.4505,0.5003,0.5355,0.5396,0.59,0.6461,0.6831,0.7005,0.7275,-1.0979,-1.0725,-0.9785,-0.9374,-0.9274,-0.7992,-0.7445,-0.7461,-0.7615,-0.7572,-0.7358,-0.6557,-0.6104,-0.5894,-0.5199,-0.4918,-0.4918,-0.4918,-0.4918,-0.4918,-0.4872,-0.4787,-0.4644,-0.46,-0.4467,-0.424,-0.4223,-0.3863,-0.3192,-0.3121,-0.2801,-0.2216,-0.2203,-0.2203,-0.2188,0.0,0.0,0.0,-0.0903,-0.0552,0.0142,0.0158,0.0394,0.0843,0.0872,0.0,0.1455,0.1477,0.1519,0.1594,0.1686,0.0,0.0,0.0,0.0,0.0,0.0,0.0,0.0,0.0,0.0,0.0,0.3559,0.3522,0.4035,0.4449,0.4597,0.437,0.4784,0.4873,0.4398,0.4373,0.4213,0.374,0.3645,0.3689,0.388,0.3778,0.3701,0.3737,0.3745,0.3763,0.378,0.3976,0.4113,0.4075,0.3761,0.3789,0.437,0.4419,0.4474,0.4491,0.4491,0.4491,0.4491,0.4491,0.4491,0.4491,0.4491,0.4491,0.4491,0.4491,0.4491,0.4491,0.4491,0.4491,0.4491,0.4612,0.4736,0.4691,0.4818,0.5248,0.6393,0.6775,0.7021,-1.1643,0.0,-1.084,-1.0556,0.0,-0.9925,-0.9595,-0.9438,-0.8873,-0.8574,-0.8454,-0.7954,-0.7499,-0.7063,-0.6634,-0.6435,-0.6415,-0.5974,-0.5785,-0.5754,-0.5256,-0.5007,-0.5007,-0.4936,-0.485,-0.4806,-0.4788,-0.4549,-0.4065,-0.4002,-0.377,-0.3342,-0.3345,-0.3331,-0.3345,-0.3331,-0.2774,-0.1654,-0.1575,-0.1373,-0.1001,-0.0631,-0.0339,-0.009,0.0,0.0,0.0,0.0,0.0,0.0,0.0,0.0,0.0,0.0,0.0,0.2519,0.2555,0.2533,0.246,0.2518,0.2666,0.2895,0.2692,0.2885,0.3586,0.3938,0.4076,0.4029,0.4205,0.4202,0.3929,0.3908,0.3784,0.3495,0.3452,0.3486,0.3587,0.36,0.3631,0.3699,0.3748,0.3827,0.3897,0.371,0.3669,0.3617,0.3138,0.2899,0.3303,0.3691,0.4015,0.4419,0.4491,0.4491,0.4491,0.4491,0.4491,0.4491,0.4491,0.4491,0.4491,0.4491,0.4491,0.4491,0.4491,0.4491,0.4491,0.4491,0.4491,0.4491,0.4491,0.468,0.5454,0.5698,0.5904,-1.1969,-1.1935,-1.1623,-1.1493,-1.1486,-1.1415,-1.1272,-1.0992,0.0,0.0,0.0,-0.9386,-0.8909,-0.8242,-0.8075,-0.7994,-0.7945,-0.7258,-0.6932,-0.6874,-0.6025,-0.5532,-0.5382,-0.5281,-0.5102,-0.4943,-0.4924,-0.4862,-0.4735,-0.4719,-0.464,-0.4539,-0.4515,-0.4491,-0.4491,-0.4491,-0.3875,-0.2659,-0.2365,-0.2164,-0.2025,-0.1409,-0.1106,-0.1086,-0.0478,0.0079,0.0549,0.0672,0.0915,0.1299,0.1307,0.136,0.1476,0.1485,0.1583,0.1779,0.1772,0.1709,0.16,0.1711,0.1725,0.1637,0.1728,0.2149,0.2941,0.3024,0.3095,0.3278,0.3138,0.3104,0.3261,0.3288,0.3289,0.3285,0.3279,0.3271,0.3268,0.3268,0.3262,0.3416,0.3405,0.3526,0.3564,0.3224,0.2946,0.2862,0.2401,0.1995,0.2119,0.2813,0.358,0.4084,0.4322,0.4491,0.4491,0.4491,0.4491,0.4491,0.4491,0.4491,0.4491,0.4491,0.4491,0.4491,0.4491,0.4491,0.4491,0.4491,0.4491,0.4491,0.4491,0.4491,0.4501,0.4625,0.4871,-1.2245,-1.2218,-1.1948,-1.1828,-1.1826,-1.1536,-1.1392,-1.1299,-1.0682,-1.0403,-1.038,-0.9626,-0.9242,-0.9075,-0.8339,-0.7994,-0.7994,-0.7881,-0.7832,-0.7811,-0.7652,-0.72,-0.6485,-0.6461,-0.5957,-0.5123,-0.5069,-0.5011,-0.4872,-0.4758,-0.4691,-0.4661,-0.4556,-0.4491,-0.4491,-0.4491,-0.4395,-0.4166,-0.3487,-0.2812,-0.218,-0.1965,-0.1855,-0.1821,-0.1152,-0.0731,-0.065,-0.0146,0.0157,0.0223,0.0223,0.0456,0.0954,0.0987,0.1234,0.1725,0.1685,0.1625,0.1587,0.1606,0.1675,0.1754,0.179,0.1832,0.1825,0.194,0.2017,0.2053,0.2076,0.2014,0.2046,0.2106,0.2132,0.2097,0.2089,0.2066,0.212,0.2131,0.2149,0.2192,0.2195,0.2312,0.2398,0.2343,0.232,0.2215,0.1695,0.1256,0.1438,0.2438,0.3245,0.3539,0.407,0.4432,0.4405,0.4491,0.4491,0.4491,0.4491,0.4491,0.4491,0.4491,0.4491,0.4491,0.4491,0.4491,0.4491,0.4491,0.4491,0.4491,0.4491,0.4491,0.4494,0.4603,0.4702,-1.2305,-1.2285,-1.2176,-1.2122,-1.2102,-1.179,-1.1663,-1.1623,-1.1216,-1.0952,-1.0785,-1.0383,-1.0138,-0.9983,-0.9582,-0.94,-0.939,-0.8925,-0.87,-0.8683,-0.8221,-0.78,-0.7437,-0.7421,-0.6904,-0.6004,-0.5972,-0.5632,-0.5052,-0.4947,-0.4847,-0.4708,-0.4566,-0.4491,-0.4491,-0.4491,-0.4491,-0.4491,-0.4029,-0.3623,-0.33,-0.2836,-0.2594,-0.2591,-0.1941,-0.1553,-0.1493,-0.0914,-0.0574,-0.0505,-0.0168,0.0124,0.0393,0.0415,0.0538,0.0794,0.0759,0.0719,0.0729,0.0718,0.0765,0.0819,0.0822,0.08,0.0744,0.1399,0.1799,0.1803,0.1801,0.1802,0.1797,0.18,0.1801,0.1807,0.1799,0.1799,0.1799,0.1799,0.1825,0.1897,0.1958,0.202,0.2111,0.1824,0.1605,0.1549,0.0978,0.0,0.0,0.1411,0.2258,0.2674,0.3384,0.3832,0.3887,0.4239,0.4446,0.4491,0.4491,0.4491,0.4491,0.4491,0.4491,0.4491,0.4491,0.4491,0.4491,0.4491,0.4491,0.4491,0.4491,0.4491,0.4511,0.4672,0.4772,-1.2305,-1.2305,-1.2305,-1.2305,-1.2303,-1.2082,-1.1982,-1.1955,-1.1717,-1.1446,-1.1219,-1.1122,-1.0945,-1.07,-1.0671,-1.0669,-1.0504,-0.9897,-0.9594,-0.9514,-0.8909,-0.8501,-0.8285,-0.8291,-0.773,-0.6817,-0.6719,-0.616,-0.5269,-0.5117,-0.4968,-0.4755,-0.4637,-0.4562,-0.4542,-0.4542,-0.4525,-0.4484,-0.4351,-0.4271,-0.4251,-0.3656,-0.336,-0.3307,-0.2727,-0.2358,-0.2229,-0.1661,-0.1295,-0.1176,-0.0588,-0.0253,-0.0251,-0.008,0.0,0.0,0.0,0.0,0.0,0.0,0.0,0.0,0.0,0.0,0.0,0.084,0.1382,0.139,0.1345,0.1359,0.1335,0.135,0.1405,0.1402,0.1392,0.1334,0.1381,0.138,0.1431,0.1526,0.1545,0.1549,0.1579,0.1215,0.0881,0.0769,0.0336,0.0,0.0,0.0504,0.109,0.1675,0.2494,0.3176,0.3287,0.379,0.4222,0.4405,0.4491,0.4491,0.4491,0.4491,0.4491,0.4491,0.4491,0.4491,0.4491,0.4491,0.4508,0.4539,0.4563,0.4562,0.4664,0.4772,0.4892,-1.2305,-1.2305,-1.2305,-1.2305,-1.2298,-1.2265,-1.2251,-1.2251,-1.2206,-1.2058,-1.1775,-1.151,-1.1236,-1.0992,-1.0965,-1.0838,-1.0626,-1.0514,-1.0457,-1.0457,-1.0396,-0.9945,-0.922,-0.9188,-0.8323,-0.6932,-0.6785,-0.6371,-0.5466,-0.5209,-0.5038,-0.4884,-0.4865,-0.4799,-0.4716,-0.4681,-0.4617,-0.4494,-0.4477,-0.447,-0.4464,-0.4221,-0.4108,-0.4095,-0.339,-0.3013,-0.2988,-0.2415,-0.2087,-0.2031,-0.1368,-0.0982,-0.093,-0.0367,0.0,0.0,0.0,0.0,0.0,0.0,0.0,0.0,0.0,0.0,0.0,0.0,0.0,0.0,0.0,0.0,0.0,0.0,0.0,0.0,0.0,0.0167,0.0,0.018,0.0181,0.0181,0.0,0.0,0.0,0.0,0.0,0.0,0.0,0.0,0.0,0.0,0.0,0.0,0.1368,0.2454,0.2996,0.3328,0.3691,0.4253,0.4474,0.4446,0.4446,0.4491,0.4491,0.4491,0.4491,0.4491,0.4491,0.4494,0.4539,0.4627,0.4685,0.4759,0.4962,0.4948,0.4919,-1.2305,-1.2305,-1.2305,-1.2305,-1.2305,-1.2305,-1.2305,-1.2305,-1.2305,-1.225,-1.2124,-1.1997,-1.1673,-1.1256,-1.1249,-1.1159,-1.1062,-1.0895,-1.0831,-1.0818,-1.0673,-1.0403,-1.0104,-1.0079,-0.9406,-0.8318,-0.8237,-0.7519,-0.6253,-0.546,-0.5082,-0.5024,-0.4947,-0.4869,-0.483,-0.4811,-0.4748,-0.4617,-0.461,-0.4583,-0.4508,-0.4423,-0.4375,-0.4351,-0.4087,-0.3869,-0.371,-0.3164,-0.2814,-0.2708,-0.2114,-0.1552,-0.1122,-0.0825,-0.0463,0.0,0.0,0.0,0.0,0.0,0.0,0.0,0.0,0.0,0.0,0.0,0.0,0.0,0.0,0.0,0.0,0.0,0.0,0.0,0.0,0.0,0.0,0.0,0.0,0.0,0.0,0.0,0.0,0.0,0.0,0.0,0.0,0.0,0.0,0.0,0.0,0.0,0.0546,0.1132,0.1884,0.2397,0.294,0.3552,0.3832,0.3901,0.4419,0.4491,0.4491,0.4491,0.4491,0.4491,0.4491,0.4498,0.4535,0.4668,0.4796,0.4894,0.5059,0.4985,0.4977,-1.2305,-1.2305,-1.2305,-1.2305,-1.2305,-1.2305,-1.2305,-1.2305,-1.2305,-1.2305,-1.2305,-1.2305,-1.2059,-1.1673,-1.1566,-1.1493,-1.1386,-1.1209,-1.1109,-1.1082,-1.0847,-1.0697,-1.0707,-1.062,-1.0136,-0.9434,-0.9268,-0.8388,-0.6784,-0.5972,-0.5426,-0.5208,-0.5072,-0.5001,-0.4951,-0.4945,-0.4889,-0.4765,-0.4752,-0.4695,-0.4562,-0.4552,-0.4549,-0.4494,-0.4491,-0.4426,-0.4287,-0.3868,-0.3585,-0.3473,-0.2863,-0.2295,-0.1751,-0.1521,-0.1064,-0.0402,-0.0299,-0.0208,0.0,0.0,0.0,0.0,0.0,0.0,0.0,0.0,0.0,0.0,0.0,0.0,0.0,0.0,0.0,0.0,0.0,0.0,0.0,0.0,0.0,0.0,0.0,0.0,0.0,0.0,0.0,0.0,0.0,0.0,0.0,0.0,0.0,0.0,0.0,0.035,0.0979,0.1535,0.2188,0.2813,0.319,0.3721,0.4322,0.446,0.4491,0.4491,0.4491,0.4491,0.4491,0.4498,0.4583,0.4742,0.4897,0.505,0.5192,0.5098,0.5158,-1.2305,-1.2305,-1.2305,-1.2305,-1.2305,-1.2305,-1.2305,-1.2305,-1.2305,-1.2305,-1.2305,-1.2305,-1.2285,-1.2211,-1.1975,-1.1703,-1.1446,-1.1406,-1.1386,-1.1359,-1.1109,-1.0975,-1.0972,-1.0711,-1.0158,-0.9466,-0.9434,-0.8533,-0.6878,-0.6662,-0.6207,-0.5457,-0.5433,-0.5306,-0.511,-0.5105,-0.5019,-0.4906,-0.4908,-0.4821,-0.4704,-0.4695,-0.4641,-0.4546,-0.4491,-0.4484,-0.4457,-0.4463,-0.4412,-0.4422,-0.3731,-0.3276,-0.3126,-0.2491,-0.177,-0.1164,-0.1041,-0.0722,0.0,0.0,0.0,0.0,0.0,0.0,0.0,0.0,0.0,0.0,0.0,0.0,0.0,0.0,0.0,0.0,0.0,0.0,0.0,0.0,0.0,0.0,0.0,0.0,0.0,0.0,0.0,0.0,0.0,0.0,0.0,0.0,0.0,0.0,0.0,0.0266,0.0909,0.1076,0.1438,0.2051,0.2718,0.35,0.4084,0.4491,0.4491,0.4491,0.4491,0.4491,0.4491,0.4549,0.4681,0.4868,0.513,0.529,0.53,0.5365,0.5378,-1.2305,-1.2305,-1.2305,-1.2305,-1.2305,-1.2305,-1.2305,-1.2305,-1.2305,-1.2305,-1.2305,-1.2305,-1.2305,-1.2291,-1.2198,-1.2091,-1.1977,-1.1815,-1.1728,-1.1677,-1.1403,-1.1176,-1.0989,-1.0882,-1.0632,-1.0209,-1.0126,-0.9524,-0.842,-0.7811,-0.7079,-0.6367,-0.6252,-0.5942,-0.5398,-0.5277,-0.5203,-0.5055,-0.5038,-0.4951,-0.4835,-0.484,-0.4809,-0.4748,-0.4579,-0.4491,-0.4491,-0.4491,-0.4491,-0.4491,-0.4225,-0.388,-0.3362,-0.2617,-0.2093,-0.18,-0.1368,-0.0979,-0.0685,-0.0252,0.0,0.0,0.0,0.0,0.0,0.0,0.0,0.0,0.0,0.0,0.0,0.0,0.0,0.0,0.0,0.0,0.0,0.0,0.0,0.0,0.0,0.0,0.0,0.0,0.0,0.0,0.0,0.0,0.0,0.0,0.0,0.0,0.0,0.0098,0.028,0.0378,0.0629,0.1215,0.187,0.2565,0.3206,0.4222,0.4446,0.4501,0.4498,0.4593,0.4626,0.4789,0.4894,0.4979,0.526,0.5368,0.5392,0.5395,0.5395,-1.2445,-1.245,-1.2338,-1.2305,-1.2305,-1.2305,-1.2305,-1.2305,-1.2305,-1.2305,-1.2305,-1.2305,-1.2305,-1.2305,-1.2305,-1.2305,-1.2285,-1.2091,-1.2029,-1.2013,-1.1703,-1.148,-1.1306,-1.1182,-1.1045,-1.0848,-1.0767,-1.0255,-0.9344,-0.871,-0.7962,-0.7181,-0.6866,-0.6433,-0.5881,-0.5574,-0.5337,-0.522,-0.5187,-0.5119,-0.499,-0.4958,-0.4935,-0.4882,-0.4714,-0.4614,-0.4566,-0.4532,-0.4491,-0.4491,-0.4491,-0.4267,-0.3749,-0.3248,-0.2815,-0.2522,-0.1856,-0.134,-0.1048,-0.042,0.0,0.0,0.0,0.0,0.0,0.0,0.0,0.0,0.0,0.0,0.0,0.0,0.0,0.0,0.0,0.0,0.0,0.0,0.0,0.0,0.0,0.0,0.0,0.0,0.0,0.0,0.0,0.0,0.0,0.0,0.0,0.0,0.0,0.0,0.0,0.0,0.0,0.0,0.0,0.1812,0.2495,0.3583,0.4284,0.4408,0.4589,0.4711,0.4845,0.5014,0.5092,0.5126,0.5256,0.5385,0.5395,0.5395,0.5395,-1.2803,-1.275,-1.2457,-1.2358,-1.2351,-1.2363,-1.2325,-1.2305,-1.2305,-1.2305,-1.2305,-1.2305,-1.2305,-1.2305,-1.2305,-1.2305,-1.228,-1.2271,-1.2258,-1.2231,-1.2009,-1.1886,-1.1812,-1.1536,-1.1379,-1.1312,-1.1116,-1.0447,-0.9528,-0.9391,-0.891,-0.8042,-0.73,-0.6887,-0.6658,-0.5897,-0.5475,-0.5391,-0.5371,-0.529,-0.512,-0.5119,-0.5046,-0.495,-0.4903,-0.4821,-0.4722,-0.4597,-0.4525,-0.4508,-0.4505,-0.4494,-0.4422,-0.4322,-0.4084,-0.3345,-0.2621,-0.1884,-0.1188,-0.0504,0.0,0.0,0.0,0.0,0.0,0.0,0.0,0.0,0.0,0.0,0.0,0.0,0.0,0.0,0.0,0.0,0.0,0.0,0.0,0.0,0.0,0.0,0.0,0.0,0.0,0.0,0.0,0.0,0.0,0.0,0.0,0.0,0.0,0.0,0.0,0.0,0.0,0.0,0.0,0.1225,0.1766,0.2657,0.3327,0.3621,0.472,0.4887,0.4926,0.5078,0.5146,0.5216,0.5321,0.5395,0.5395,0.5395,0.5395,-1.3066,-1.3053,-1.2973,-1.2818,-1.2663,-1.2624,-1.2536,-1.2305,-1.2305,-1.2305,-1.2305,-1.2305,-1.2305,-1.2305,-1.2305,-1.2305,-1.2305,-1.2305,-1.2305,-1.2285,-1.2204,-1.2094,-1.1902,-1.1788,-1.1623,-1.1426,-1.1319,-1.1108,-1.0755,-1.0531,-1.0032,-0.9217,-0.8712,-0.7837,-0.6822,-0.6412,-0.6058,-0.5458,-0.5395,-0.5368,-0.5324,-0.5304,-0.528,-0.5236,-0.5105,-0.5009,-0.4955,-0.4853,-0.4731,-0.464,-0.4634,-0.46,-0.4515,-0.4491,-0.4377,-0.4111,-0.3442,-0.269,-0.1912,-0.1161,-0.0505,0.0,0.0,0.0,0.0,0.0,0.0,0.0,0.0,0.0,0.0,0.0,0.0,0.0,0.0,0.0,0.0,0.0,0.0,0.0,0.0,0.0,0.0,0.0,0.0,0.0,0.0,0.0,0.0,0.0,0.0,0.0,0.0,0.0,0.0,0.0,0.0,0.0,0.0,0.0,0.1174,0.1499,0.217,0.3331,0.4408,0.5032,0.5073,0.5126,0.5223,0.529,0.5371,0.5395,0.5395,0.5395,0.5395,-1.3347,-1.332,-1.3233,-1.3119,-1.2945,-1.2958,-1.2765,-1.251,-1.2472,-1.2423,-1.2325,-1.2305,-1.2305,-1.2305,-1.2305,-1.2305,-1.2305,-1.2305,-1.2305,-1.2305,-1.2305,-1.2216,-1.2056,-1.2049,-1.1877,-1.1637,-1.159,-1.153,-1.1399,-1.1216,-1.0848,-1.0344,-0.9848,-0.9052,-0.7813,-0.7154,-0.651,-0.5925,-0.5554,-0.5395,-0.5395,-0.5395,-0.5395,-0.5378,-0.5283,-0.522,-0.5206,-0.514,-0.4989,-0.4819,-0.4775,-0.4739,-0.4651,-0.4617,-0.4576,-0.4432,-0.3863,-0.3098,-0.2274,-0.1529,-0.0827,0.0,0.0,0.0,0.0,0.0,0.0,0.0,0.0,0.0,0.0,0.0,0.0,0.0,0.0,0.0,0.0,0.0,0.0,0.0,0.0,0.0,0.0,0.0,0.0,0.0,0.0,0.0,0.0,0.0,0.0,0.0,0.0,0.0,0.0,0.0,0.0,0.0,0.0,0.0,0.0614,0.0608,0.099,0.3024,0.4417,0.5107,0.526,0.5287,0.5365,0.5392,0.5395,0.5395,0.5395,0.5395,0.5395,-1.3626,-1.3586,-1.336,-1.3253,-1.324,-1.3213,-1.306,-1.2837,-1.2811,-1.2638,-1.2398,-1.239,-1.2331,-1.2311,-1.2305,-1.2305,-1.2305,-1.2305,-1.2305,-1.2305,-1.2305,-1.2278,-1.2258,-1.2251,-1.2129,-1.1942,-1.1908,-1.1764,-1.1559,-1.1472,-1.1415,-1.1265,-1.0582,-0.9994,-0.9304,-0.804,-0.7164,-0.6606,-0.5929,-0.5557,-0.5425,-0.5395,-0.5395,-0.5395,-0.5385,-0.5375,-0.5368,-0.5351,-0.5219,-0.4957,-0.4896,-0.4872,-0.4862,-0.4764,-0.4704,-0.4701,-0.4057,-0.3336,-0.2455,-0.1845,-0.1098,0.0,0.0,0.0,0.0,0.0,0.0,0.0,0.0,0.0,0.0,0.0,0.0,0.0,0.0,0.0,0.0,0.0,0.0,0.0,0.0,0.0,0.0,0.0,0.0,0.0,0.0,0.0,0.0,0.0,0.0,0.0,0.0,0.0,0.0,0.0,0.0,0.0,0.0,0.0,0.0,0.0,0.0,0.2613,0.4391,0.5048,0.5388,0.5392,0.5395,0.5395,0.5395,0.5395,0.5395,0.5395,0.5395,-1.3975,-1.394,-1.3888,-1.3714,-1.3507,-1.3493,-1.3347,-1.3106,-1.3086,-1.2932,-1.2717,-1.2663,-1.2537,-1.2325,-1.2318,-1.2305,-1.2318,-1.2305,-1.2305,-1.2305,-1.2305,-1.2305,-1.2305,-1.2305,-1.2265,-1.2184,-1.2164,-1.2163,-1.2058,-1.1844,-1.1757,-1.1761,-1.129,-1.0682,-0.9937,-0.9316,-0.828,-0.7139,-0.6622,-0.5996,-0.5458,-0.5395,-0.5395,-0.5395,-0.5395,-0.5395,-0.5395,-0.5395,-0.5297,-0.5059,-0.4938,-0.4918,-0.4931,-0.4884,-0.4857,-0.4812,-0.4661,-0.4204,-0.3389,-0.2589,-0.1801,-0.1016,-0.0326,0.0,0.0,0.0,0.0,0.0,0.0,0.0,0.0,0.0,0.0,0.0,0.0,0.0,0.0,0.0,0.0,0.0,0.0,0.0,0.0,0.0,0.0,0.0,0.0,0.0,0.0,0.0,0.0,0.0,0.0,0.0,0.0,0.0,0.0,0.0,0.0,0.0,0.0,0.0,0.0,0.2504,0.435,0.5335,0.5392,0.5375,0.5395,0.5395,0.5395,0.5395,0.5395,0.5395,0.5395,-1.4109,-1.4109,-1.4109,-1.3988,-1.382,-1.3814,-1.3647,-1.3413,-1.3367,-1.3227,-1.3012,-1.2985,-1.2865,-1.2679,-1.2552,-1.251,-1.249,-1.2351,-1.2305,-1.2305,-1.2305,-1.2305,-1.2305,-1.2305,-1.2305,-1.2305,-1.2305,-1.2298,-1.2265,-1.2124,-1.2076,-1.2042,-1.1877,-1.1455,-1.0899,-1.0269,-0.9274,-0.7853,-0.7137,-0.6406,-0.5498,-0.5395,-0.5395,-0.5395,-0.5395,-0.5395,-0.5395,-0.5395,-0.5347,-0.523,-0.5168,-0.5104,-0.5098,-0.5036,-0.4978,-0.499,-0.4975,-0.4631,-0.3841,-0.3036,-0.2216,-0.1358,-0.048,0.0,0.0,0.0,0.0,0.0,0.0,0.0,0.0,0.0,0.0,0.0,0.0,0.0,0.0,0.0,0.0,0.0,0.0,0.0,0.0,0.0,0.0,0.0,0.0,0.0,0.0,0.0,0.0,0.0,0.0,0.0,0.0,0.0,0.0,0.0,0.0,0.0,0.0,0.0,0.0,0.1913,0.3976,0.5309,0.5123,0.5123,0.5395,0.5395,0.5395,0.5395,0.5395,0.5395,0.5395,-1.4109,-1.4109,-1.4109,-1.4109,-1.4096,-1.4096,-1.3915,-1.37,-1.3667,-1.3507,-1.33,-1.3253,-1.3173,-1.318,-1.2905,-1.283,-1.2757,-1.251,-1.2358,-1.2325,-1.2305,-1.2305,-1.2305,-1.2305,-1.2305,-1.2305,-1.2305,-1.2305,-1.2291,-1.2285,-1.2291,-1.2251,-1.2251,-1.2169,-1.1698,-1.1089,-0.9956,-0.8593,-0.7734,-0.6729,-0.5745,-0.5477,-0.5498,-0.5494,-0.5453,-0.5423,-0.5422,-0.5395,-0.5385,-0.5392,-0.5395,-0.5365,-0.5354,-0.5213,-0.5149,-0.5139,-0.5123,-0.4798,-0.4068,-0.3385,-0.25,-0.163,-0.0718,-0.0067,0.0,0.0,0.0,0.0,0.0,0.0,0.0,0.0,0.0,0.0,0.0,0.0,0.0,0.0,0.0,0.0,0.0,0.0,0.0,0.0,0.0,0.0,0.0,0.0,0.0,0.0,0.0,0.0,0.0,0.0,0.0,0.0,0.0,0.0,0.0,0.0,0.0,0.0,0.0,0.1042,0.2547,0.3732,0.44,0.4602,0.5007,0.5395,0.5395,0.5395,0.5395,0.5395,0.5395,-1.4109,-1.4109,-1.4109,-1.4109,-1.4109,-1.4109,-1.4048,-1.3981,-1.3988,-1.3787,-1.356,-1.3513,-1.3387,-1.3207,-1.3146,-1.3012,-1.287,-1.2723,-1.2557,-1.2311,-1.2305,-1.2305,-1.2305,-1.2305,-1.2305,-1.2305,-1.2305,-1.2305,-1.2305,-1.2305,-1.2305,-1.2305,-1.2305,-1.229,-1.2118,-1.1636,-1.0713,-0.9202,-0.8455,-0.7289,-0.5972,-0.5677,-0.5677,-0.5688,-0.5607,-0.5511,-0.5419,-0.5395,-0.5395,-0.5395,-0.5409,-0.5429,-0.5392,-0.5338,-0.5314,-0.5311,-0.5314,-0.5222,-0.4916,-0.413,-0.333,-0.2359,-0.1425,0.0,0.0,0.0,0.0,0.0,0.0,0.0,0.0,0.0,0.0,0.0,0.0,0.0,0.0,0.0,0.0,0.0,0.0,0.0,0.0,0.0,0.0,0.0,0.0,0.0,0.0,0.0,0.0,0.0,0.0,0.0,0.0,0.0,0.0,0.0,0.0,0.0,0.0,0.0,0.0,0.032,0.079,0.1928,0.3178,0.3932,0.4317,0.4838,0.5326,0.5326,0.5292,0.5345,0.5395,-1.4109,-1.4109,-1.4109,-1.4109,-1.4109,-1.4109,-1.4109,-1.4109,-1.4109,-1.4001,-1.386,-1.3834,-1.3761,-1.3614,-1.3453,-1.3307,-1.3186,-1.3032,-1.2818,-1.2597,-1.2531,-1.2438,-1.2311,-1.2305,-1.2305,-1.2305,-1.2305,-1.2305,-1.2305,-1.2305,-1.2305,-1.2305,-1.2286,-1.2305,-1.2169,-1.1669,-1.0543,-0.9233,-0.84,-0.7309,-0.6043,-0.58,-0.58,-0.5796,-0.5728,-0.564,-0.56,-0.5572,-0.5586,-0.5583,-0.5597,-0.5528,-0.5432,-0.5395,-0.5395,-0.5395,-0.5395,-0.5395,-0.5173,-0.4536,-0.3613,-0.2778,-0.1842,-0.094,0.0,0.0,0.0,0.0,0.0,0.0,0.0,0.0,0.0,0.0,0.0,0.0,0.0,0.0,0.0,0.0,0.0,0.0,0.0,0.0,0.0,0.0,0.0,0.0,0.0,0.0,0.0,0.0,0.0,0.0,0.0,0.0,0.0,0.0,0.0,0.0,0.0,0.0,0.0,0.0,0.0,0.0,0.2043,0.2794,0.3647,0.4217,0.4672,0.4957,0.5209,0.5326,0.5375,-1.4109,-1.4109,-1.4109,-1.4109,-1.4109,-1.4109,-1.4109,-1.4109,-1.4109,-1.4096,-1.4103,-1.4109,-1.4042,-1.4008,-1.3794,-1.366,-1.3507,-1.33,-1.3006,-1.2865,-1.2857,-1.2678,-1.2478,-1.2418,-1.2365,-1.2318,-1.2305,-1.2305,-1.2305,-1.2305,-1.2305,-1.2268,-1.2058,-1.1922,-1.1786,-1.1057,-0.9955,-0.88,-0.8051,-0.7144,-0.6127,-0.5905,-0.5898,-0.5854,-0.585,-0.5788,-0.5769,-0.5762,-0.5779,-0.58,-0.58,-0.5685,-0.5542,-0.546,-0.544,-0.5446,-0.545,-0.5433,-0.5302,-0.4705,-0.3932,-0.2963,-0.2076,-0.1174,0.0,0.0,0.0,0.0,0.0,0.0,0.0,0.0,0.0,0.0,0.0,0.0,0.0,0.0,0.0,0.0,0.0,0.0,0.0,0.0,0.0,0.0,0.0,0.0,0.0,0.0,0.0,0.0,0.0,0.0,0.0,0.0,0.0,0.0,0.0,0.0,0.0,0.0,0.0,0.0,0.0,0.0,0.1208,0.1993,0.2794,0.3513,0.4084,0.447,0.4855,0.5259,0.5349,-1.4109,-1.4109,-1.4109,-1.4109,-1.4109,-1.4109,-1.4109,-1.4109,-1.4109,-1.4109,-1.4109,-1.4109,-1.4109,-1.4083,-1.4055,-1.386,-1.3606,-1.3407,-1.3233,-1.314,-1.312,-1.2959,-1.2757,-1.2656,-1.2557,-1.2358,-1.2325,-1.2338,-1.2311,-1.2305,-1.2231,-1.2107,-1.1521,-1.1162,-1.0808,-1.0059,-0.9101,-0.8288,-0.774,-0.703,-0.6411,-0.6151,-0.6107,-0.5984,-0.5993,-0.592,-0.5826,-0.5813,-0.58,-0.58,-0.5803,-0.5779,-0.5763,-0.5746,-0.5688,-0.5593,-0.5566,-0.5545,-0.54,-0.5252,-0.4661,-0.3849,-0.2978,-0.2051,-0.1179,-0.0456,0.0,0.0,0.0,0.0,0.0,0.0,0.0,0.0,0.0,0.0,0.0,0.0,0.0,0.0,0.0,0.0,0.0,0.0,0.0,0.0,0.0,0.0,0.0,0.0,0.0,0.0,0.0,0.0,0.0,0.0,0.0,0.0,0.0,0.0,0.0,0.0,0.0,0.0,0.0,0.0,0.0923,0.0,0.1942,0.2661,0.3311,0.3954,0.4437,0.4875,0.5276,-1.4109,-1.4109,-1.4109,-1.4109,-1.4109,-1.4109,-1.4109,-1.4109,-1.4109,-1.4109,-1.4109,-1.4109,-1.4109,-1.4109,-1.4109,-1.3988,-1.3848,-1.3748,-1.3581,-1.3467,-1.34,-1.3273,-1.3012,-1.2884,-1.2825,-1.2719,-1.2632,-1.2457,-1.2318,-1.2305,-1.2058,-1.1484,-1.0994,-1.0565,-0.989,-0.9031,-0.8332,-0.7744,-0.7288,-0.6834,-0.6358,-0.628,-0.6226,-0.6173,-0.6142,-0.6108,-0.6083,-0.6059,-0.6062,-0.6062,-0.6062,-0.6056,-0.6049,-0.6025,-0.5932,-0.5752,-0.5698,-0.5688,-0.562,-0.5572,-0.5177,-0.4385,-0.38,-0.2898,-0.1836,-0.1053,-0.0525,0.0,0.0,0.0,0.0,0.0,0.0,0.0,0.0,0.0,0.0,0.0,0.0,0.0,0.0,0.0,0.0,0.0,0.0,0.0,0.0,0.0,0.0,0.0,0.0,0.0,0.0,0.0,0.0,0.0,0.0,0.0,0.0,0.0,0.0,0.0,0.0,0.0,0.0,0.0,0.0,0.0,0.0,0.1749,0.2227,0.2828,0.38,0.4469,0.4917,-1.4109,-1.4109,-1.4109,-1.4109,-1.4109,-1.4109,-1.4109,-1.4109,-1.4109,-1.4109,-1.4109,-1.4109,-1.4109,-1.4109,-1.4109,-1.4103,-1.4109,-1.4083,-1.3921,-1.376,-1.3686,-1.3554,-1.3293,-1.3119,-1.3039,-1.3053,-1.2953,-1.2704,-1.2516,-1.245,-1.1894,-1.1329,-1.092,-1.0171,-0.9315,-0.8165,-0.7725,-0.7253,-0.6795,-0.6315,-0.628,-0.628,-0.628,-0.628,-0.628,-0.6286,-0.6262,-0.6259,-0.6262,-0.6243,-0.6253,-0.6263,-0.6273,-0.6277,-0.6165,-0.596,-0.5853,-0.5819,-0.5793,-0.5783,-0.5482,-0.4885,-0.4606,-0.3511,-0.2245,-0.137,0.0,0.0,0.0,0.0,0.0,0.0,0.0,0.0,0.0,0.0,0.0,0.0,0.0,0.0,0.0,0.0,0.0,0.0,0.0,0.0,0.0,0.0,0.0,0.0,0.0,0.0,0.0,0.0,0.0,0.0,0.0,0.0,0.0,0.0,0.0,0.0,0.0,0.0,0.0,0.0,0.0,0.0,0.0,0.0953,0.1153,0.1703,0.2626,0.3851,0.4713,-1.4109,-1.4109,-1.4109,-1.4109,-1.4109,-1.4109,-1.4109,-1.4109,-1.4109,-1.4109,-1.4109,-1.4109,-1.4109,-1.4109,-1.4109,-1.4109,-1.4109,-1.4103,-1.4055,-1.3975,-1.3975,-1.382,-1.3607,-1.3533,-1.3373,-1.3313,-1.3213,-1.2999,-1.2811,-1.2764,-1.2413,-1.1708,-1.0297,-0.932,-0.8789,-0.7461,-0.6528,-0.6493,-0.6358,-0.628,-0.628,-0.628,-0.628,-0.628,-0.628,-0.628,-0.628,-0.628,-0.628,-0.628,-0.628,-0.628,-0.628,-0.628,-0.6289,-0.6195,-0.6084,-0.5912,-0.5861,-0.5854,-0.5839,-0.5443,-0.5038,-0.3977,-0.2707,0.0,0.0,0.0,0.0,0.0,0.0,0.0,0.0,0.0,0.0,0.0,0.0,0.0,0.0,0.0,0.0,0.0,0.0,0.0,0.0,0.0,0.0,0.0,0.0,0.0,0.0,0.0,0.0,0.0,0.0,0.0,0.0,0.0,0.0,0.0,0.0,0.0,0.0,0.0,0.0,0.0,0.0,0.0,0.0,0.0303,0.0682,0.1027,0.1429,0.2753,0.4121,-1.4109,-1.4109,-1.4109,-1.4109,-1.4109,-1.4109,-1.4109,-1.4109,-1.4109,-1.4109,-1.4109,-1.4109,-1.4109,-1.4109,-1.4109,-1.4109,-1.4109,-1.4109,-1.4109,-1.4109,-1.4096,-1.4015,-1.386,-1.37,-1.3574,-1.3661,-1.352,-1.3407,-1.3233,-1.2935,-1.246,-1.0914,-0.9949,-0.874,-0.8081,-0.6818,-0.6393,-0.6319,-0.628,-0.628,-0.628,-0.628,-0.628,-0.628,-0.628,-0.628,-0.628,-0.628,-0.628,-0.628,-0.628,-0.628,-0.628,-0.628,-0.6296,-0.6293,-0.6222,-0.6151,-0.6096,-0.6057,-0.6062,-0.6035,-0.5576,-0.4839,-0.3143,0.0,0.0,0.0,0.0,0.0,0.0,0.0,0.0,0.0,0.0,0.0,0.0,0.0,0.0,0.0,0.0,0.0,0.0,0.0,0.0,0.0,0.0,0.0,0.0,0.0,0.0,0.0,0.0,0.0,0.0,0.0,0.0,0.0,0.0,0.0,0.0,0.0,0.0,0.0,0.0,0.0,0.0,0.0,0.0,0.0,0.0313,0.0685,0.1061,0.1549,0.3075,-1.4109,-1.4109,-1.4109,-1.4109,-1.4109,-1.4109,-1.4109,-1.4109,-1.4109,-1.4109,-1.4109,-1.4109,-1.4109,-1.4109,-1.4109,-1.4109,-1.4109,-1.4109,-1.4109,-1.4109,-1.4109,-1.4103,-1.4001,-1.3847,-1.3874,-1.4103,-1.3848,-1.372,-1.3654,-1.3358,-1.2389,-1.0215,-0.9996,-0.8763,-0.7258,-0.6533,-0.6338,-0.628,-0.628,-0.628,-0.628,-0.628,-0.628,-0.628,-0.628,-0.628,-0.628,-0.628,-0.628,-0.628,-0.628,-0.628,-0.628,-0.628,-0.628,-0.628,-0.6256,-0.6256,-0.6239,-0.6239,-0.6277,-0.6141,-0.557,-0.444,-0.3228,0.0,0.0,0.0,0.0,0.0,0.0,0.0,0.0,0.0,0.0,0.0,0.0,0.0,0.0,0.0,0.0,0.0,0.0,0.0,0.0,0.0,0.0,0.0,0.0,0.0,0.0,0.0,0.0,0.0,0.0,0.0,0.0,0.0,0.0,0.0,0.0,0.0,0.0,0.0,0.0,0.0,0.0,0.0,0.0,0.0,0.0,0.0,0.0786,0.0,0.1953,-1.4109,-1.4109,-1.4109,-1.4109,-1.4109,-1.4109,-1.4109,-1.4109,-1.4109,-1.4109,-1.4109,-1.4109,-1.4109,-1.4109,-1.4109,-1.4109,-1.4109,-1.4109,-1.4109,-1.4109,-1.4109,-1.4109,-1.4055,-1.4041,-1.4056,-1.4096,-1.4001,-1.4008,-1.4028,-1.3928,-1.2872,-1.1505,-1.0408,-0.9168,-0.7904,-0.6889,-0.6489,-0.6388,-0.6368,-0.6354,-0.6344,-0.633,-0.632,-0.6313,-0.6306,-0.628,-0.628,-0.628,-0.628,-0.628,-0.628,-0.628,-0.628,-0.628,-0.628,-0.628,-0.628,-0.628,-0.628,-0.628,-0.628,-0.5767,-0.4882,-0.3884,-0.334,-0.1312,0.0,0.0,0.0,0.0,0.0,0.0,0.0,0.0,0.0,0.0,0.0,0.0,0.0,0.0,0.0,0.0,0.0,0.0,0.0,0.0,0.0,0.0,0.0,0.0,0.0,0.0,0.0,0.0,0.0,0.0,0.0,0.0,0.0,0.0,0.0,0.0,0.0,0.0,0.0,0.0,0.0,0.0,0.0,0.0,0.0,0.0,0.0,0.0,0.0,-1.4109,-1.4109,-1.4109,-1.4109,-1.4109,-1.4109,-1.4109,-1.4109,-1.4109,-1.4109,-1.4109,-1.4109,-1.4109,-1.4109,-1.4109,-1.4109,-1.4109,-1.4109,-1.4109,-1.4109,-1.4109,-1.4109,-1.4109,-1.4109,-1.4103,-1.4109,-1.4109,-1.4109,-1.4075,-1.4109,-1.3267,-1.2025,-1.089,-0.9524,-0.8334,-0.7204,-0.6701,-0.6563,-0.6542,-0.6549,-0.6532,-0.647,-0.6433,-0.6409,-0.6323,-0.6306,-0.628,-0.628,-0.628,-0.6284,-0.6287,-0.6306,-0.628,-0.628,-0.628,-0.628,-0.628,-0.628,-0.628,-0.628,-0.628,-0.6022,-0.5002,-0.4042,-0.3848,-0.2132,-0.1195,0.0,0.0,0.0,0.0,0.0,0.0,0.0,0.0,0.0,0.0,0.0,0.0,0.0,0.0,0.0,0.0,0.0,0.0,0.0,0.0,0.0,0.0,0.0,0.0,0.0,0.0,0.0,0.0,0.0,0.0,0.0,0.0,0.0,0.0,0.0,0.0,0.0,0.0,0.0,0.0,0.0,0.0,0.0,0.0,0.0,0.0,0.0,0.0,-1.4109,-1.4109,-1.4109,-1.4109,-1.4109,-1.4109,-1.4109,-1.4109,-1.4109,-1.4109,-1.4109,-1.4109,-1.4109,-1.4109,-1.4109,-1.4109,-1.4109,-1.4109,-1.4109,-1.4109,-1.4109,-1.4109,-1.4109,-1.4109,-1.4109,-1.4109,-1.4109,-1.4109,-1.4109,-1.4109,-1.3634,-1.2765,-1.1556,-1.021,-0.8516,-0.7355,-0.6722,-0.6722,-0.6722,-0.6722,-0.6671,-0.66,-0.6563,-0.6556,-0.6477,-0.645,-0.645,-0.645,-0.6406,-0.6379,-0.6371,-0.6344,-0.6317,-0.628,-0.628,-0.628,-0.628,-0.6284,-0.6284,-0.628,-0.628,-0.6141,-0.5295,-0.4746,-0.4222,-0.2856,-0.1528,-0.1392,0.0,0.0,0.0,0.0,0.0,0.0,0.0,0.0,0.0,0.0,0.0,0.0,0.0,0.0,0.0,0.0,0.0,0.0,0.0,0.0,0.0,0.0,0.0,0.0,0.0,0.0,0.0,0.0,0.0,0.0,0.0,0.0,0.0,0.0,0.0,0.0,0.0,0.0,0.0,0.0,0.0,0.0,0.0,0.0,0.0,0.0,0.0,-1.4109,-1.4109,-1.4109,-1.4109,-1.4109,-1.4109,-1.4109,-1.4109,-1.4109,-1.4109,-1.4109,-1.4109,-1.4109,-1.4109,-1.4109,-1.4109,-1.4109,-1.4109,-1.4109,-1.4109,-1.4109,-1.4109,-1.4109,-1.4109,-1.4109,-1.4109,-1.4109,-1.4109,-1.4109,-1.4109,-1.3955,-1.3491,-1.2269,-1.0735,-0.8738,-0.7376,-0.6753,-0.6733,-0.6732,-0.6746,-0.6749,-0.6701,-0.6698,-0.6685,-0.6661,-0.6627,-0.6624,-0.6624,-0.6576,-0.6512,-0.6491,-0.6467,-0.6388,-0.6368,-0.6341,-0.6335,-0.6344,-0.6334,-0.6317,-0.631,-0.6324,-0.6289,-0.5562,-0.5126,-0.4462,-0.3142,-0.1897,-0.2073,0.0,0.0,0.0,0.0,0.0,0.0,0.0,0.0,0.0,0.0,0.0,0.0,0.0,0.0,0.0,0.0,0.0,0.0,0.0,0.0,0.0,0.0,0.0,0.0,0.0,0.0,0.0,0.0,0.0,0.0,0.0,0.0,0.0,0.0,0.0,0.0,0.0,0.0,0.0,0.0,0.0,0.0,0.0,0.0,0.0,0.0,0.0,-1.4109,-1.4109,-1.4109,-1.4109,-1.4109,-1.4109,-1.4109,-1.4109,-1.4109,-1.4109,-1.4109,-1.4109,-1.4109,-1.4109,-1.4109,-1.4109,-1.4109,-1.4109,-1.4109,-1.4109,-1.4109,-1.4109,-1.4109,-1.4109,-1.4109,-1.4109,-1.4109,-1.4109,-1.4109,-1.4109,-1.4109,-1.3709,-1.2227,-1.0419,-0.8901,-0.7649,-0.6975,-0.6972,-0.6975,-0.6972,-0.6955,-0.688,-0.683,-0.6826,-0.677,-0.6729,-0.6732,-0.6739,-0.6719,-0.6658,-0.6644,-0.6607,-0.6552,-0.6542,-0.6552,-0.6559,-0.6566,-0.6573,-0.6552,-0.6559,-0.6552,-0.6407,-0.6219,-0.5883,-0.5807,-0.4763,-0.3744,-0.2697,-0.167,-0.0918,0.0,0.0,0.0,0.0,0.0,0.0,0.0,0.0,0.0,0.0,0.0,0.0,0.0,0.0,0.0,0.0,0.0,0.0,0.0,0.0,0.0,0.0,0.0,0.0,0.0,0.0,0.0,0.0,0.0,0.0,0.0,0.0,0.0,0.0,0.0,0.0,0.0,0.0,0.0,0.0,0.0,0.0,0.0,0.0,0.0,-1.4109,-1.4109,-1.4109,-1.4109,-1.4109,-1.4109,-1.4109,-1.4109,-1.4109,-1.4109,-1.4109,-1.4109,-1.4109,-1.4109,-1.4109,-1.4109,-1.4109,-1.4109,-1.4109,-1.4109,-1.4109,-1.4109,-1.4109,-1.4109,-1.4109,-1.4109,-1.4109,-1.4109,-1.4109,-1.4109,-1.4109,-1.354,-1.1826,-1.0536,-0.9231,-0.8183,-0.7071,-0.7083,-0.7077,-0.7087,-0.7045,-0.7004,-0.6979,-0.6958,-0.6904,-0.6865,-0.6837,-0.6823,-0.6827,-0.68,-0.6755,-0.6732,-0.6729,-0.6705,-0.6722,-0.6722,-0.6719,-0.6719,-0.6753,-0.677,-0.6783,-0.6805,-0.6776,-0.6705,-0.6508,-0.5452,-0.4769,-0.3815,-0.2664,-0.1637,-0.0757,0.0,0.0,0.0,0.0,0.0,0.0,0.0,0.0,0.0,0.0,0.0,0.0,0.0,0.0,0.0,0.0,0.0,0.0,0.0,0.0,0.0,0.0,0.0,0.0,0.0,0.0,0.0,0.0,0.0,0.0,0.0,0.0,0.0,0.0,0.0,0.0,0.0,0.0,0.0,0.0,0.0,0.0,0.0,0.0,-1.4109,-1.4109,-1.4109,-1.4109,-1.4109,-1.4109,-1.4109,-1.4109,-1.4109,-1.4109,-1.4109,-1.4109,-1.4109,-1.4109,-1.4109,-1.4109,-1.4109,-1.4109,-1.4109,-1.4109,-1.4109,-1.4109,-1.4109,-1.4109,-1.4109,-1.4109,-1.4109,-1.4109,-1.4109,-1.4109,-1.4109,-1.3652,-1.1997,-1.0891,-0.9831,-0.8619,-0.7467,-0.7205,-0.7117,-0.7117,-0.7078,-0.7104,-0.708,-0.7066,-0.705,-0.7039,-0.7043,-0.7046,-0.6999,-0.6955,-0.6911,-0.6826,-0.678,-0.6722,-0.6719,-0.6725,-0.6742,-0.6831,-0.6884,-0.6908,-0.6955,-0.6992,-0.686,-0.677,-0.6537,-0.6002,-0.5423,-0.4504,-0.3341,-0.2457,0.0,0.0,0.0,0.0,0.0,0.0,0.0,0.0,0.0,0.0,0.0,0.0,0.0,0.0,0.0,0.0,0.0,0.0,0.0,0.0,0.0,0.0,0.0,0.0,0.0,0.0,0.0,0.0,0.0,0.0,0.0,0.0,0.0,0.0,0.0,0.0,0.0,0.0,0.0,0.0,0.0,0.0,0.0,0.0,0.0,-1.4109,-1.4109,-1.4109,-1.4109,-1.4109,-1.4109,-1.4109,-1.4109,-1.4109,-1.4109,-1.4109,-1.4109,-1.4109,-1.4109,-1.4109,-1.4109,-1.4109,-1.4109,-1.4109,-1.4109,-1.4109,-1.4109,-1.4109,-1.4109,-1.4109,-1.4109,-1.4109,-1.4109,-1.4109,-1.4109,-1.4109,-1.3779,-1.2403,-1.1488,-1.0325,-0.91,-0.8057,-0.7294,-0.7117,-0.7117,-0.7117,-0.7117,-0.7117,-0.7117,-0.7117,-0.7117,-0.7117,-0.7117,-0.7077,-0.7063,-0.7053,-0.7012,-0.6987,-0.697,-0.6992,-0.697,-0.6977,-0.7019,-0.705,-0.7056,-0.707,-0.71,-0.7012,-0.6997,-0.6862,-0.6566,-0.6038,-0.5149,-0.4102,-0.3186,-0.2105,0.0,0.0,0.0,0.0,0.0,0.0,0.0,0.0,0.0,0.0,0.0,0.0,0.0,0.0,0.0,0.0,0.0,0.0,0.0,0.0,0.0,0.0,0.0,0.0,0.0,0.0,0.0,0.0,0.0,0.0,0.0,0.0,0.0,0.0,0.0,0.0,0.0,0.0,0.0,0.0,0.0,0.0,0.0,0.0,-1.4109,-1.4109,-1.4109,-1.4109,-1.4109,-1.4109,-1.4109,-1.4109,-1.4109,-1.4109,-1.4109,-1.4109,-1.4109,-1.4109,-1.4109,-1.4109,-1.4109,-1.4109,-1.4109,-1.4109,-1.4109,-1.4109,-1.4109,-1.4109,-1.4109,-1.4109,-1.4109,-1.4109,-1.4109,-1.4109,-1.4109,-1.3976,-1.2878,-1.1729,-1.0546,-0.9383,-0.8233,-0.7511,-0.7117,-0.7117,-0.7117,-0.7117,-0.7117,-0.7117,-0.7117,-0.7117,-0.7117,-0.7117,-0.7117,-0.7117,-0.7117,-0.7117,-0.7088,-0.7088,-0.7088,-0.7075,-0.7071,-0.709,-0.7104,-0.7107,-0.7114,-0.7117,-0.7117,-0.7085,-0.7078,-0.6916,-0.659,-0.6056,-0.4957,-0.3855,-0.2656,0.0,0.0,0.0,0.0,0.0,0.0,0.0,0.0,0.0,0.0,0.0,0.0,0.0,0.0,0.0,0.0,0.0,0.0,0.0,0.0,0.0,0.0,0.0,0.0,0.0,0.0,0.0,0.0,0.0,0.0,0.0,0.0,0.0,0.0,0.0,0.0,0.0,0.0,0.0,0.0,0.0,0.0,0.0,0.0,-1.4109,-1.4109,-1.4109,-1.4109,-1.4109,-1.4109,-1.4109,-1.4109,-1.4109,-1.4109,-1.4109,-1.4109,-1.4109,-1.4109,-1.4109,-1.4109,-1.4109,-1.4109,-1.4109,-1.4109,-1.4109,-1.4109,-1.4109,-1.4109,-1.4109,-1.4109,-1.4109,-1.4109,-1.4109,-1.4109,-1.4088,-1.4004,-1.2899,-1.1724,-1.0611,-0.9471,-0.8321,-0.7338,-0.7117,-0.7117,-0.7117,-0.7117,-0.7117,-0.7117,-0.7117,-0.7117,-0.7117,-0.7117,-0.7117,-0.7117,-0.7117,-0.7117,-0.7117,-0.7117,-0.7117,-0.7117,-0.7117,-0.7117,-0.7117,-0.7117,-0.7117,-0.7117,-0.7117,-0.7117,-0.7117,-0.7117,-0.6849,-0.6558,-0.5556,-0.4752,-0.3684,-0.2215,-0.1182,-0.0557,0.0,0.0,0.0,0.0,0.0,0.0,0.0,0.0,0.0,0.0,0.0,0.0,0.0,0.0,0.0,0.0,0.0,0.0,0.0,0.0,0.0,0.0,0.0,0.0,0.0,0.0,0.0,0.0,0.0,0.0,0.0,0.0,0.0,0.0,0.0,0.0,0.0,0.0,0.0,0.0,0.0,-1.4109,-1.4109,-1.4109,-1.4109,-1.4109,-1.4109,-1.4109,-1.4109,-1.4109,-1.4109,-1.4109,-1.4109,-1.4109,-1.4109,-1.4109,-1.4109,-1.4109,-1.4109,-1.4109,-1.4109,-1.4109,-1.4109,-1.4109,-1.4109,-1.4109,-1.4109,-1.4109,-1.4109,-1.4109,-1.4109,-1.406,-1.3955,-1.2899,-1.1724,-1.0589,-0.9471,-0.8342,-0.7205,-0.7117,-0.7117,-0.7117,-0.7117,-0.7117,-0.7117,-0.7117,-0.7117,-0.7117,-0.7117,-0.7117,-0.7117,-0.7117,-0.7117,-0.7117,-0.7117,-0.7117,-0.7117,-0.7117,-0.7117,-0.7117,-0.7117,-0.7117,-0.7117,-0.7117,-0.7117,-0.7117,-0.7117,-0.6985,-0.6716,-0.627,-0.5556,-0.4599,-0.3062,-0.1679,-0.1143,0.0,0.0,0.0,0.0,0.0,0.0,0.0,0.0,0.0,0.0,0.0,0.0,0.0,0.0,0.0,0.0,0.0,0.0,0.0,0.0,0.0,0.0,0.0,0.0,0.0,0.0,0.0,0.0,0.0,0.0,0.0,0.0,0.0,0.0,0.0,0.0,0.0,0.0,0.0,0.0,0.0,-1.4109,-1.4109,-1.4109,-1.4109,-1.4109,-1.4109,-1.4109,-1.4109,-1.4109,-1.4109,-1.4109,-1.4109,-1.4109,-1.4109,-1.4109,-1.4109,-1.4109,-1.4109,-1.4109,-1.4109,-1.4109,-1.4109,-1.4109,-1.4109,-1.4109,-1.4109,-1.4109,-1.4109,-1.4109,-1.4109,-1.406,-1.3906,-1.2899,-1.1751,-1.0611,-0.9471,-0.8321,-0.7165,-0.7161,-0.7117,-0.7117,-0.7117,-0.7117,-0.7117,-0.7117,-0.7117,-0.7117,-0.7117,-0.7117,-0.7117,-0.7117,-0.7117,-0.7117,-0.7117,-0.7117,-0.7117,-0.7117,-0.7117,-0.7117,-0.7117,-0.7117,-0.7117,-0.7117,-0.7117,-0.7117,-0.7117,-0.7117,-0.6871,-0.6805,-0.6179,-0.5401,-0.4065,-0.2727,-0.1879,-0.1322,0.0,0.0,0.0,0.0,0.0,0.0,0.0,0.0,0.0,0.0,0.0,0.0,0.0,0.0,0.0,0.0,0.0,0.0,0.0,0.0,0.0,0.0,0.0,0.0,0.0,0.0,0.0,0.0,0.0,0.0,0.0,0.0,0.0,0.0,0.0,0.0,0.0,0.0,0.0,0.0,-1.4109,-1.4109,-1.4109,-1.4109,-1.4109,-1.4109,-1.4109,-1.4109,-1.4109,-1.4109,-1.4109,-1.4109,-1.4109,-1.4109,-1.4109,-1.4109,-1.4109,-1.4109,-1.4109,-1.4109,-1.4109,-1.4109,-1.4109,-1.4109,-1.4109,-1.4109,-1.4109,-1.4109,-1.4109,-1.4109,-1.4018,-1.3843,-1.2942,-1.1815,-1.0718,-0.9514,-0.8368,-0.7691,-0.7382,-0.7139,-0.7117,-0.7117,-0.7117,-0.7117,-0.7117,-0.7117,-0.7117,-0.7117,-0.7117,-0.7117,-0.7117,-0.7117,-0.7117,-0.7117,-0.7117,-0.7117,-0.7117,-0.7117,-0.7117,-0.7117,-0.7117,-0.7117,-0.7117,-0.7117,-0.7117,-0.7117,-0.7117,-0.7095,-0.7025,-0.676,-0.596,-0.5112,-0.3796,-0.2726,-0.2192,-0.1322,0.0,0.0,0.0,0.0,0.0,0.0,0.0,0.0,0.0,0.0,0.0,0.0,0.0,0.0,0.0,0.0,0.0,0.0,0.0,0.0,0.0,0.0,0.0,0.0,0.0,0.0,0.0,0.0,0.0,0.0,0.0,0.0,0.0,0.0,0.0,0.0,0.0,0.0,0.0,-1.4109,-1.4109,-1.4109,-1.4109,-1.4109,-1.4109,-1.4109,-1.4109,-1.4109,-1.4109,-1.4109,-1.4109,-1.4109,-1.4109,-1.4109,-1.4109,-1.4109,-1.4109,-1.4109,-1.4109,-1.4109,-1.4109,-1.4109,-1.4109,-1.4109,-1.4109,-1.4109,-1.4109,-1.4109,-1.4109,-1.4088,-1.4018,-1.2899,-1.2114,-1.1724,-1.033,-0.8715,-0.8127,-0.7492,-0.7117,-0.7117,-0.7117,-0.7117,-0.7117,-0.7117,-0.7117,-0.7117,-0.7117,-0.7117,-0.7117,-0.7117,-0.7117,-0.7117,-0.7117,-0.7117,-0.7117,-0.7117,-0.7117,-0.7117,-0.7117,-0.7117,-0.7117,-0.7117,-0.7117,-0.7117,-0.7117,-0.7117,-0.7117,-0.7073,-0.7073,-0.6451,-0.5802,-0.4732,-0.3974,-0.333,-0.1747,0.0,0.0,0.0,0.0,0.0,0.0,0.0,0.0,0.0,0.0,0.0,0.0,0.0,0.0,0.0,0.0,0.0,0.0,0.0,0.0,0.0,0.0,0.0,0.0,0.0,0.0,0.0,0.0,0.0,0.0,0.0,0.0,0.0,0.0,0.0,0.0,0.0,0.0,0.0]},{"header":{"parameterUnit":"m.s-1","parameterCategory":1,"la1":31.0,"la2":29.5877,"lo1":-88.7671,"lo2":-86.6584,"dy":0.0162,"dx":0.0185,"nx":115,"ny":88,"refTime":"2025-12-02T12:00:00:Z","depth":0,"parameterNumber":3,"parameterNumberName":"V-component_of_WINDS"},"data":[0.0,0.0,0.0,0.0,0.0,0.0,0.0,0.0,0.0,0.0,0.0,0.0,0.0,0.0,0.0,0.0,0.0,0.0,0.0,0.0,0.0,0.0,0.0,0.0,0.0,0.0,0.0,0.0,0.0,0.0,0.0,0.0,0.0,0.0,0.0,0.0,0.0,0.0,0.0,0.0,0.0,0.0,0.0,0.0,0.0,0.0,0.0,0.0,0.0,0.0,0.0,0.0,0.0,0.0,0.0,0.0,0.0,0.0,0.0,0.0,0.0,0.0,0.0,0.0,0.0,0.0,0.0,0.0,0.0,0.0,0.0,0.0,0.0,0.0,0.0,0.0,0.0,0.0,0.0,0.0,0.0,0.0,0.0,0.0,0.0,0.0,0.0,0.0,0.0,0.0,0.0,0.0,0.0,0.0,0.0,0.0,0.0,0.0,0.0,0.0,0.0,0.0,0.0,0.0,0.0,0.0,0.0,0.0,0.0,0.0,0.0,0.0,0.0,0.0,0.0,0.0,0.0,0.0,0.0,0.0,0.0,0.0,0.0,0.0,0.0,0.0,0.0,0.0,0.0,0.0,0.0,0.0,0.0,0.0,0.0,0.0,0.0,0.0,0.0,0.0,0.0,0.0,0.0,0.0,0.0,0.0,0.0,0.0,0.0,0.0,0.0,0.0,0.0,0.0,0.0,0.0,0.0,0.0,0.0,0.0,0.0,0.0,0.0,0.0,0.0,0.0,0.0,0.0,0.0,0.0,0.0,0.0,0.0,0.0,0.0,0.0,0.0,0.0,0.0,0.0,0.0,0.0,0.0,0.0,0.0,0.0,0.0,0.0,0.0,0.0,0.0,0.0,0.0,0.0,0.0,0.0,0.0,0.0,0.0,0.0,0.0,0.0,0.0,0.0,0.0,0.0,0.0,0.0,0.0,0.0,0.0,0.0,0.0,0.0,0.0,0.0,0.0,0.0,0.0,0.0,0.0,0.0,0.0,0.0,0.0,0.0,0.0,0.0,0.0,0.0,0.0,0.0,0.0,0.0,0.0,0.0,0.0,0.0,0.0,0.0,0.0,0.0,0.0,0.0,0.0,0.0,0.0,0.0,0.0,0.0,0.0,0.0,0.0,0.0,0.0,0.0,0.0,0.0,0.0,0.0,0.0,0.0,0.0,0.0,0.0,0.0,0.0,0.0,0.0,0.0,0.0,0.0,0.0,0.0,0.0,0.0,0.0,0.0,0.0,0.0,0.0,0.0,0.0,0.0,0.0,0.0,0.0,0.0,0.0,0.0,0.0,0.0,0.0,0.0,0.0,0.0,0.0,0.0,0.0,0.0,0.0,0.0,0.0,0.0,0.0,0.0,0.0,0.0,0.0,0.0,0.0,0.0,0.0,0.0,0.0,0.0,0.0,0.0,0.0,0.0,0.0,0.0,0.0,0.0,0.0,0.0,0.0,0.0,0.0,0.0,0.0,0.0,0.0,0.0,0.0,0.0,0.0,0.0,0.0,0.0,0.0,0.0,0.0,0.0,0.0,0.0,0.0,0.0,0.0,0.0,0.0,0.0,0.0,0.0,0.0,0.0,0.0,0.0,0.0,0.0,0.0,0.0,0.0,0.0,0.0,0.0,0.0,0.0,0.0,0.0,0.0,0.0,0.0,0.0,0.0,0.0,0.0,0.0,0.0,0.0,0.0,0.0,0.0,0.0,0.0,0.0,0.0,0.0,0.0,0.0,0.0,0.0,0.0,0.0,0.0,0.0,0.0,0.0,0.0,0.0,0.0,0.0,0.0,0.0,0.0,0.0,0.0,0.0,0.0,0.0,0.0,0.0,0.0,0.0,0.0,0.0,0.0,0.0,0.0,0.0,0.0,0.0,0.0,0.0,0.0,0.0,0.0,0.0,0.0,0.0,0.0,0.0,0.0,0.0,0.0,0.0,0.0,0.0,0.0,0.0,0.0,0.0,0.0,0.0,0.0,0.0,0.0,0.0,0.0,0.0,0.0,0.0,0.0,0.0,0.0,0.0,0.0,0.0,0.0,0.0,0.0,0.0,0.0,0.0,0.0,0.0,0.0,0.0,0.0,0.0,0.0,0.0,0.0,0.0,0.0,0.0,0.0,0.0,0.0,0.0,0.0,0.0,0.0,0.0,0.0,0.0,0.0,0.0,0.0,0.0,0.0,0.0,0.0,0.0,0.0,0.0,0.0,0.0,0.0,0.0,0.0,0.0,0.0,0.0,0.0,0.0,0.0,0.0,0.0,0.0,0.0,0.0,0.0,0.0,0.0,0.0,0.0,0.0,0.0,0.0,0.0,0.0,0.0,0.0,0.0,0.0,0.0,0.0,0.0,0.0,0.0,0.0,0.0,0.0,0.0,0.0,0.0,0.0,0.0,0.0,0.0,0.0,0.0,0.0,0.0,0.0,0.0,0.0,0.0,0.0,0.0,0.0,0.0,0.0,0.0,0.0,0.0,0.0,0.0,0.0,0.0,0.0,0.0,0.0,0.0,0.0,0.0,0.0,0.0,0.0,0.0,0.0,0.0,0.0,0.0,0.0,0.0,0.0,0.0,0.0,0.0,0.0,0.0,0.0,0.0,0.0,0.0,0.0,0.0,0.0,0.0,0.0,0.0,0.0,0.0,0.0,0.0,0.0,0.0,0.0,0.0,0.0,0.0,0.0,0.0,0.0,0.0,0.0,0.0,0.0,0.0,0.0,0.0,0.0,0.0,0.0,0.0,0.0,0.0,0.0,0.0,0.0,0.0,0.0,0.0,0.0,0.0,0.0,0.0,0.0,0.0,0.0,0.0,0.0,0.0,0.0,0.0,0.0,0.0,0.0,0.0,0.0,0.0,0.0,0.0,0.0,0.0,0.0,0.0,0.0,0.0,0.0,0.0,0.0,0.0,0.0,0.0,0.0,0.0,0.0,0.0,0.0,0.0,0.0,0.0,0.0,0.0,0.0,0.0,0.0,0.0,0.0,0.0,0.0,0.0,0.0,0.0,0.0,0.0,0.0,0.0,0.0,0.0,0.0,0.0,0.0,0.0,0.0,0.0,0.0,0.0,0.0,0.0,0.0,0.0,0.0,0.0,0.0,0.0,0.0,0.0,0.0,0.0,0.0,0.0,0.0,0.0,0.0,0.0,0.0,0.0,0.0,0.0,0.0,0.0,0.0,0.0,0.0,0.0,0.0,0.0,0.0,0.0,0.0,0.0,0.0,0.0,0.0,0.0,0.0,0.0,0.0,0.0,0.0,0.0,0.0,0.0,0.0,0.0,0.0,0.0,0.0,0.0,0.0,0.0,0.0,0.0,0.0,0.0,0.0,0.0,0.0,0.0,0.0,0.0,0.0,0.0,0.0,0.0,0.0,0.0,0.0,0.0,0.0,0.0,0.0,0.0,0.0,0.0,0.0,0.0,0.0,0.0,0.0,0.0,0.0,0.0,0.0,0.0,0.0,0.0,0.0,0.0,0.0,0.0,0.0,0.0,0.0,0.0,0.0,0.0,0.0,0.0,0.0,0.0,0.0,0.0,0.0,0.0,0.0,0.0,0.0,0.0,0.0,0.0,0.0,0.0,0.0,0.0,0.0,0.0,0.0,0.0,0.0,0.0,0.0,0.0,0.0,0.0,0.0,0.0,0.0,0.0,0.0,0.0,0.0,0.0,0.0,0.0,0.0,0.0,0.0,0.0,0.0,0.0,0.0,0.0,0.0,0.0,0.0,0.0,0.0,0.0,0.0,0.0,0.0,0.0,0.0,0.0,0.0,0.0,0.0,0.0,0.0,0.0,0.0,0.0,0.0,0.0,0.0,0.0,0.0,0.0,0.0,0.0,0.0,0.0,0.0,0.0,0.0,0.0,0.0,0.0,0.0,0.0,0.0,0.0,0.0,0.0,0.0,0.0,0.0,0.0,0.0,0.0,0.0,0.0,0.0,0.0,0.0,0.0,0.0,0.0,0.0,0.0,0.0,0.0,0.0,0.0,0.0,0.0,0.0,0.0,0.0,0.0,0.0,0.0,0.0,0.0,0.0,0.0,0.0,0.0,0.0,0.0,0.0,0.0,0.0,0.0,0.0,0.0,0.0,0.0,0.0,0.0,0.0,0.0,0.0,0.0,0.0,0.0,0.0,0.0,0.0,0.0,0.0,0.0,0.0,0.0,0.0,0.0,0.0,0.0,0.0,0.0,0.0,0.0,0.0,0.0,0.0,0.0,0.0,0.0,0.0,0.0,0.0,0.0,0.0,0.0,0.0,0.0,0.0,0.0,0.0,0.0,0.0,0.7054,0.0,0.0,0.0,0.0,0.0,0.0,0.0,0.0,0.0,0.0,0.0,0.0,0.0,0.0,0.0,0.0,0.0,0.0,0.0,0.0,0.0,0.0,0.0,0.0,0.0,0.0,0.0,0.0,0.0,0.0,0.0,0.0,0.0,0.0,0.0,0.0,0.0,0.0,0.0,0.0,0.0,0.0,0.0,0.0,0.0,0.0,0.0,0.0,0.0,0.0,0.0,0.0,0.0,0.0,0.0,0.0,0.0,0.0,0.0,0.0,0.0,0.0,0.0,0.0,0.0,0.0,0.0,0.0,0.0,0.0,0.0,0.0,0.0,0.0,0.0,0.0,0.0,0.0,0.0,0.0,0.0,0.0,0.0,0.0,0.0,0.0,0.0,0.0,0.0,0.0,0.0,0.0,0.0,0.0,0.0,0.0,0.0,0.0,0.0,0.0,0.0,0.0,0.0,0.0,0.0,0.0,0.0,0.0,0.0,0.0,0.9167,0.8514,0.7742,0.7371,0.7391,0.0,0.0,0.0,0.0,0.0,0.0,0.0,0.0,0.0,0.0,0.0,0.0,0.0,0.0,0.0,0.0,0.0,0.0,0.0,0.0,0.0,0.0,0.0,0.0,0.0,0.0,0.0,0.0,0.0,0.0,0.0,0.0,0.0,0.0,0.0,0.0,0.0,0.0,0.0,0.0,0.0,0.0,0.0,0.0,0.0,0.0,0.0,0.0,0.0,0.0,0.0,0.0,0.0,0.0,0.0,0.0,0.0,0.0,0.0,0.0,0.0,0.0,0.0,0.0,0.0,0.0,0.0,0.0,0.0,0.0,0.0,0.0,0.0,0.0,0.0,0.0,0.0,0.0,0.0,0.0,0.0,0.0,0.0,0.0,0.0,0.0,0.0,0.0,0.0,0.0,0.0,0.0,0.0,0.0,0.0,0.0,0.0,0.0,0.0,0.0,0.0,0.0,0.0,0.0,0.0,0.0,0.0,0.0,0.0,0.0,0.0,0.0,0.8001,0.7635,0.7765,0.0,0.0,0.0,0.0,0.0,0.0,0.0,0.0,0.0,0.0,0.0,0.0,0.0,0.0,0.0,0.0,0.0,0.0,0.0,0.0,0.0,0.0,0.0,0.0,0.0,0.0,0.0,0.0,0.0,0.0,0.0,0.0,0.0,0.0,0.0,0.0,0.0,0.0,0.0,0.0,0.0,0.0,0.0,0.0,0.0,0.0,0.0,0.0,0.0,0.0,0.0,0.0,0.0,0.0,0.0,0.0,0.0,0.0,0.0,0.0,0.0,0.0,0.0,0.0,0.0,0.0,0.0,0.0,0.0,0.0,0.0,0.0,0.0,0.0,0.0,0.0,0.0,0.0,0.0,0.0,0.0,0.0,0.0,0.0,0.0,0.0,0.0,0.0,0.0,0.0,0.0,0.0,0.0,0.0,0.0,0.0,0.0,0.0,0.0,0.0,0.0,0.0,0.0,0.0,0.0,0.0,0.0,0.0,0.0,0.0,0.9656,0.959,0.8877,0.0,0.88,0.0,0.0,0.0,0.0,0.0,0.0,0.0,0.0,0.0,0.0,0.0,0.0,0.0,0.0,0.0,0.0,0.0,0.0,0.0,0.0,0.0,0.0,0.0,0.0,0.0,0.0,0.0,0.0,0.0,0.0,0.0,0.0,0.0,0.0,0.0,0.0,0.0,0.0,0.0,0.0,0.0,0.0,0.0,0.0,0.0,0.0,0.0,0.0,0.0,0.0,0.0,0.0,0.0,0.0,0.0,0.0,0.0,0.0,0.0,0.0,0.0,0.0,0.0,0.0,0.0,0.0,0.0,0.0,0.0,0.0,0.0,0.0,0.0,0.0,0.0,0.0,0.0,0.0,0.0,0.0,0.0,0.0,0.0,0.0,0.0,0.0,0.0,0.0,0.0,0.0,0.0,0.0,0.0,0.0,0.0,0.0,0.0,0.0,0.0,0.0,0.0,0.0,0.0,0.0,0.0,0.0,0.0,0.0,0.0,0.0,0.9708,0.9759,0.9546,0.9258,0.0,0.0,0.0,0.0,0.0,0.0,0.0,0.0,0.0,0.0,0.0,0.0,0.0,0.0,0.0,0.0,0.0,0.0,0.0,0.0,0.0,0.0,0.0,0.0,0.0,0.0,0.0,0.0,0.0,0.0,0.0,0.0,0.0,0.0,0.0,0.0,0.0,0.0,0.0,0.0,0.0,0.0,0.0,0.0,0.0,0.0,0.0,0.0,0.0,0.0,0.0,0.0,0.0,0.0,0.0,0.0,0.0,0.0,0.0,0.0,0.0,0.0,0.0,0.0,0.0,0.0,0.0,0.0,0.0,0.0,0.0,0.0,0.0,0.0,0.0,0.0,0.0,0.0,0.0,0.0,0.0,0.0,0.0,0.0,0.0,0.0,0.0,0.0,0.0,0.0,0.0,0.0,0.0,0.0,0.0,0.0,0.0,0.0,0.0,0.0,0.0,0.0,0.0,0.0,0.0,0.0,0.0,0.0,0.0,0.0,0.9643,0.9739,0.9829,0.993,0.9668,0.8933,0.0,0.0,0.0,0.0,0.0,0.0,0.0,0.0,0.0,0.0,0.0,0.0,0.0,0.0,0.0,0.0,0.0,0.0,0.0,0.0,0.0,0.0,0.0,0.0,0.0,0.0,0.0,0.0,0.0,0.0,0.0,0.0,0.0,0.0,0.0,0.0,0.0,0.0,0.0,0.0,0.0,0.0,0.0,0.0,0.0,0.0,0.0,0.0,0.0,0.0,0.0,0.0,0.0,0.0,0.0,0.0,0.0,0.0,0.0,0.0,0.0,0.0,0.0,0.0,0.0,0.0,0.0,0.0,0.0,0.0,0.0,0.0,0.0,0.0,0.0,0.0,0.0,0.0,0.0,0.0,0.0,0.0,0.0,0.0,0.0,0.0,0.0,0.0,0.0,0.0,0.0,0.0,0.0,0.0,0.0,0.0,0.0,0.0,0.0,0.0,0.0,0.0,0.0,0.0,0.0,0.0,0.0,0.0,0.9692,0.9702,0.9765,0.9885,0.9973,0.9648,0.0,0.0,0.0,0.0,0.0,0.0,0.0,0.0,0.0,0.0,0.0,0.0,0.0,0.0,0.0,0.0,0.0,0.0,0.0,0.0,0.0,0.0,0.0,0.0,0.0,0.0,0.0,0.0,0.0,0.0,0.0,0.0,0.0,0.0,0.0,0.0,0.0,0.0,0.0,0.0,0.0,0.0,0.0,0.0,0.0,0.0,0.0,0.0,0.0,0.0,0.0,0.0,0.0,0.0,0.0,0.0,0.0,0.0,0.0,0.0,0.0,0.0,0.0,0.0,0.0,0.0,0.0,0.0,0.0,0.0,0.0,0.0,0.0,0.0,0.0,0.0,0.0,0.0,0.0,0.0,0.0,0.0,0.0,0.0,0.0,0.0,0.0,0.0,0.0,0.0,0.0,0.0,0.0,0.0,0.0,0.0,0.0,0.0,0.0,0.0,0.0,0.0,0.0,0.0,0.0,0.0,0.0,0.0,0.0,0.9766,0.98,0.9866,0.9952,0.9481,0.913,0.0,0.0,0.0,0.0,0.0,0.0,0.0,0.0,0.0,0.0,0.0,0.0,0.0,0.0,0.0,0.0,0.0,0.0,0.0,0.0,0.0,0.0,0.0,0.0,0.0,0.0,0.0,0.0,0.0,0.0,0.0,0.0,0.0,0.0,0.0,0.0,0.0,0.0,0.0,0.0,0.0,0.0,0.0,0.0,0.0,0.0,0.0,0.0,0.0,0.0,0.0,0.0,0.0,0.0,0.0,0.0,0.0,0.0,0.0,0.0,0.0,0.0,0.0,0.0,0.0,0.0,0.0,0.0,0.0,0.0,0.0,0.0,0.0,0.0,0.0,0.0,0.0,0.0,0.0,0.0,0.0,0.0,0.0,0.0,0.0,0.0,0.0,0.0,0.0,0.0,0.0,0.0,0.0,0.0,0.0,0.0,0.0,0.0,0.0,0.0,0.0,0.0,0.0,0.0,0.0,0.0,0.0,0.0,0.0,0.9836,0.0,0.9931,0.9971,0.9493,0.9002,0.0,0.0,0.0,0.0,0.0,0.0,0.0,0.0,0.0,0.0,0.0,0.0,0.0,0.0,0.0,0.0,0.0,0.0,0.0,0.0,0.0,0.0,0.0,0.0,0.0,0.0,0.0,0.0,0.0,0.0,0.0,0.0,0.0,0.0,0.0,0.0,0.0,0.0,0.0,0.0,0.0,0.0,0.0,0.0,0.0,0.0,0.0,0.0,0.0,0.0,0.0,0.0,0.0,0.0,0.0,0.0,0.0,0.0,0.0,0.0,0.0,0.0,0.0,0.0,0.0,0.0,0.0,0.0,0.0,0.0,0.0,0.0,0.0,0.0,0.0,0.0,0.0,0.0,0.0,0.0,0.0,0.0,0.0,0.0,0.0,0.0,0.0,0.0,0.0,0.0,0.0,0.0,0.0,0.0,0.0,0.0,0.0,0.0,0.0,0.0,0.0,0.0,0.0,0.0,0.0,0.0,0.0,0.0,0.9861,0.991,0.9935,1.0017,1.0032,1.0007,0.9288,0.0,0.0,0.0,0.0,0.0,0.0,0.0,0.0,0.0,0.0,0.0,0.0,0.0,0.0,0.0,0.0,0.0,0.0,0.0,0.0,0.0,0.0,0.0,0.0,0.0,0.0,0.0,0.0,0.0,0.0,0.0,0.0,0.0,0.0,0.0,0.0,0.0,0.0,0.0,0.0,0.0,0.0,0.0,0.0,0.0,0.0,0.0,0.0,0.0,0.0,0.0,0.0,0.0,0.0,0.0,0.0,0.0,0.0,0.0,0.0,0.0,0.0,0.0,0.0,0.0,0.0,0.0,0.0,0.0,0.0,0.0,0.0,0.0,0.0,0.0,0.0,0.0,0.0,0.0,0.0,0.0,0.0,0.0,0.0,0.0,0.0,0.0,0.0,0.0,0.0,0.0,0.0,0.0,0.0,0.0,0.0,0.0,0.0,0.0,0.0,0.0,0.0,0.0,0.0,0.0,0.0,0.0,0.0,0.0,1.0057,1.0582,1.0902,1.0916,0.9821,0.9251,0.0,0.0,0.0,0.0,0.0,0.0,0.0,0.0,0.0,0.0,0.0,0.0,0.0,0.0,0.0,0.0,0.0,0.0,0.0,0.0,0.0,0.0,0.0,0.0,0.0,0.0,0.0,0.0,0.0,0.0,0.0,0.0,0.0,0.0,0.0,0.0,0.0,0.0,0.0,0.0,0.0,0.0,0.0,0.0,0.0,0.0,0.0,0.0,0.0,0.0,0.0,0.0,0.0,0.0,0.0,0.0,0.0,0.0,0.0,0.0,0.0,0.0,0.0,0.0,0.0,0.0,0.0,0.0,0.0,0.0,0.0,0.0,0.0,0.0,0.0,0.0,0.0,0.0,0.0,0.0,0.0,0.0,0.0,0.0,0.0,0.0,0.0,0.0,0.0,0.0,0.0,0.0,0.0,0.0,0.0,0.0,0.0,0.0,0.0,0.0,0.0,0.0,0.0,0.0,0.0,0.0,0.0,0.0,0.0,1.1115,1.1506,1.164,1.1424,1.0353,0.9717,0.963,0.0,0.0,0.0,0.0,0.0,0.0,0.0,0.0,0.0,0.0,0.0,0.0,0.0,0.0,0.0,0.0,0.0,0.0,0.0,0.0,0.0,0.0,0.0,0.0,0.0,0.0,0.0,0.0,0.0,0.0,0.0,0.0,0.0,0.0,0.0,0.0,0.0,0.0,0.0,0.0,0.0,0.0,0.0,0.0,0.0,0.0,0.0,0.0,0.0,0.0,0.0,0.0,0.0,0.0,0.0,0.0,0.0,0.0,0.0,0.0,0.0,0.0,0.0,0.0,0.0,0.0,0.0,0.0,0.0,0.0,0.0,0.0,0.0,0.0,0.0,0.0,0.0,0.0,0.0,0.0,0.0,0.0,0.0,0.0,0.0,0.0,0.0,0.0,0.0,0.0,0.0,0.0,0.0,0.0,0.0,0.0,0.0,0.0,0.0,0.0,0.0,0.0,0.0,0.0,0.0,0.0,0.0,0.0,1.2702,1.2718,1.239,1.1696,1.1521,1.0732,0.0,0.0,0.0,0.0,0.0,0.0,0.0,0.0,0.0,0.0,0.0,0.0,0.0,0.0,0.0,0.0,0.0,0.0,0.0,0.0,0.0,0.0,0.0,0.0,0.0,0.0,0.0,0.0,0.0,0.0,0.0,0.0,0.0,0.0,0.0,0.0,0.0,0.0,0.0,0.0,0.0,0.0,0.0,0.0,0.0,0.0,0.0,0.0,0.0,0.0,0.0,0.0,0.0,0.0,0.0,0.0,0.0,0.0,0.0,0.0,0.0,0.0,0.0,0.0,0.0,0.0,0.0,0.0,0.0,0.0,0.0,0.0,0.0,0.0,0.0,0.0,0.0,0.0,0.0,0.0,0.0,0.0,0.0,0.0,0.0,0.0,0.0,0.0,0.0,0.0,0.0,0.0,0.0,0.0,0.0,0.0,0.0,0.0,0.0,0.0,0.0,0.0,0.0,0.0,0.0,0.0,0.0,0.0,0.0,1.2797,1.4492,1.5046,1.4229,1.3004,1.2161,0.0,0.0,0.0,0.0,0.0,0.0,0.0,0.0,0.0,0.0,0.0,0.0,0.0,0.0,0.0,0.0,0.0,0.0,0.0,0.0,0.0,0.0,0.0,0.0,0.0,0.0,0.0,0.0,0.0,0.0,0.0,0.0,0.0,0.0,0.0,0.0,0.0,0.0,0.0,0.0,0.0,0.0,0.0,0.0,0.0,0.0,0.0,0.0,0.0,0.0,0.0,0.0,0.0,0.0,0.0,0.0,0.0,0.0,0.0,0.0,0.0,0.0,0.0,0.0,0.0,0.0,0.0,0.0,0.0,0.0,0.0,0.0,0.0,0.0,0.0,0.0,0.0,0.0,0.0,0.0,0.0,0.0,0.0,0.0,0.0,0.0,0.0,0.0,0.0,0.0,0.0,0.0,0.0,0.0,0.0,0.0,0.0,0.0,0.0,0.0,0.0,0.0,0.0,0.0,0.0,0.0,0.0,0.0,1.3503,1.3776,1.5562,1.6253,1.5752,1.4448,1.3409,0.0,0.0,0.0,0.0,0.0,0.0,0.0,0.0,0.0,0.0,0.0,0.0,0.0,0.0,0.0,0.0,0.0,0.0,0.0,0.0,0.0,0.0,0.0,0.0,0.0,0.0,0.0,0.0,0.0,0.0,0.0,0.0,0.0,0.0,0.0,0.0,0.0,0.0,0.0,0.0,0.0,0.0,0.0,0.0,0.0,0.0,0.0,0.0,0.0,0.0,0.0,0.0,0.0,0.0,0.0,0.0,0.0,0.0,0.0,0.0,0.0,0.0,0.0,0.0,0.0,0.0,0.0,0.0,0.0,0.0,0.0,0.0,0.0,0.0,0.0,0.0,0.0,0.0,0.0,0.0,0.0,0.0,0.0,0.0,0.0,0.0,0.0,0.0,0.0,0.0,0.0,0.0,0.0,0.0,0.0,0.0,0.0,0.0,0.0,0.0,0.0,0.0,0.0,0.0,0.0,0.0,0.0,0.0,1.3678,1.5154,1.6062,1.6505,1.6487,1.5657,1.4408,0.0,0.0,0.0,0.0,0.0,0.0,0.0,0.0,0.0,0.0,0.0,0.0,0.0,0.0,0.0,0.0,0.0,0.0,0.0,0.0,0.0,0.0,0.0,0.0,0.0,0.0,0.0,0.0,0.0,0.0,0.0,0.0,0.0,0.0,0.0,0.0,0.0,0.0,0.0,0.0,0.0,0.0,0.0,0.0,0.0,0.0,0.0,0.0,0.0,0.0,0.0,0.0,0.0,0.0,0.0,0.0,0.0,0.0,0.0,0.0,0.0,0.0,0.0,0.0,0.0,0.0,0.0,0.0,0.0,0.0,0.0,0.0,0.0,0.0,0.0,0.0,0.0,0.0,0.0,0.0,0.0,0.0,0.0,0.0,0.0,0.0,0.0,0.0,0.0,0.0,0.0,0.0,0.0,0.0,0.0,0.0,0.0,0.0,0.0,0.0,0.0,0.0,0.0,0.0,0.0,0.0,0.0,0.0,1.4849,1.521,1.6062,1.6505,1.6486,1.5654,1.4405,0.0,0.0,0.0,0.0,0.0,0.0,0.0,0.0,0.0,0.0,0.0,0.0,0.0,0.0,0.0,0.0,0.0,0.0,0.0,0.0,0.0,0.0,0.0,0.0,0.0,0.0,0.0,0.0,0.0,0.0,0.0,0.0,0.0,0.0,0.0,0.0,0.0,0.0,0.0,0.0,0.0,0.0,0.0,0.0,0.0,0.0,0.0,0.0,0.9976,0.0,0.0,0.0,0.0,0.0,0.0,0.0,0.0,0.0,0.0,0.0,0.0,0.0,0.0,0.0,0.0,0.0,0.0,0.0,0.0,0.0,0.0,0.0,0.0,0.0,0.0,0.0,0.0,0.0,0.0,0.0,0.0,0.0,0.0,0.0,0.0,0.0,0.0,0.0,0.0,0.0,0.0,0.0,0.0,0.0,0.0,0.0,0.0,0.0,0.0,0.0,0.0,0.0,0.0,0.0,0.0,0.0,0.0,0.0,1.4787,1.521,1.5654,1.5886,1.5886,1.5827,1.5001,0.0,0.0,0.0,0.0,0.0,0.0,0.0,0.0,0.0,0.0,0.0,0.0,0.0,0.0,0.0,0.0,0.0,0.0,0.0,0.0,0.0,0.0,0.0,0.0,0.0,0.0,0.0,0.0,0.0,0.0,0.0,0.0,0.0,0.0,0.0,0.0,0.0,0.0,0.0,0.0,0.0,0.0,0.0,0.0,0.0,0.0,0.0,0.0,0.0,0.0,0.0,0.0,0.0,0.0,0.0,0.0,0.0,0.0,0.0,0.0,0.0,0.0,0.0,0.0,0.0,0.0,0.0,0.0,0.0,0.0,0.0,0.0,0.0,0.0,0.0,0.0,0.0,0.0,0.0,0.0,0.0,0.0,0.0,0.0,0.0,0.0,0.0,0.0,0.0,0.0,0.0,0.0,0.0,0.0,0.0,0.0,0.0,0.0,0.0,0.0,0.0,0.0,0.0,0.0,0.0,0.0,0.0,1.3632,1.44,1.5346,1.5268,1.5194,1.521,1.6157,1.5728,1.379,0.0,0.0,0.0,0.0,0.0,0.0,0.0,0.0,0.0,0.0,0.0,0.0,0.0,0.0,0.0,0.0,0.0,0.0,0.0,0.0,0.0,0.0,0.0,0.0,0.0,0.0,0.0,0.0,0.0,0.0,0.0,0.0,0.0,0.0,0.0,0.0,0.0,0.0,0.7957,0.927,0.0,0.0,0.0,0.0,0.0,0.0,0.0,0.0,1.0371,0.0,0.0,0.0,0.0,0.0,0.0,0.0,0.0,0.0,0.0,0.0,0.0,0.0,0.0,0.0,0.0,0.0,0.0,0.0,0.0,0.0,0.0,0.0,0.0,0.0,0.0,0.0,0.0,0.0,0.0,0.0,0.0,0.0,0.0,0.0,0.0,0.0,0.0,0.0,0.0,0.0,0.0,0.0,0.0,0.0,0.0,0.0,0.0,0.0,0.0,0.0,0.0,0.0,0.0,0.0,0.0,1.4753,1.4207,1.467,1.6216,1.558,1.5194,1.5231,1.6696,1.6002,1.299,0.0,0.0,0.0,0.0,0.0,0.0,0.0,0.0,0.0,0.0,0.0,0.0,0.0,0.0,0.0,0.0,0.0,0.0,0.0,0.0,0.0,0.0,0.0,0.0,0.0,0.0,0.0,0.0,0.0,0.0,0.0,0.0,0.0,0.0,0.0,0.0,0.0,0.0,0.0,1.0015,1.0906,0.0,0.0,0.0,0.0,0.0,0.0,0.0,0.0,1.0472,0.0,0.0,0.0,0.0,0.0,0.0,0.0,0.0,0.0,0.0,0.0,0.0,0.0,0.0,0.0,0.0,0.0,0.0,0.0,0.0,0.0,0.0,0.0,0.0,0.0,0.0,0.0,0.0,0.0,0.0,0.0,0.0,0.0,0.0,0.0,0.0,0.0,0.0,0.0,0.0,0.0,0.0,0.0,0.0,0.0,0.0,0.0,0.0,0.0,0.0,0.0,0.0,0.0,0.0,0.0,1.3908,1.4791,1.5442,1.5811,1.5405,1.5194,1.5213,1.5982,1.5203,0.0,0.0,0.0,0.0,0.0,0.0,0.0,0.0,0.0,0.0,0.0,0.0,0.0,0.0,0.0,0.0,0.0,0.0,0.0,0.0,0.0,0.0,0.0,0.0,0.0,0.0,0.0,0.0,0.0,0.0,0.0,0.0,0.0,0.0,0.0,0.0,0.0,0.0,0.0,0.0,1.1011,1.1722,1.1705,0.0,0.0,0.0,0.0,0.0,0.0,1.1322,1.0825,0.0,0.0,0.0,0.0,0.0,0.0,0.0,0.0,0.0,0.0,0.0,0.0,0.0,0.0,0.0,0.0,0.0,0.0,0.0,0.0,0.0,0.0,0.0,0.0,0.0,0.0,0.0,0.0,0.0,0.0,0.0,0.0,0.0,0.0,0.0,0.0,0.0,0.0,0.0,0.0,0.0,0.0,0.0,0.0,0.0,0.0,0.0,0.0,0.0,0.0,0.0,0.0,0.0,0.0,0.0,1.2797,1.5024,1.5908,1.5231,1.5194,1.5194,1.5194,1.5386,1.4593,0.0,0.0,0.0,0.0,0.0,0.0,0.0,0.0,0.0,0.0,0.0,0.0,0.0,0.0,0.0,0.0,0.0,0.0,0.0,0.0,0.0,0.0,0.0,0.0,0.0,0.0,0.0,0.0,0.0,0.0,0.0,0.0,0.0,0.0,0.0,0.0,0.0,0.0,0.0,0.0,0.0,1.2791,1.2293,1.2381,0.0,0.0,0.0,0.0,1.2817,1.2318,0.0,0.0,0.0,0.0,0.0,0.0,0.0,0.0,0.0,0.0,0.0,0.0,0.0,0.0,0.0,0.0,0.0,0.0,0.0,0.0,0.0,0.0,0.0,0.0,0.0,0.0,0.0,0.0,0.0,0.0,0.0,0.0,0.0,0.0,0.0,0.0,0.0,0.0,0.0,0.0,0.0,0.0,0.0,0.0,0.0,0.0,0.0,0.0,0.0,0.0,0.0,0.0,0.0,0.0,0.0,0.0,1.2759,1.4426,1.5308,1.5212,1.5194,1.5194,1.5213,1.5945,1.5152,0.0,0.0,0.0,0.0,0.0,0.0,0.0,0.0,0.0,0.0,0.0,0.0,0.0,0.0,0.0,0.0,0.0,0.0,0.0,0.0,0.0,0.0,0.0,0.0,0.0,0.0,0.0,0.0,0.0,0.0,0.0,0.0,0.0,0.0,0.0,0.0,0.0,0.0,0.0,0.0,0.0,1.4428,1.2251,1.2703,1.3235,0.0,0.0,1.3629,1.5008,1.4593,0.0,0.0,0.0,0.0,0.0,0.0,0.0,0.0,0.0,0.0,0.0,0.0,0.0,0.0,0.0,0.0,0.0,0.0,0.0,0.0,0.0,0.0,0.0,0.0,0.0,0.0,0.0,0.0,0.0,0.0,0.0,0.0,0.0,0.0,0.0,0.0,0.0,0.0,0.0,0.0,0.0,0.0,0.0,0.0,0.0,0.0,0.0,0.0,0.0,0.0,0.0,0.0,0.0,0.0,0.0,1.3658,1.2837,1.5293,1.6154,1.5231,1.5194,1.5194,1.5194,1.5095,1.4258,0.0,0.0,0.0,0.0,0.0,0.0,0.0,0.0,0.0,0.0,0.0,0.0,0.0,0.0,0.0,0.0,0.0,0.0,0.0,0.0,0.0,0.0,0.0,0.0,0.0,0.0,0.0,0.0,0.0,0.0,0.0,0.0,0.0,0.0,0.0,0.0,0.0,0.0,0.0,0.0,0.0,0.0,1.3663,1.4191,0.0,0.0,0.0,1.5017,1.6067,0.0,0.0,0.0,0.0,0.0,0.0,0.0,0.0,0.0,0.0,0.0,0.0,0.0,0.0,0.0,0.0,0.0,0.0,0.0,0.0,0.0,0.0,0.0,0.0,0.0,0.0,0.0,0.0,0.0,0.0,0.0,0.0,0.0,0.0,0.0,0.0,0.0,0.0,0.0,0.0,0.0,0.0,0.0,0.0,0.0,0.0,0.0,0.0,0.0,0.0,0.0,0.0,0.0,0.0,0.0,0.0,0.0,1.2799,1.5988,1.6889,1.5269,1.5194,1.5194,1.5194,1.4574,0.0,0.0,0.0,0.0,0.0,0.0,0.0,0.0,0.0,0.0,0.0,0.0,0.0,0.0,0.0,0.0,0.0,0.0,0.0,0.0,0.0,0.0,0.0,0.0,0.0,0.0,0.0,0.4564,0.0,0.0,0.0,0.0,0.0,0.0,0.0,0.0,0.0,0.0,0.0,0.0,0.0,0.0,1.4306,1.45,1.553,1.6428,0.0,0.0,1.6455,1.6985,1.6622,1.5411,0.0,0.0,0.0,0.0,0.0,0.0,0.0,0.0,0.0,0.0,0.0,0.0,0.0,0.0,0.0,0.0,0.0,0.0,0.0,0.0,0.0,0.0,0.0,0.0,0.0,0.0,0.0,0.0,0.0,0.0,0.0,0.0,0.0,0.0,0.0,0.0,0.0,0.0,0.0,0.0,0.0,0.0,0.0,0.0,0.0,0.0,0.0,0.0,0.0,0.0,0.0,0.0,0.0,0.0,1.4367,1.2874,1.6008,1.6889,1.5271,1.5194,1.5194,1.5194,1.5135,1.4348,0.0,0.0,0.0,0.0,0.0,0.0,0.0,0.0,0.0,0.0,0.0,0.0,0.0,0.0,0.0,0.0,0.0,0.0,0.0,0.0,0.0,0.0,0.0,0.0,0.0,0.0,0.0,0.0,0.0,0.0,0.0,0.0,0.0,0.0,0.0,0.0,0.0,0.0,0.0,0.0,0.0,1.575,1.3786,1.6157,1.8196,0.0,1.8268,1.8105,1.8096,1.8051,1.6949,1.3824,0.0,0.0,0.0,0.0,0.0,0.0,0.0,0.0,0.0,0.0,0.0,0.0,0.0,0.0,0.0,0.0,0.0,0.0,0.0,0.0,0.0,0.0,0.0,0.0,0.0,0.0,0.0,0.0,0.0,0.0,0.0,0.0,0.0,0.0,0.0,0.0,0.0,0.0,0.0,0.0,0.0,0.0,0.0,0.0,0.0,0.0,0.0,0.0,0.0,0.0,0.0,0.0,0.0,1.4387,1.2779,1.6009,1.6889,1.529,1.5194,1.5194,1.5194,1.5713,1.4931,0.0,0.0,0.0,0.0,0.0,0.0,0.0,0.0,0.0,0.0,0.0,0.0,0.0,0.0,0.0,0.0,0.0,0.0,0.0,0.0,0.0,0.0,0.0,0.0,0.0,0.0,0.0,0.0,0.6033,0.6252,0.7273,0.0,0.0,0.0,0.0,0.0,0.0,0.0,0.0,0.0,0.0,1.6407,1.6136,1.7463,0.0,0.0,1.9387,1.8813,1.974,1.8638,1.7104,1.5336,1.4305,0.0,0.0,0.0,0.0,0.0,0.0,0.0,0.0,0.0,0.0,0.0,0.0,0.0,0.0,0.0,0.0,0.0,0.0,0.0,0.0,0.0,0.0,0.0,0.0,0.0,0.0,0.0,0.0,0.0,0.0,0.0,0.0,0.0,0.0,0.0,0.0,0.0,0.0,0.0,0.0,0.0,0.0,0.0,0.0,0.0,0.0,0.0,0.0,0.0,0.0,0.0,0.0,1.4636,1.3467,1.6505,1.7411,1.5962,1.5713,1.5578,1.5595,1.5925,1.5098,0.0,0.0,0.0,0.0,0.0,0.0,0.0,0.0,0.0,0.0,0.0,0.0,0.0,0.0,0.0,0.0,0.0,0.0,0.0,0.0,0.0,0.0,0.0,0.0,0.0,0.0,0.0,0.0,0.7021,0.7235,0.7744,0.0,0.0,0.0,0.0,0.0,0.0,0.0,0.0,0.0,0.0,1.7175,1.8393,1.9079,2.0059,2.1801,2.0558,1.9728,2.0548,1.9308,1.7759,1.6395,0.0,0.0,0.0,0.0,0.0,0.0,0.0,0.0,0.0,0.0,0.0,0.0,0.0,0.0,0.0,0.0,0.0,0.0,0.0,0.0,0.0,0.0,0.0,0.0,0.0,0.0,0.0,0.9808,0.0,0.0,0.9783,0.0,0.0,0.0,0.0,0.0,0.0,0.0,0.0,0.0,0.0,0.0,0.0,0.0,0.0,0.0,0.0,0.0,0.0,0.0,0.0,0.0,0.0,1.5175,1.5175,1.7624,1.853,1.7643,1.6869,1.6466,1.6447,1.5675,1.4805,1.3894,0.0,0.0,0.0,0.0,0.0,0.0,0.0,0.0,0.0,0.0,0.0,0.0,0.0,0.0,0.0,0.0,0.0,0.0,0.0,0.0,0.0,0.0,0.0,0.0,0.0,0.0,0.7711,0.7778,0.7802,0.0,0.0,0.0,0.0,0.0,0.0,0.0,0.0,0.0,0.0,1.7013,1.82,2.0044,2.0895,2.1565,2.2424,2.1835,2.1064,2.0373,2.0156,1.9291,0.0,0.0,0.0,0.0,0.0,0.0,0.0,0.0,0.0,0.0,0.0,0.0,0.0,0.0,0.0,0.0,0.0,0.0,0.0,0.0,0.0,0.0,0.0,0.0,0.0,0.0,0.0,1.2177,1.1544,0.0,0.0,0.0,0.0,0.0,0.0,0.0,0.0,0.0,0.0,0.0,1.5236,1.5541,0.0,0.0,0.0,0.0,0.0,0.0,0.0,0.0,0.0,0.0,0.0,0.0,1.5232,1.538,1.7726,1.8589,1.772,1.6926,1.6505,1.6505,1.6213,1.5638,1.4715,0.0,0.0,0.0,0.0,0.0,0.0,0.0,0.0,0.0,0.0,0.0,0.0,0.0,0.0,0.0,0.0,0.0,0.0,0.0,0.0,0.0,0.0,0.0,0.0,0.0,0.8265,0.0,0.0,0.0,0.0,0.0,0.0,0.0,0.0,0.0,0.0,0.0,1.5638,1.6489,1.878,2.0447,2.0705,2.1246,2.1642,0.0,0.0,0.0,0.0,0.0,0.0,0.0,0.0,0.0,0.0,0.0,0.0,0.0,0.0,1.9484,1.5795,1.4428,1.3863,1.3863,0.0,0.0,0.0,0.0,0.0,0.0,0.0,0.0,0.0,0.0,0.0,0.0,0.0,0.0,1.416,0.0,1.3471,0.0,0.0,0.0,0.0,0.0,0.0,0.0,0.0,1.6054,1.6809,1.7088,1.7424,1.7424,0.0,1.6967,1.5571,0.0,0.0,0.0,0.0,0.0,0.0,0.0,0.0,1.6004,1.671,1.8482,1.9173,1.8593,1.7789,1.7213,1.6909,1.6349,1.5621,1.4697,1.3452,1.2376,0.0,0.0,0.0,0.0,0.0,0.0,0.0,0.0,0.0,0.0,0.0,0.0,0.0,0.0,0.0,0.0,0.0,0.0,0.0,0.0,0.0,0.0,0.0,0.8913,0.0,0.0,0.0,0.0,0.0,0.0,0.0,0.0,0.0,1.2283,1.4821,1.7042,1.7898,1.992,2.14,2.1602,0.0,0.0,0.0,0.0,0.0,0.0,0.0,2.082,2.1493,2.05,1.9455,1.8945,1.7711,1.8058,2.1821,0.0,0.0,1.8488,1.709,1.6515,1.6493,1.71,1.7525,1.7322,1.8407,1.9291,0.0,0.0,0.0,0.0,0.0,0.0,0.0,0.0,1.5615,1.5917,0.0,1.5608,0.0,0.0,0.0,0.0,0.0,1.6552,0.0,0.0,1.8956,1.9624,1.8956,1.9823,1.9833,1.9131,1.9939,1.9086,1.6654,1.4875,0.0,0.0,0.0,0.0,0.0,0.0,1.7484,1.9094,1.9887,2.0291,2.023,1.9438,1.8542,1.7622,1.6096,1.4862,1.4008,1.3766,1.3289,1.2495,1.0811,0.0,0.0,0.0,0.0,0.0,0.0,0.0,0.0,0.0,0.0,0.0,0.0,0.0,0.0,0.0,0.0,0.0,0.0,0.0,0.0,0.8911,0.0,0.0,0.0,0.0,0.0,0.0,0.0,0.0,0.0,0.0,1.5686,1.6405,1.7771,2.0179,0.0,0.0,0.0,0.0,2.2423,2.3878,2.3506,2.3024,2.2992,2.2974,2.2712,2.2014,0.0,0.0,1.9649,2.1396,2.2562,2.1063,2.2706,2.3978,2.3221,2.175,2.0853,2.0835,2.0312,2.0256,2.0906,2.1658,2.2574,2.2204,0.0,0.0,0.0,0.0,1.9232,1.9672,2.0781,2.0135,1.9298,1.8385,1.8138,0.0,0.0,0.0,0.0,0.0,0.0,1.8697,2.0239,2.0915,2.1397,2.1766,2.2049,2.2076,2.1825,2.1481,2.0956,2.0149,1.8493,1.6404,1.4039,0.0,0.0,0.0,0.0,1.8095,1.9185,1.9983,2.0342,2.0292,1.9496,1.834,1.6893,1.6388,1.5715,1.4864,1.4677,1.4483,1.417,1.3054,0.0,0.0,0.0,0.0,0.0,0.0,0.0,0.0,0.0,0.0,0.0,0.0,0.0,0.0,0.0,0.0,0.0,0.0,0.0,0.9029,0.9124,0.9673,0.0,0.0,0.0,0.0,0.0,0.0,0.0,0.0,0.0,1.8251,1.9541,2.0596,0.0,0.0,2.3309,2.3786,2.3657,2.3474,2.3359,2.3639,0.0,2.3079,2.3121,2.3269,2.347,2.3694,2.3579,2.284,2.3361,2.3742,2.3233,2.373,2.4118,2.3885,2.2653,2.1648,2.158,2.184,2.2149,2.2422,2.3145,2.3767,2.5624,2.337,2.2669,2.2689,2.312,2.2278,2.2501,2.3412,2.2546,2.1795,2.113,2.0774,1.98,1.834,1.8046,0.0,0.0,0.0,2.0767,2.2263,2.2226,2.2498,2.3019,2.3038,2.3033,2.3021,2.2513,2.2271,2.2237,2.1555,1.9832,1.7147,0.0,0.0,1.6945,1.7941,1.8879,1.9719,2.0221,2.0423,2.0373,1.955,1.8424,1.7029,1.6659,1.6082,1.525,1.5077,1.4983,1.4937,1.402,1.3098,0.0,0.0,0.0,0.0,0.0,0.0,0.0,0.0,0.0,0.0,0.0,0.6962,0.5668,0.0,0.0,0.0,0.9289,1.0268,1.0581,1.0959,0.0,0.0,0.0,0.0,0.0,0.0,0.0,1.675,1.7597,1.8523,1.9982,2.1209,2.197,2.1993,2.2835,2.366,2.4278,0.0,2.3848,2.3677,2.4086,2.4286,2.3781,2.3821,2.4029,2.4378,2.4449,2.4366,2.4223,2.4194,2.4247,2.4397,2.4449,2.4449,2.4431,2.3573,2.2841,2.2767,2.3148,2.3451,2.3469,2.3873,2.4194,2.7846,2.8008,2.6489,2.5787,2.5622,2.4848,2.4503,2.4419,2.3661,2.365,2.4131,2.3367,2.2994,2.2858,2.214,0.0,2.1941,2.272,2.3096,2.3197,2.3197,2.3228,2.3269,2.3291,2.3286,2.33,2.3222,2.3183,2.3212,2.3852,2.342,2.1879,1.9499,1.868,1.9384,1.9472,1.9902,2.0703,2.0637,2.0587,2.0488,1.9653,1.8742,1.7735,1.6981,1.6165,1.5247,1.5064,1.5035,1.5064,1.4154,1.3277,1.2537,0.0,0.0,0.0,0.0,0.0,0.0,0.0,0.0,0.0,0.0,0.0,0.0,0.0,0.0,0.0,1.1021,0.0,1.2881,1.3612,0.0,0.0,0.0,1.3691,1.4804,1.5572,1.6389,1.7398,0.0,0.0,2.1013,2.1743,2.2274,2.2328,2.235,2.2924,2.4389,2.4061,2.3859,2.4477,2.4697,2.4797,2.4689,2.4703,2.4733,2.4781,2.4811,2.4654,2.4366,2.4271,2.4405,2.4712,2.4825,2.4825,2.4808,2.4556,2.4465,2.4229,2.4173,2.4176,2.4158,2.4176,2.4194,2.9229,2.9289,2.9036,2.8313,2.7328,2.7116,2.7048,2.7081,2.687,2.6176,2.516,2.4955,2.4157,2.2961,2.2721,2.2973,2.3627,2.3835,2.427,2.4902,2.4904,2.4912,2.4925,2.4924,2.493,2.4884,2.4258,2.3968,2.3995,2.3587,2.3201,2.2851,2.2187,2.1659,2.1269,2.1269,2.1387,2.1602,2.1582,2.1206,2.0508,2.0229,1.9359,1.7828,1.7574,1.677,1.5272,1.5174,1.5393,1.5878,1.511,1.4548,1.4275,1.282,0.0,0.0,0.0,0.0,0.0,0.0,0.0,0.0,0.0,1.0304,0.8261,0.0,1.1659,0.0,1.2902,1.3683,1.3248,1.3471,0.0,0.0,1.4956,1.555,1.8217,1.7651,1.7823,1.9853,2.0232,2.0544,2.1086,2.2031,2.2661,2.2683,2.2996,2.3553,2.4453,2.4576,2.4564,2.4776,2.4824,2.4804,2.4815,2.4804,2.4842,2.4949,2.4864,2.4797,2.4744,2.4701,2.4708,2.4871,2.5036,2.5055,2.4842,2.4757,2.4719,2.4643,2.4423,2.4194,2.4194,2.4218,2.4218,3.0147,3.0218,2.9964,2.9418,2.8687,2.8504,2.8471,2.8468,2.7982,2.725,2.6377,2.6394,2.5925,2.5197,2.5131,2.5394,2.5828,2.5843,2.6104,2.654,2.6174,2.6001,2.6019,2.5636,2.5481,2.5491,2.5001,2.4803,2.4811,2.4401,2.4199,2.4218,2.3788,2.3554,2.3477,2.283,2.2461,2.2422,2.207,2.1443,2.0547,2.0471,1.9802,1.8476,1.8414,1.7786,1.64,1.6377,1.635,1.6315,1.5846,1.5392,1.5005,1.4015,1.3283,0.0,0.0,0.0,0.0,0.0,0.0,0.0,0.0,0.0,0.0,0.0,1.3518,1.3906,1.4712,1.5325,1.5625,1.6062,1.6695,1.7628,1.7027,1.7419,1.9567,1.8724,1.8676,2.0359,2.0344,2.0327,2.0757,2.1632,2.2372,2.2737,2.3358,2.4046,2.4736,2.4987,2.5031,2.5084,2.5049,2.5012,2.5012,2.5012,2.5043,2.5094,2.5069,2.505,2.5084,2.503,2.5053,2.509,2.52,2.5265,2.5049,2.4949,2.4887,2.485,2.4663,2.4625,2.4943,2.499,2.49,3.0803,3.0889,3.0146,2.9826,2.98,2.9363,2.9178,2.9112,2.8184,2.7724,2.7591,2.7539,2.7625,2.7841,2.7885,2.789,2.789,2.789,2.789,2.7854,2.7123,2.6812,2.6828,2.6062,2.5705,2.5638,2.5638,2.5583,2.5479,2.5479,2.5484,2.5471,2.4747,2.4747,2.5418,2.4162,2.3358,2.3105,2.2421,2.162,2.0708,2.0786,2.0365,1.9417,1.9357,1.8892,1.7868,1.781,1.747,1.674,1.6572,1.619,1.5491,1.5234,1.5108,0.0,1.4954,0.0,0.0,0.0,0.0,0.0,0.0,0.0,0.0,1.518,1.5639,1.6302,1.6496,1.7141,1.8496,1.926,1.9673,1.9679,1.9084,1.8971,1.9723,1.935,1.9249,1.9955,2.0272,2.0462,2.0513,2.1235,2.216,2.2934,2.3775,2.4526,2.513,2.5271,2.5269,2.5308,2.5308,2.5259,2.5264,2.5276,2.5274,2.5284,2.5274,2.5308,2.5279,2.5279,2.5303,2.5284,2.5284,2.5284,2.5305,2.5152,2.5059,2.505,2.4936,2.5039,2.5548,2.5804,2.5689,3.1273,3.1258,3.0684,3.0424,3.0394,2.9827,2.9585,2.9581,2.9381,2.8887,2.8196,2.7711,2.7535,2.758,2.7799,2.789,2.789,2.789,2.789,2.789,2.772,2.7675,2.766,2.7489,2.7056,2.64,2.6383,2.6043,2.5425,2.5415,2.5452,2.549,2.5334,2.5334,2.5492,0.0,0.0,0.0,2.2971,2.2474,2.1718,2.2324,2.191,2.0334,2.0235,0.0,1.7988,1.7888,1.7806,1.7663,1.7615,0.0,0.0,0.0,0.0,0.0,0.0,0.0,0.0,0.0,0.0,0.0,1.5415,1.5564,1.5923,1.7127,1.7694,1.7248,1.8331,1.9014,1.8769,1.8895,1.9051,1.913,1.9029,1.9259,2.0078,2.0077,2.0092,2.0224,2.0838,2.1271,2.1367,2.2622,2.3629,2.3794,2.4617,2.5166,2.5269,2.5301,2.5291,2.5308,2.5308,2.5308,2.5308,2.5308,2.5308,2.5308,2.5308,2.5308,2.5308,2.5308,2.5308,2.5308,2.5308,2.5308,2.5308,2.5266,2.5243,2.5232,2.5228,2.5162,2.5057,2.5563,2.6144,3.199,0.0,3.126,3.0986,0.0,3.066,3.0315,2.9934,2.9658,2.9298,2.8886,2.8561,2.8482,2.8594,2.8736,2.8802,2.8786,2.8881,2.8919,2.8925,2.8623,2.8489,2.8489,2.8085,2.7684,2.7255,2.7239,2.6824,2.6032,2.6002,2.58,2.5386,2.5406,2.5408,2.5406,2.5408,2.4826,2.3653,2.3247,2.2654,2.1832,2.1827,2.1423,2.0547,0.0,0.0,0.0,0.0,0.0,0.0,0.0,0.0,0.0,0.0,0.0,1.8284,1.749,1.6822,1.6458,1.6785,1.7197,1.7595,1.8082,1.8151,1.7627,1.8332,1.8822,1.8852,1.9213,1.9454,1.9531,1.9535,1.9579,1.9633,1.964,1.9833,2.0212,2.0288,2.0462,2.0846,2.1254,2.1637,2.21,2.3261,2.4097,2.4204,2.4881,2.5441,2.5411,2.5358,2.5348,2.5301,2.5308,2.5308,2.5308,2.5308,2.5308,2.5308,2.5308,2.5308,2.5308,2.5308,2.5308,2.5308,2.5308,2.5308,2.5308,2.5308,2.5308,2.5308,2.5308,2.5253,2.5118,2.5704,2.6839,3.2828,3.2736,3.1935,3.1629,3.1611,3.147,3.1023,3.0356,0.0,0.0,0.0,2.9377,2.9484,2.9657,2.9683,2.9705,2.9718,2.9873,2.995,2.9924,2.9449,2.9227,2.9215,2.8579,2.8214,2.8124,2.8107,2.7662,2.6851,2.6676,2.6233,2.5577,2.5363,2.5308,2.5308,2.5308,2.4994,2.4406,2.375,2.3004,2.2173,2.1497,2.1104,2.0948,2.0854,2.0722,2.052,2.0516,2.0194,1.9488,1.9448,1.9445,1.9436,1.9416,1.9702,2.0332,2.0255,1.9907,1.925,1.9809,1.9965,1.9443,2.0004,2.0022,1.9111,1.9157,1.9542,2.0264,1.9673,1.9599,2.0445,2.0539,2.0618,2.0738,2.0778,2.0799,2.078,2.078,2.1117,2.1646,2.1964,2.2262,2.2987,2.3885,2.4432,2.4521,2.5081,2.5528,2.5498,2.5431,2.5374,2.5337,2.5317,2.5308,2.5308,2.5308,2.5308,2.5308,2.5308,2.5308,2.5308,2.5308,2.5308,2.5308,2.5308,2.5308,2.5308,2.5308,2.5308,2.5308,2.5308,2.5308,2.5365,2.5978,2.7105,3.3642,3.3568,3.2773,3.2442,3.2381,3.1696,3.1354,3.1097,2.97,2.9074,2.9061,2.9299,2.9423,2.9454,2.963,2.9705,2.9705,2.9735,2.9748,2.9733,2.9654,2.9706,2.987,2.9756,2.9442,2.8964,2.8934,2.8508,2.772,2.6986,2.6522,2.6349,2.5673,2.5308,2.5308,2.5308,2.5245,2.5146,2.5111,2.4684,2.3865,2.3806,2.3403,2.2661,2.1982,2.1257,2.0537,2.0566,2.0527,2.0409,2.0409,2.0385,2.0329,2.0308,2.0353,2.0357,1.9752,1.9307,1.9231,1.9328,1.9636,2.0178,2.0331,2.0053,1.9289,1.9808,2.0251,2.0385,2.0285,2.0566,2.1367,2.1499,2.1771,2.2422,2.2599,2.2621,2.2537,2.2517,2.2574,2.2766,2.3472,2.3873,2.408,2.4753,2.5245,2.5313,2.5432,2.5575,2.5565,2.5469,2.5399,2.5379,2.5339,2.5298,2.5303,2.5308,2.5308,2.5308,2.5308,2.5308,2.5308,2.5308,2.5308,2.5308,2.5308,2.5308,2.5308,2.5308,2.5308,2.5308,2.5308,2.5308,2.5327,2.6022,2.6579,3.3807,3.3752,3.3396,3.325,3.3195,3.2394,3.2045,3.1935,3.0815,3.0038,2.9683,2.9785,2.9601,2.92,2.9272,2.9311,2.9334,2.9479,2.9547,2.9551,2.9643,2.9756,2.9829,2.9833,2.9756,2.9592,2.9599,2.9228,2.856,2.8143,2.7486,2.6618,2.5731,2.5308,2.5308,2.5308,2.5308,2.5308,2.4911,2.4519,2.4151,2.3737,2.3333,2.296,2.2612,2.2035,2.1178,2.1211,2.1047,2.056,2.0566,2.0586,2.0563,2.0562,2.054,2.0492,2.0161,1.9967,1.9948,1.9948,2.0318,2.1136,2.1215,2.1254,2.1315,2.1165,2.1095,2.1134,2.1526,2.1977,2.2369,2.2408,2.2565,2.2956,2.3016,2.3016,2.3016,2.3016,2.319,2.3615,2.4041,2.4468,2.4911,2.5286,2.5555,2.5558,2.5606,2.5644,2.5644,2.5586,2.5486,2.5446,2.5381,2.5357,2.5348,2.5331,2.5296,2.5308,2.5308,2.5308,2.5308,2.5308,2.5308,2.5308,2.5308,2.5308,2.5308,2.5308,2.5308,2.5308,2.5308,2.5308,2.5423,2.6327,2.7063,3.3807,3.3807,3.3807,3.3807,3.3745,3.314,3.2864,3.2791,3.2192,3.1501,3.0772,3.0558,3.002,2.9299,2.9268,2.9164,2.9058,2.9209,2.931,2.9336,2.9484,2.9584,2.9625,2.9644,2.9754,2.9977,2.9999,2.978,2.9414,2.9204,2.8357,2.6967,2.6214,2.5791,2.5596,2.5596,2.55,2.5269,2.4678,2.4375,2.4339,2.3585,2.3176,2.3164,2.3042,2.2671,2.2016,2.2027,2.1758,2.112,2.1125,2.1092,2.0897,2.1054,2.1074,2.0937,2.1094,2.1191,2.1191,2.1152,2.1445,2.209,2.2187,2.2461,2.2969,2.2641,2.2203,2.2124,2.2597,2.3046,2.3282,2.332,2.3395,2.3552,2.3611,2.3712,2.3632,2.3612,2.3824,2.4503,2.46,2.4874,2.5361,2.5596,2.5629,2.5633,2.5681,2.5703,2.5703,2.5659,2.5602,2.5551,2.5464,2.5408,2.5394,2.5363,2.5314,2.5303,2.5308,2.5308,2.5308,2.5308,2.5308,2.5308,2.5308,2.5308,2.5308,2.5308,2.5404,2.5577,2.5712,2.5791,2.6368,2.7063,2.7835,3.3807,3.3807,3.3807,3.3807,3.3788,3.3697,3.366,3.366,3.3593,3.3128,3.2295,3.1623,3.087,3.0149,3.0075,2.9726,2.9097,2.9034,2.9075,2.9075,2.9055,2.9192,2.9409,2.9419,2.9635,2.995,2.9984,3.0055,3.0133,2.9445,2.8662,2.7876,2.7681,2.7217,2.6577,2.6464,2.6099,2.5327,2.5231,2.5192,2.5154,2.4403,2.3987,2.3989,2.329,2.2888,2.2793,2.2861,2.2854,2.2781,2.2771,2.2498,2.1855,2.2419,2.2539,2.1875,2.25,2.2949,2.293,2.291,2.2852,2.2969,2.3047,2.3105,2.3223,2.3769,2.3809,2.3262,2.3066,2.3516,2.416,2.4258,2.4531,2.5117,2.5254,2.5468,2.5332,2.5449,2.5488,2.5546,2.5469,2.5605,2.5644,2.5684,2.5684,2.5664,2.5703,2.5703,2.5703,2.5703,2.5684,2.5644,2.5569,2.5488,2.543,2.5388,2.5358,2.5329,2.5291,2.5296,2.5296,2.5308,2.5308,2.5308,2.5308,2.5308,2.5308,2.5327,2.5577,2.6156,2.6483,2.6906,2.814,2.8242,2.7989,3.3807,3.3807,3.3807,3.3807,3.3807,3.3807,3.3807,3.3807,3.3807,3.3598,3.3311,3.2963,3.2125,3.0925,3.0907,3.0711,3.0393,2.9934,2.9708,2.9671,2.9225,2.9074,2.9138,2.9167,2.9329,2.9616,2.9638,2.9809,2.998,2.9459,2.8912,2.8585,2.8143,2.77,2.739,2.7373,2.6928,2.6099,2.606,2.5827,2.5324,2.5002,2.4812,2.4757,2.4505,2.4086,2.3676,2.3637,2.3445,2.2986,2.3008,2.2916,2.2589,2.2895,2.2944,2.2656,2.2969,2.3184,2.3144,2.3105,2.332,2.3828,2.3887,2.4082,2.4609,2.4961,2.5019,2.4727,2.4629,2.4805,2.5098,2.5176,2.5332,2.5644,2.5703,2.5703,2.5703,2.5703,2.5703,2.5703,2.5703,2.5703,2.5703,2.5703,2.5703,2.5703,2.5703,2.5703,2.5703,2.5703,2.5703,2.5703,2.5658,2.56,2.5536,2.5473,2.5436,2.5378,2.5357,2.5346,2.5301,2.5308,2.5308,2.5308,2.5308,2.5308,2.5308,2.5346,2.5558,2.6387,2.7198,2.7755,2.8876,2.8453,2.8316,3.3807,3.3807,3.3807,3.3807,3.3807,3.3807,3.3807,3.3807,3.3807,3.3807,3.3807,3.3807,3.3189,3.2125,3.1831,3.1629,3.1335,3.0797,3.0522,3.0448,2.9702,2.9341,2.9317,2.9078,2.9127,2.9361,2.9394,2.9616,2.9904,2.9599,2.9366,2.9346,2.8854,2.8451,2.8261,2.8222,2.7816,2.7024,2.6948,2.6541,2.5791,2.5654,2.5555,2.5327,2.5308,2.5022,2.4471,2.4422,2.4169,2.3593,2.3636,2.356,2.3392,2.3603,2.3765,2.3786,2.3826,2.3847,2.3828,2.3809,2.4082,2.4668,2.4746,2.5,2.5547,2.5703,2.5703,2.5644,2.5703,2.5644,2.5703,2.5703,2.5703,2.5703,2.5703,2.5703,2.5703,2.5703,2.5703,2.5703,2.5703,2.5703,2.5703,2.5703,2.5703,2.5703,2.5703,2.5703,2.5703,2.5703,2.5703,2.5703,2.5703,2.5662,2.5626,2.5559,2.5492,2.5431,2.5406,2.5373,2.5317,2.5293,2.5308,2.5308,2.5308,2.5308,2.5308,2.5346,2.5827,2.681,2.7775,2.864,2.9448,2.8909,2.9157,3.3807,3.3807,3.3807,3.3807,3.3807,3.3807,3.3807,3.3807,3.3807,3.3807,3.3807,3.3807,3.3752,3.355,3.2846,3.2155,3.1501,3.139,3.1335,3.1262,3.0522,3.0155,3.0093,2.9378,2.9139,2.9351,2.9361,2.9575,2.9943,2.9972,3.0089,3.0274,3.0139,2.9805,2.9165,2.9047,2.8646,2.7912,2.7832,2.7431,2.6678,2.6541,2.6154,2.5536,2.5308,2.5269,2.5195,2.5233,2.5183,2.5161,2.5154,2.4883,2.4252,2.4876,2.5309,2.5383,2.5428,2.5458,2.5469,2.543,2.5488,2.5586,2.5527,2.5625,2.5664,2.5703,2.5703,2.5703,2.5703,2.5703,2.5703,2.5703,2.5703,2.5703,2.5703,2.5703,2.5703,2.5703,2.5703,2.5703,2.5703,2.5703,2.5703,2.5703,2.5703,2.5703,2.5703,2.5703,2.5703,2.5703,2.5703,2.5703,2.5684,2.5663,2.5628,2.5602,2.5565,2.5523,2.5461,2.5405,2.5337,2.5308,2.5308,2.5308,2.5308,2.5308,2.5308,2.5714,2.6464,2.7522,2.9003,2.9907,2.9964,3.0231,3.0308,3.3807,3.3807,3.3807,3.3807,3.3807,3.3807,3.3807,3.3807,3.3807,3.3807,3.3807,3.3807,3.3807,3.377,3.3513,3.322,3.2908,3.2406,3.2167,3.2082,3.1329,3.0705,3.0191,2.9898,2.951,2.9184,2.9151,2.9312,2.9607,2.9733,2.9916,3.0115,3.014,3.0043,2.9947,2.9929,2.9506,2.8758,2.8662,2.8261,2.7508,2.7448,2.7274,2.6928,2.5887,2.5308,2.5308,2.5308,2.5308,2.5308,2.5334,2.5211,2.5009,2.5295,2.552,2.5542,2.5569,2.5626,2.5635,2.5663,2.5703,2.5703,2.5703,2.5703,2.5703,2.5703,2.5703,2.5703,2.5703,2.5703,2.5703,2.5703,2.5703,2.5703,2.5703,2.5703,2.5703,2.5703,2.5703,2.5703,2.5703,2.5703,2.5703,2.5703,2.5703,2.5703,2.5703,2.5703,2.5703,2.5703,2.5703,2.5703,2.5703,2.5683,2.5662,2.5661,2.5637,2.5596,2.5537,2.5477,2.5424,2.5314,2.5296,2.5365,2.5346,2.5964,2.6236,2.7159,2.7755,2.8236,2.9734,3.025,3.0385,3.0404,3.0404,3.4192,3.4149,3.3899,3.3807,3.3807,3.3807,3.3807,3.3807,3.3807,3.3807,3.3807,3.3807,3.3807,3.3807,3.3807,3.3807,3.3752,3.322,3.2993,3.2894,3.2155,3.1488,3.1011,3.0723,3.0295,2.9806,2.9482,2.9416,2.9411,2.9523,2.9713,2.9912,2.9965,3.0102,3.0254,3.0352,3.0077,2.9602,2.9509,2.9124,2.8393,2.8299,2.8165,2.7777,2.6736,2.6,2.5731,2.5459,2.5308,2.5308,2.5308,2.5327,2.5369,2.5418,2.545,2.5461,2.5538,2.557,2.5604,2.5661,2.5703,2.5703,2.5703,2.5703,2.5703,2.5703,2.5703,2.5703,2.5703,2.5703,2.5703,2.5703,2.5703,2.5703,2.5703,2.5703,2.5703,2.5703,2.5703,2.5703,2.5703,2.5703,2.5703,2.5703,2.5703,2.5703,2.5703,2.5703,2.5703,2.5703,2.5703,2.5703,2.5703,2.5703,2.582,2.5977,2.5879,2.582,2.582,2.5717,2.5621,2.5492,2.5344,2.5402,2.5945,2.6717,2.7566,2.8527,2.897,2.9162,2.9714,3.0346,3.0404,3.0404,3.0404,3.4997,3.4912,3.4167,3.3954,3.3935,3.391,3.3862,3.3807,3.3807,3.3807,3.3807,3.3807,3.3807,3.3807,3.3807,3.3807,3.3795,3.3715,3.3678,3.3605,3.2938,3.2546,3.2344,3.1696,3.1317,3.1133,3.054,2.9969,2.9598,2.956,2.9606,2.9753,2.9903,2.9981,3.0032,3.0251,3.037,3.0286,3.0269,2.9907,2.9223,2.9124,2.88,2.8162,2.7893,2.7431,2.6695,2.5904,2.55,2.5404,2.5385,2.5327,2.532,2.5317,2.5337,2.5406,2.5471,2.5536,2.5597,2.5659,2.5684,2.5703,2.5703,2.5703,2.5703,2.5781,2.584,2.5859,2.5918,2.5879,2.5937,2.5977,2.5879,2.5703,2.5703,2.5703,2.5703,2.5703,2.5703,2.5703,2.5703,2.5703,2.5703,2.5703,2.5703,2.5703,2.5703,2.5703,2.5703,2.5703,2.5703,2.582,2.6016,2.6172,2.625,2.6348,2.6211,2.6113,2.6133,2.6104,2.6073,2.5958,2.5487,2.5565,2.729,2.8074,2.8027,2.8893,2.9278,2.9583,3.008,3.0404,3.0404,3.0404,3.0404,3.5899,3.5862,3.5642,3.5158,3.4674,3.4626,3.4325,3.3807,3.3807,3.3807,3.3807,3.3807,3.3807,3.3807,3.3807,3.3807,3.3807,3.3807,3.3807,3.3752,3.3532,3.3115,3.2644,3.2332,3.1935,3.1445,3.1152,3.0937,3.069,3.0209,3.0091,3.0207,2.9828,2.9767,2.9996,3.0086,3.0199,3.0373,3.0404,3.025,3.0,2.9984,2.9849,2.9599,2.9047,2.8588,2.828,2.7525,2.6832,2.6233,2.6195,2.5923,2.5442,2.5308,2.5308,2.5333,2.5393,2.5464,2.5534,2.5618,2.5718,2.5703,2.5723,2.5703,2.5781,2.6289,2.6562,2.668,2.7109,2.75,2.748,2.75,2.6973,2.582,2.5703,2.5742,2.5703,2.5703,2.5703,2.5703,2.5703,2.5703,2.5723,2.5723,2.5801,2.584,2.582,2.5801,2.5742,2.582,2.6113,2.6641,2.6758,2.6953,2.7168,2.7422,2.7461,2.7246,2.709,2.7031,2.6888,2.6657,2.6121,2.653,2.8232,2.9,2.8953,2.9162,2.9621,2.9907,3.0269,3.0404,3.0404,3.0404,3.0404,3.6732,3.6721,3.642,3.5984,3.5507,3.5481,3.5011,3.4314,3.4266,3.4075,3.3862,3.3807,3.3807,3.3807,3.3807,3.3807,3.3807,3.3807,3.3807,3.3807,3.3807,3.3507,3.3066,3.3048,3.2632,3.1971,3.1843,3.1678,3.1372,3.0919,3.074,3.0748,3.048,3.0257,3.0278,3.038,3.0464,3.0305,3.0336,3.0404,3.0404,3.0404,3.0404,3.0308,2.9868,2.9602,2.9525,2.9061,2.8294,2.7332,2.7082,2.6791,2.6291,2.6019,2.5788,2.5794,2.5846,2.5929,2.5994,2.6421,2.6589,2.6641,2.666,2.668,2.6758,2.7266,2.7461,2.7598,2.793,2.8281,2.8262,2.8281,2.7754,2.6836,2.6406,2.6074,2.582,2.5703,2.5703,2.5703,2.5703,2.584,2.6094,2.6191,2.6348,2.6523,2.666,2.6504,2.6426,2.6387,2.7012,2.7637,2.8008,2.8144,2.8223,2.8457,2.873,2.8516,2.8262,2.8223,2.8118,2.7884,2.7502,2.8178,2.9555,2.9721,2.9734,2.9888,3.0231,3.0385,3.0404,3.0404,3.0404,3.0404,3.0404,3.7566,3.7456,3.6769,3.6475,3.6376,3.6365,3.5881,3.5151,3.5078,3.4663,3.4064,3.3984,3.388,3.3825,3.3807,3.3807,3.3807,3.3807,3.3807,3.3807,3.3807,3.3733,3.3678,3.366,3.3268,3.2754,3.2662,3.232,3.1813,3.1574,3.147,3.1483,3.1513,3.1397,3.0854,3.1087,3.0799,3.0344,3.0324,3.0355,3.0379,3.0404,3.0404,3.0404,3.0346,3.0288,3.025,3.0154,2.9503,2.82,2.7854,2.772,2.7662,2.7104,2.6678,2.6659,2.6745,2.6805,2.7037,2.7458,2.7947,2.7988,2.8008,2.8281,2.8086,2.8203,2.8379,2.8379,2.8574,2.8613,2.8633,2.8652,2.8535,2.8281,2.7539,2.6797,2.6035,2.5977,2.6152,2.6074,2.5937,2.6152,2.6973,2.707,2.7422,2.7832,2.8027,2.7754,2.7676,2.7656,2.8125,2.8652,2.9199,2.9258,2.9316,2.9414,2.9648,2.959,2.9375,2.9316,2.9297,2.9082,2.873,2.9494,3.0052,3.0265,3.0365,3.0385,3.0404,3.0404,3.0404,3.0404,3.0404,3.0404,3.0404,3.8395,3.8366,3.8157,3.7742,3.7235,3.7199,3.6732,3.6009,3.5954,3.547,3.4821,3.4674,3.4387,3.3862,3.3844,3.3807,3.3844,3.3807,3.3807,3.3807,3.3807,3.3807,3.3807,3.3807,3.3697,3.3476,3.3421,3.336,3.3128,3.254,3.2302,3.2259,3.1826,3.1582,3.1456,3.1075,3.0902,3.0845,3.034,3.0231,3.0373,3.0404,3.0404,3.0404,3.0404,3.0404,3.0404,3.0404,2.9945,2.8876,2.8184,2.789,2.7967,2.7698,2.7544,2.7552,2.7578,2.7611,2.7723,2.8006,2.8185,2.8204,2.8455,2.8301,2.832,2.8926,2.9199,2.9375,2.9785,3.0156,3.0176,3.0137,2.9902,2.9277,2.8535,2.7891,2.7598,2.7617,2.7617,2.7598,2.7539,2.7656,2.7832,2.7969,2.8105,2.834,2.8476,2.8535,2.8652,2.875,2.9121,2.9902,3.041,3.0371,3.0391,3.0469,3.0547,3.0547,3.0449,3.0391,3.0351,3.0273,2.9824,2.9738,3.0117,3.0355,3.0385,3.0388,3.0404,3.0404,3.0404,3.0404,3.0404,3.0404,3.0404,3.8699,3.8699,3.8699,3.8432,3.8036,3.8017,3.7558,3.6916,3.6787,3.634,3.569,3.5555,3.5286,3.4835,3.4486,3.4314,3.4259,3.3935,3.3807,3.3807,3.3807,3.3807,3.3807,3.3807,3.3807,3.3807,3.3807,3.3788,3.3697,3.3311,3.3121,3.3029,3.2632,3.2348,3.2107,3.1842,3.1373,3.1134,3.0685,3.0546,3.0405,3.0404,3.0404,3.0404,3.0404,3.0404,3.0404,3.0404,3.0135,2.966,2.9214,2.8948,2.8909,2.8563,2.8415,2.8393,2.8396,2.8434,2.8571,2.8884,2.9174,2.9265,2.9332,2.9394,2.9492,2.9902,3.0156,3.0215,3.0664,3.0859,3.0918,3.0918,3.0684,3.0215,2.9687,2.9101,2.8437,2.8223,2.8281,2.8301,2.8301,2.8496,2.8769,2.8848,2.9043,2.9316,2.957,2.9707,2.9844,2.9902,3.0,3.0605,3.0918,3.0762,3.0684,3.0742,3.0762,3.082,3.084,3.0918,3.0918,3.0918,3.0586,3.0193,3.0326,3.0399,3.0411,3.0411,3.0404,3.0404,3.0404,3.0404,3.0404,3.0404,3.0404,3.8699,3.8699,3.8699,3.8699,3.8663,3.8663,3.823,3.7705,3.7613,3.7173,3.6541,3.6413,3.6255,3.6273,3.5397,3.5071,3.4931,3.4314,3.3954,3.3862,3.3807,3.3807,3.3807,3.3807,3.3807,3.3807,3.3807,3.3807,3.377,3.3752,3.377,3.366,3.366,3.3378,3.2863,3.2785,3.2248,3.1586,3.1385,3.1237,3.0996,3.0965,3.0981,3.0962,3.0731,3.0558,3.0459,3.0404,3.0346,3.0385,3.0404,3.0231,3.0173,2.9563,2.9297,2.9239,2.9242,2.9258,2.9407,3.0005,3.0484,3.0464,3.0617,3.0879,3.0703,3.0723,3.0762,3.0742,3.0898,3.0918,3.0918,3.0918,3.0879,3.0742,3.0781,3.0078,2.9043,2.8574,2.8574,2.8574,2.8613,2.8984,2.9414,2.9785,2.998,3.0117,3.0312,3.0371,3.0469,3.0469,3.0527,3.0762,3.0918,3.0918,3.0879,3.0898,3.0879,3.0898,3.0898,3.0918,3.0918,3.0918,3.0898,3.0803,3.0656,3.0534,3.0465,3.0455,3.0431,3.0404,3.0404,3.0404,3.0404,3.0404,3.0404,3.8699,3.8699,3.8699,3.8699,3.8699,3.8699,3.8597,3.8414,3.8432,3.7944,3.7382,3.7254,3.6905,3.6347,3.6119,3.569,3.5181,3.4839,3.4442,3.3825,3.3807,3.3807,3.3807,3.3807,3.3807,3.3807,3.3807,3.3807,3.3807,3.3807,3.3807,3.3807,3.3807,3.3708,3.3521,3.303,3.2848,3.2695,3.2331,3.2133,3.2225,3.2199,3.2199,3.2157,3.1695,3.1058,3.0538,3.0404,3.0404,3.0404,3.0481,3.0596,3.0385,3.0176,3.0041,3.0022,3.0041,3.0097,3.0188,3.0345,3.0561,3.0612,3.0709,3.0801,3.0898,3.0918,3.0918,3.0918,3.0918,3.0918,3.0918,3.0918,3.0918,3.0918,3.0898,3.0762,3.041,3.0273,3.0176,3.0215,3.0215,3.0391,3.0547,3.0527,3.0703,3.0898,3.0918,3.0918,3.0918,3.0918,3.0918,3.0918,3.0918,3.0918,3.0918,3.0918,3.0918,3.0918,3.0918,3.0918,3.0918,3.0898,3.0898,3.0858,3.081,3.0701,3.0558,3.0509,3.0477,3.0438,3.0396,3.0396,3.0402,3.0413,3.0404,3.8699,3.8699,3.8699,3.8699,3.8699,3.8699,3.8699,3.8699,3.8699,3.8469,3.8146,3.8072,3.7808,3.7404,3.7026,3.656,3.6167,3.5745,3.5158,3.4552,3.4369,3.4174,3.3825,3.3807,3.3807,3.3807,3.3807,3.3807,3.3807,3.3807,3.3807,3.3807,3.3814,3.3807,3.3835,3.3474,3.3374,3.3294,3.3151,3.2969,3.2907,3.2891,3.2891,3.2872,3.2487,3.1987,3.1657,3.1602,3.158,3.1561,3.1538,3.1154,3.0516,3.0404,3.0404,3.0404,3.0404,3.0404,3.0403,3.0465,3.0529,3.0597,3.0667,3.0767,3.0879,3.0918,3.0918,3.0918,3.0918,3.0918,3.0918,3.0918,3.0918,3.0918,3.0918,3.0918,3.0918,3.0918,3.0918,3.0918,3.0801,3.082,3.0898,3.0918,3.0918,3.0918,3.0918,3.0918,3.0918,3.0918,3.0918,3.0918,3.0918,3.0918,3.0918,3.0918,3.0918,3.0918,3.0918,3.0918,3.0918,3.0898,3.0879,3.0859,3.0859,3.0781,3.0655,3.0595,3.0525,3.0491,3.0464,3.0439,3.0416,3.0396,3.0388,3.8699,3.8699,3.8699,3.8699,3.8699,3.8699,3.8699,3.8699,3.8699,3.8663,3.8681,3.8699,3.8516,3.8487,3.7962,3.7658,3.7235,3.6604,3.5734,3.5286,3.5206,3.4773,3.4284,3.4119,3.3972,3.3844,3.3807,3.3807,3.3807,3.3807,3.3807,3.382,3.3875,3.3902,3.3929,3.4092,3.4084,3.3876,3.3941,3.3884,3.3566,3.3487,3.3449,3.3199,3.3179,3.2933,3.2718,3.2679,3.2776,3.2891,3.2891,3.2138,3.1231,3.0769,3.0654,3.0692,3.0712,3.0615,3.046,3.0459,3.0509,3.0599,3.0652,3.0739,3.082,3.0898,3.0918,3.0918,3.0918,3.0996,3.1074,3.123,3.1269,3.1309,3.1269,3.1094,3.1055,3.1016,3.0918,3.0918,3.0918,3.0918,3.0918,3.0918,3.0918,3.0918,3.0918,3.0918,3.0918,3.0918,3.0918,3.0918,3.0918,3.0918,3.0918,3.0918,3.0918,3.0918,3.0918,3.0918,3.0918,3.0898,3.0898,3.0898,3.0879,3.0801,3.0738,3.0658,3.0595,3.0541,3.0509,3.0475,3.0436,3.0408,3.0432,3.8699,3.8699,3.8699,3.8699,3.8699,3.8699,3.8699,3.8699,3.8699,3.8699,3.8699,3.8699,3.8699,3.8626,3.8615,3.8146,3.7511,3.6898,3.6358,3.6101,3.6046,3.5605,3.4931,3.4656,3.4442,3.3954,3.3862,3.3899,3.3825,3.3807,3.3834,3.3837,3.4,3.4099,3.4212,3.444,3.4645,3.4607,3.4734,3.4745,3.4805,3.4773,3.4523,3.4048,3.3987,3.3683,3.3144,3.2968,3.2891,3.2891,3.291,3.2776,3.258,3.2484,3.2157,3.1618,3.1465,3.125,3.082,3.0568,3.0505,3.052,3.0754,3.0772,3.0856,3.0934,3.1211,3.1133,3.1152,3.125,3.1914,3.1973,3.2324,3.2539,3.2344,3.1992,3.1855,3.1543,3.1113,3.1113,3.1035,3.0918,3.0918,3.0957,3.1055,3.1035,3.0996,3.0957,3.0918,3.0918,3.0918,3.0918,3.0918,3.0918,3.0918,3.0918,3.0918,3.0918,3.0918,3.0918,3.0918,3.0918,3.0918,3.0918,3.0898,3.084,3.0767,3.0723,3.0661,3.0607,3.0544,3.0546,3.0716,3.0887,3.0603,3.8699,3.8699,3.8699,3.8699,3.8699,3.8699,3.8699,3.8699,3.8699,3.8699,3.8699,3.8699,3.8699,3.8699,3.8699,3.8432,3.8046,3.7771,3.7312,3.7063,3.6879,3.6468,3.5628,3.5279,3.5176,3.4945,3.4706,3.4167,3.3844,3.3807,3.3875,3.4012,3.4153,3.4288,3.4489,3.4764,3.4958,3.5113,3.5231,3.5361,3.549,3.5503,3.5196,3.5007,3.4834,3.4641,3.4388,3.4253,3.4273,3.4273,3.4273,3.4234,3.4196,3.4061,3.3641,3.2622,3.2314,3.2157,3.1772,3.1701,3.1788,3.1828,3.1805,3.1919,3.2018,3.217,3.2066,3.2129,3.2187,3.2344,3.2773,3.2812,3.3027,3.3223,3.3047,3.2871,3.2734,3.2402,3.2012,3.1562,3.1269,3.1113,3.0918,3.1016,3.1172,3.1172,3.1113,3.1035,3.0976,3.0918,3.0918,3.0957,3.0976,3.0996,3.0976,3.0918,3.0918,3.0918,3.1074,3.1074,3.0976,3.1016,3.0957,3.0918,3.0898,3.1152,3.0879,3.0859,3.0762,3.081,3.1112,3.1337,3.1372,3.1304,3.1157,3.8699,3.8699,3.8699,3.8699,3.8699,3.8699,3.8699,3.8699,3.8699,3.8699,3.8699,3.8699,3.8699,3.8699,3.8699,3.8681,3.8699,3.8626,3.8248,3.787,3.7731,3.7301,3.6523,3.5984,3.5764,3.5862,3.5587,3.4846,3.427,3.4149,3.4119,3.4105,3.4177,3.4407,3.4689,3.5018,3.5117,3.5258,3.5369,3.5477,3.5503,3.5503,3.5503,3.5503,3.5503,3.5423,3.5288,3.5269,3.5288,3.5292,3.535,3.5407,3.5465,3.5484,3.485,3.3696,3.3298,3.3106,3.2852,3.2795,3.2648,3.2684,3.2902,3.3056,3.3147,3.3038,3.3223,3.3379,3.332,3.3418,3.3594,3.3652,3.3809,3.3965,3.3887,3.3633,3.3594,3.332,3.2891,3.2363,3.1738,3.1328,3.1172,3.1406,3.1621,3.1875,3.1836,3.1328,3.123,3.0957,3.0937,3.0996,3.1035,3.1094,3.1035,3.0918,3.0918,3.0918,3.1269,3.1523,3.1328,3.1152,3.125,3.1582,3.1719,3.1914,3.1465,3.125,3.1484,3.1743,3.201,3.2162,3.2237,3.2232,3.2137,3.8699,3.8699,3.8699,3.8699,3.8699,3.8699,3.8699,3.8699,3.8699,3.8699,3.8699,3.8699,3.8699,3.8699,3.8699,3.8699,3.8699,3.8681,3.8615,3.8395,3.8395,3.8036,3.7448,3.7309,3.6743,3.6641,3.6303,3.5653,3.514,3.4949,3.4515,3.4245,3.4553,3.4708,3.4846,3.5194,3.5439,3.5465,3.549,3.5503,3.5503,3.5503,3.5503,3.5503,3.5503,3.5503,3.5503,3.5503,3.5503,3.5503,3.5503,3.5503,3.5503,3.5503,3.5442,3.5023,3.4507,3.3744,3.3237,3.3199,3.3221,3.3308,3.3214,3.3141,3.3465,3.3633,3.3672,3.3379,3.3496,3.3887,3.4434,3.4531,3.4922,3.5019,3.4863,3.4629,3.4512,3.4316,3.3867,3.3457,3.291,3.2031,3.1484,3.1816,3.2129,3.2383,3.2461,3.2031,3.1797,3.1797,3.1621,3.1836,3.1797,3.1816,3.1777,3.1562,3.1445,3.1289,3.1641,3.2109,3.2148,3.2168,3.2422,3.2695,3.2851,3.2812,3.248,3.2402,3.248,3.2655,3.2883,3.3031,3.3133,3.3128,3.3261,3.8699,3.8699,3.8699,3.8699,3.8699,3.8699,3.8699,3.8699,3.8699,3.8699,3.8699,3.8699,3.8699,3.8699,3.8699,3.8699,3.8699,3.8699,3.8699,3.8699,3.8663,3.8505,3.8146,3.7768,3.7356,3.7533,3.721,3.6898,3.6358,3.5905,3.5431,3.508,3.5203,3.5301,3.5177,3.5384,3.5463,3.5497,3.5503,3.5503,3.5503,3.5503,3.5503,3.5503,3.5503,3.5503,3.5503,3.5503,3.5503,3.5503,3.5503,3.5503,3.5503,3.5503,3.5481,3.5462,3.5176,3.4773,3.4465,3.4353,3.4273,3.4337,3.4355,3.4565,3.4623,3.4707,3.4805,3.4902,3.4883,3.5059,3.5273,3.541,3.5605,3.5723,3.5566,3.5488,3.5293,3.5195,3.4902,3.4492,3.4062,3.3262,3.2598,3.2793,3.3184,3.3437,3.3633,3.3476,3.3437,3.3613,3.3379,3.3105,3.2949,3.2773,3.2734,3.2617,3.2578,3.248,3.2539,3.2969,3.3262,3.3418,3.3613,3.3984,3.4355,3.4141,3.3633,3.3281,3.3144,3.3418,3.3768,3.3919,3.4105,3.4614,3.4708,3.8699,3.8699,3.8699,3.8699,3.8699,3.8699,3.8699,3.8699,3.8699,3.8699,3.8699,3.8699,3.8699,3.8699,3.8699,3.8699,3.8699,3.8699,3.8699,3.8699,3.8699,3.8681,3.8469,3.8109,3.812,3.8681,3.8046,3.776,3.7577,3.7206,3.6695,3.6143,3.6123,3.598,3.5775,3.5795,3.583,3.5503,3.5503,3.5503,3.5503,3.5503,3.5503,3.5503,3.5503,3.5503,3.5503,3.5503,3.5503,3.5503,3.5503,3.5503,3.5503,3.5503,3.5503,3.5503,3.5369,3.5369,3.5273,3.5273,3.5484,3.5508,3.5543,3.5367,3.5557,3.5898,3.5996,3.5781,3.5801,3.5859,3.5996,3.5957,3.5957,3.5957,3.5937,3.5996,3.5976,3.5703,3.5547,3.5293,3.4961,3.4785,3.4277,3.4141,3.4277,3.4512,3.4648,3.4746,3.4844,3.4941,3.4512,3.4043,3.3887,3.3574,3.3262,3.3301,3.3398,3.3574,3.3633,3.3711,3.3926,3.4297,3.457,3.5059,3.5508,3.5332,3.4746,3.4238,3.3828,3.4394,3.4844,3.4902,3.5147,3.5644,3.5767,3.8699,3.8699,3.8699,3.8699,3.8699,3.8699,3.8699,3.8699,3.8699,3.8699,3.8699,3.8699,3.8699,3.8699,3.8699,3.8699,3.8699,3.8699,3.8699,3.8699,3.8699,3.8699,3.8615,3.8579,3.8553,3.8663,3.8469,3.8487,3.8542,3.8267,3.7583,3.6839,3.6981,3.6684,3.6498,3.6504,3.6339,3.6,3.5885,3.5808,3.575,3.5673,3.5615,3.5577,3.5538,3.5503,3.5503,3.5503,3.5503,3.5503,3.5503,3.5503,3.5503,3.5503,3.5503,3.5503,3.5503,3.5503,3.5503,3.5503,3.5503,3.5531,3.5585,3.5648,3.5703,3.5894,3.5996,3.5996,3.5996,3.6016,3.6016,3.6016,3.6016,3.6016,3.6016,3.6016,3.6016,3.5996,3.5859,3.5898,3.5742,3.5449,3.5371,3.5098,3.4902,3.5078,3.5312,3.5391,3.5508,3.5547,3.5137,3.4766,3.4668,3.4297,3.3672,3.373,3.4121,3.4336,3.4414,3.4414,3.4434,3.4863,3.5293,3.5527,3.582,3.5859,3.5801,3.5137,3.4883,3.5547,3.584,3.5605,3.5547,3.582,3.5859,3.8699,3.8699,3.8699,3.8699,3.8699,3.8699,3.8699,3.8699,3.8699,3.8699,3.8699,3.8699,3.8699,3.8699,3.8699,3.8699,3.8699,3.8699,3.8699,3.8699,3.8699,3.8699,3.8699,3.8699,3.8681,3.8699,3.8699,3.8699,3.867,3.8699,3.8666,3.8211,3.79,3.7501,3.7303,3.7279,3.7174,3.71,3.6984,3.7023,3.6927,3.6462,3.625,3.6234,3.5635,3.5538,3.5503,3.5503,3.5503,3.5523,3.5542,3.5538,3.5503,3.5503,3.5503,3.5503,3.5503,3.5503,3.5503,3.5503,3.5503,3.5509,3.5588,3.565,3.5672,3.5815,3.5918,3.5957,3.5976,3.6016,3.6016,3.6016,3.6016,3.6016,3.6016,3.6016,3.6016,3.6016,3.6016,3.5976,3.5976,3.5859,3.5879,3.5898,3.5723,3.5625,3.5859,3.6016,3.6016,3.6016,3.5586,3.5371,3.5273,3.5293,3.4726,3.4785,3.4922,3.5019,3.5156,3.5117,3.5098,3.541,3.5801,3.5976,3.6016,3.5976,3.5859,3.5684,3.5723,3.5937,3.5996,3.5937,3.5976,3.6016,3.5937,3.8699,3.8699,3.8699,3.8699,3.8699,3.8699,3.8699,3.8699,3.8699,3.8699,3.8699,3.8699,3.8699,3.8699,3.8699,3.8699,3.8699,3.8699,3.8699,3.8699,3.8699,3.8699,3.8699,3.8699,3.8699,3.8699,3.8699,3.8699,3.8699,3.8699,3.8704,3.8711,3.8702,3.8271,3.8023,3.7946,3.8004,3.8004,3.8004,3.8004,3.7834,3.743,3.71,3.7061,3.6619,3.6465,3.6465,3.6465,3.6215,3.6061,3.5904,3.575,3.5596,3.5503,3.5503,3.5503,3.5503,3.5523,3.5523,3.5503,3.5503,3.5508,3.5565,3.5603,3.5669,3.5785,3.5885,3.593,3.5976,3.6035,3.6074,3.6016,3.6016,3.6016,3.6016,3.6016,3.6016,3.6016,3.6016,3.5996,3.6016,3.6016,3.6016,3.6016,3.5937,3.582,3.5898,3.6016,3.6016,3.6016,3.5957,3.582,3.582,3.5879,3.5937,3.5664,3.543,3.5508,3.5625,3.5742,3.582,3.6016,3.6016,3.6016,3.6016,3.6016,3.5937,3.582,3.5879,3.5996,3.6016,3.6016,3.6016,3.6016,3.6016,3.8699,3.8699,3.8699,3.8699,3.8699,3.8699,3.8699,3.8699,3.8699,3.8699,3.8699,3.8699,3.8699,3.8699,3.8699,3.8699,3.8699,3.8699,3.8699,3.8699,3.8699,3.8699,3.8699,3.8699,3.8699,3.8699,3.8699,3.8699,3.8699,3.8699,3.8735,3.8837,3.8912,3.8958,3.8714,3.828,3.8058,3.8061,3.818,3.8257,3.8277,3.8126,3.7988,3.7911,3.7657,3.7465,3.7446,3.7446,3.7177,3.6811,3.6696,3.6442,3.6,3.5885,3.585,3.5811,3.575,3.5692,3.5596,3.5558,3.5753,3.5898,3.6137,3.6044,3.5856,3.5917,3.62,3.6504,3.6348,3.6269,3.6152,3.6172,3.6309,3.6152,3.6191,3.6016,3.6016,3.6016,3.6016,3.6016,3.6016,3.6016,3.6016,3.6016,3.6016,3.5976,3.5996,3.6016,3.6016,3.6016,3.6016,3.6016,3.6016,3.6016,3.6016,3.6016,3.5937,3.6016,3.6016,3.6016,3.6016,3.6016,3.6016,3.6016,3.6016,3.6016,3.6016,3.5996,3.6016,3.6016,3.6016,3.6016,3.6016,3.6016,3.6016,3.8699,3.8699,3.8699,3.8699,3.8699,3.8699,3.8699,3.8699,3.8699,3.8699,3.8699,3.8699,3.8699,3.8699,3.8699,3.8699,3.8699,3.8699,3.8699,3.8699,3.8699,3.8699,3.8699,3.8699,3.8699,3.8699,3.8699,3.8699,3.8699,3.8699,3.8699,3.8781,3.9151,3.9488,3.9638,3.958,3.9685,3.9665,3.9685,3.9665,3.9569,3.9146,3.8857,3.8838,3.8392,3.8161,3.818,3.8219,3.7984,3.7638,3.7561,3.735,3.7042,3.6984,3.7042,3.7081,3.7119,3.7157,3.7161,3.7199,3.7161,3.7167,3.704,3.7016,3.7186,3.7275,3.7391,3.7403,3.7326,3.7411,3.7734,3.7754,3.7676,3.6894,3.6621,3.6152,3.6016,3.6016,3.6016,3.6016,3.6016,3.6016,3.6035,3.6016,3.6016,3.6016,3.6016,3.6016,3.6016,3.6016,3.6016,3.6016,3.6016,3.6016,3.6016,3.6016,3.6016,3.6016,3.6016,3.6016,3.6016,3.6016,3.6016,3.6016,3.6016,3.6016,3.6016,3.6016,3.6016,3.6016,3.6016,3.6016,3.6016,3.6016,3.6016,3.8699,3.8699,3.8699,3.8699,3.8699,3.8699,3.8699,3.8699,3.8699,3.8699,3.8699,3.8699,3.8699,3.8699,3.8699,3.8699,3.8699,3.8699,3.8699,3.8699,3.8699,3.8699,3.8699,3.8699,3.8699,3.8699,3.8699,3.8699,3.8699,3.8699,3.8699,3.884,3.9294,3.9579,3.9883,4.0111,4.0362,4.03,4.0262,4.0319,4.0208,3.9977,3.9704,3.9588,3.9281,3.8931,3.8896,3.8819,3.8719,3.8565,3.8434,3.83,3.8161,3.8027,3.8004,3.8004,3.7984,3.8104,3.8296,3.8392,3.8469,3.8842,3.843,3.8027,3.8001,3.7891,3.7983,3.8091,3.8404,3.8461,3.8567,3.8652,3.8418,3.7637,3.7402,3.6973,3.6875,3.6934,3.6719,3.6641,3.6465,3.6367,3.6152,3.6016,3.6016,3.6016,3.6016,3.6016,3.6035,3.6016,3.6016,3.6016,3.6016,3.6016,3.6016,3.6016,3.6016,3.6016,3.6016,3.6016,3.6016,3.6016,3.6016,3.6016,3.6016,3.6016,3.6016,3.6016,3.6016,3.6016,3.6016,3.6016,3.6016,3.6016,3.6016,3.8699,3.8699,3.8699,3.8699,3.8699,3.8699,3.8699,3.8699,3.8699,3.8699,3.8699,3.8699,3.8699,3.8699,3.8699,3.8699,3.8699,3.8699,3.8699,3.8699,3.8699,3.8699,3.8699,3.8699,3.8699,3.8699,3.8699,3.8699,3.8699,3.8699,3.8699,3.8822,3.9242,3.9523,3.98,4.012,4.041,4.0477,4.0492,4.0492,4.04,4.0416,4.0281,4.0204,4.0108,4.005,4.0069,4.0089,3.9819,3.9569,3.9319,3.8838,3.845,3.8123,3.8104,3.8142,3.8238,3.8738,3.9165,3.93,3.9569,3.9781,3.9031,3.8392,3.8294,3.8579,3.8743,3.8782,3.8919,3.8789,3.875,3.8867,3.8965,3.8691,3.8613,3.8418,3.832,3.8164,3.7891,3.7676,3.7422,3.7187,3.6758,3.6523,3.6621,3.6387,3.6387,3.6172,3.6152,3.6016,3.6016,3.6016,3.6016,3.6016,3.6016,3.6016,3.6016,3.6016,3.6016,3.6016,3.6016,3.6016,3.6016,3.6016,3.6016,3.6016,3.6016,3.6016,3.6016,3.6016,3.6016,3.6016,3.6016,3.6016,3.6016,3.8699,3.8699,3.8699,3.8699,3.8699,3.8699,3.8699,3.8699,3.8699,3.8699,3.8699,3.8699,3.8699,3.8699,3.8699,3.8699,3.8699,3.8699,3.8699,3.8699,3.8699,3.8699,3.8699,3.8699,3.8699,3.8699,3.8699,3.8699,3.8699,3.8699,3.8699,3.8777,3.9116,3.9333,3.9654,4.0013,4.0276,4.0461,4.0492,4.0492,4.0492,4.0492,4.0492,4.0492,4.0492,4.0492,4.0492,4.0492,4.0262,4.0185,4.0127,3.9896,3.9881,3.9785,3.9781,3.9785,3.9823,3.9935,4.0108,4.0146,4.0223,4.0396,3.9896,3.9938,3.9803,3.9635,3.966,3.9608,3.9652,3.9657,3.9749,3.9844,3.9766,3.9609,3.9512,3.9375,3.9258,3.9004,3.873,3.8437,3.8203,3.7891,3.748,3.7559,3.7578,3.7148,3.6836,3.6641,3.6309,3.6191,3.6016,3.6016,3.6016,3.6016,3.6016,3.6016,3.6016,3.6016,3.6016,3.6016,3.6016,3.6016,3.6016,3.6016,3.6016,3.6016,3.6016,3.6016,3.6016,3.6016,3.6016,3.6016,3.6016,3.6016,3.6016,3.8699,3.8699,3.8699,3.8699,3.8699,3.8699,3.8699,3.8699,3.8699,3.8699,3.8699,3.8699,3.8699,3.8699,3.8699,3.8699,3.8699,3.8699,3.8699,3.8699,3.8699,3.8699,3.8699,3.8699,3.8699,3.8699,3.8699,3.8699,3.8699,3.8699,3.8699,3.8727,3.8982,3.9282,3.9616,3.9948,4.0241,4.0401,4.0492,4.0492,4.0492,4.0492,4.0492,4.0492,4.0492,4.0492,4.0492,4.0492,4.0492,4.0492,4.0492,4.0492,4.0458,4.0458,4.0458,4.0381,4.0362,4.0339,4.0416,4.0435,4.0473,4.0492,4.0492,4.0439,4.04,4.025,4.0324,4.0369,4.0557,4.0736,4.0871,4.0957,4.0723,4.0469,4.0332,4.0195,3.998,3.9746,3.9453,3.916,3.8887,3.8613,3.8516,3.8633,3.8516,3.8047,3.7773,3.7676,3.707,3.6465,3.6191,3.6016,3.6016,3.6016,3.6016,3.6016,3.6016,3.6016,3.6016,3.6016,3.6016,3.6016,3.6016,3.6016,3.6016,3.6016,3.6016,3.6016,3.6016,3.6016,3.6016,3.6016,3.6016,3.6016,3.6016,3.8699,3.8699,3.8699,3.8699,3.8699,3.8699,3.8699,3.8699,3.8699,3.8699,3.8699,3.8699,3.8699,3.8699,3.8699,3.8699,3.8699,3.8699,3.8699,3.8699,3.8699,3.8699,3.8699,3.8699,3.8699,3.8699,3.8699,3.8699,3.8699,3.8699,3.8707,3.8738,3.8975,3.9264,3.9599,3.9927,4.0223,4.0453,4.0492,4.0492,4.0492,4.0492,4.0492,4.0492,4.0492,4.0492,4.0492,4.0492,4.0492,4.0492,4.0492,4.0492,4.0492,4.0492,4.0492,4.0492,4.0492,4.0492,4.0492,4.0492,4.0492,4.0492,4.0492,4.0492,4.0492,4.0492,4.0519,4.0547,4.0657,4.072,4.083,4.0975,4.0862,4.0816,4.0762,4.0703,4.0625,4.0449,4.0312,4.0019,3.9766,3.9531,3.9473,3.957,3.9394,3.8906,3.8672,3.8613,3.8027,3.7168,3.6777,3.6406,3.6055,3.6055,3.6016,3.6016,3.6016,3.6016,3.6016,3.6016,3.6016,3.6016,3.6016,3.6016,3.6016,3.6016,3.6016,3.6016,3.6016,3.6016,3.6016,3.6016,3.6016,3.6016,3.6016,3.8699,3.8699,3.8699,3.8699,3.8699,3.8699,3.8699,3.8699,3.8699,3.8699,3.8699,3.8699,3.8699,3.8699,3.8699,3.8699,3.8699,3.8699,3.8699,3.8699,3.8699,3.8699,3.8699,3.8699,3.8699,3.8699,3.8699,3.8699,3.8699,3.8699,3.8696,3.8735,3.8975,3.9264,3.9605,3.9927,4.0218,4.0477,4.0492,4.0492,4.0492,4.0492,4.0492,4.0492,4.0492,4.0492,4.0492,4.0492,4.0492,4.0492,4.0492,4.0492,4.0492,4.0492,4.0492,4.0492,4.0492,4.0492,4.0492,4.0492,4.0492,4.0492,4.0492,4.0492,4.0492,4.0492,4.0516,4.0541,4.0593,4.0657,4.0757,4.0901,4.102,4.1078,4.1133,4.1172,4.1191,4.1133,4.1055,4.0859,4.0605,4.0508,4.043,4.0312,4.0156,3.9922,3.9668,3.9434,3.8906,3.8203,3.793,3.7441,3.6328,3.6133,3.6133,3.6016,3.6016,3.6016,3.6016,3.6016,3.6016,3.6016,3.6016,3.6016,3.6016,3.6016,3.6016,3.6016,3.6016,3.6016,3.6016,3.6016,3.6016,3.6016,3.6016,3.8699,3.8699,3.8699,3.8699,3.8699,3.8699,3.8699,3.8699,3.8699,3.8699,3.8699,3.8699,3.8699,3.8699,3.8699,3.8699,3.8699,3.8699,3.8699,3.8699,3.8699,3.8699,3.8699,3.8699,3.8699,3.8699,3.8699,3.8699,3.8699,3.8699,3.8696,3.8732,3.8975,3.9276,3.9599,3.9927,4.0223,4.0504,4.0485,4.0492,4.0492,4.0492,4.0492,4.0492,4.0492,4.0492,4.0492,4.0492,4.0492,4.0492,4.0492,4.0492,4.0492,4.0492,4.0492,4.0492,4.0492,4.0492,4.0492,4.0492,4.0492,4.0492,4.0492,4.0492,4.0492,4.0492,4.0492,4.0515,4.0526,4.0587,4.0678,4.0814,4.0925,4.0992,4.1053,4.1094,4.1152,4.1172,4.1133,4.1074,4.0937,4.0918,4.0859,4.0859,4.0723,4.0684,4.0488,4.0391,3.9844,3.9297,3.9023,3.8574,3.7519,3.6758,3.6719,3.6406,3.6016,3.6016,3.6211,3.6035,3.6055,3.6035,3.6016,3.6016,3.6016,3.6016,3.6016,3.6016,3.6016,3.6016,3.6016,3.6016,3.6074,3.6191,3.6113,3.8699,3.8699,3.8699,3.8699,3.8699,3.8699,3.8699,3.8699,3.8699,3.8699,3.8699,3.8699,3.8699,3.8699,3.8699,3.8699,3.8699,3.8699,3.8699,3.8699,3.8699,3.8699,3.8699,3.8699,3.8699,3.8699,3.8699,3.8699,3.8699,3.8699,3.8712,3.8754,3.8961,3.9257,3.957,3.9917,4.0233,4.0387,4.0445,4.0489,4.0492,4.0492,4.0492,4.0492,4.0492,4.0492,4.0492,4.0492,4.0492,4.0492,4.0492,4.0492,4.0492,4.0492,4.0492,4.0492,4.0492,4.0492,4.0492,4.0492,4.0492,4.0492,4.0492,4.0492,4.0492,4.0492,4.0492,4.0496,4.0489,4.0534,4.0639,4.0715,4.082,4.0905,4.0976,4.1053,4.1133,4.1191,4.1191,4.1191,4.1191,4.1191,4.1191,4.1191,4.1191,4.1191,4.1191,4.1191,4.0996,4.0469,4.0059,3.9609,3.8867,3.8203,3.7578,3.7129,3.6719,3.6855,3.7031,3.6504,3.6094,3.6035,3.6016,3.6016,3.6016,3.6094,3.6035,3.6016,3.6016,3.625,3.6387,3.6582,3.6934,3.6934,3.6426,3.8699,3.8699,3.8699,3.8699,3.8699,3.8699,3.8699,3.8699,3.8699,3.8699,3.8699,3.8699,3.8699,3.8699,3.8699,3.8699,3.8699,3.8699,3.8699,3.8699,3.8699,3.8699,3.8699,3.8699,3.8699,3.8699,3.8699,3.8699,3.8699,3.8699,3.8707,3.8712,3.8975,3.9165,3.9264,3.9673,4.0139,4.0282,4.0425,4.0492,4.0492,4.0492,4.0492,4.0492,4.0492,4.0492,4.0492,4.0492,4.0492,4.0492,4.0492,4.0492,4.0492,4.0492,4.0492,4.0492,4.0492,4.0492,4.0492,4.0492,4.0492,4.0492,4.0492,4.0492,4.0492,4.0492,4.0492,4.0492,4.05,4.05,4.0584,4.0642,4.0742,4.0803,4.088,4.1037,4.1152,4.1172,4.1172,4.1191,4.1191,4.1191,4.1191,4.1191,4.1191,4.1191,4.1191,4.1191,4.1191,4.1074,4.0937,4.0488,3.9941,3.9277,3.8496,3.8203,3.7891,3.7969,3.7793,3.7148,3.6582,3.6074,3.6055,3.6484,3.6348,3.6269,3.6211,3.6562,3.666,3.6953,3.7051,3.7246,3.7656,3.7734,3.7266]}]]